<?xml version="1.0" encoding="UTF-8" standalone="no" ?>
<gpx xmlns="http://www.topografix.com/GPX/1/1" xmlns:xsi="http://www.w3.org/2001/XMLSchema-instance" xsi:schemaLocation="http://www.topografix.com/GPX/1/1 http://www.topografix.com/GPX/1/1/gpx.xsd" version="1.1" creator="VisuGPX - https://www.visugpx.com">
  <metadata>
    <name>bonnelles rochefort  en yvelines </name>
    <desc><![CDATA[AVF Antony
bonnelles rochefort  en yvelines ]]></desc>
  </metadata>
  <trk>
    <name><![CDATA[Track 077]]></name>
    <desc><![CDATA[22 oct. 2017  9:52 am]]></desc>
    <trkseg>
      <trkpt lat="48.61913" lon="2.02346">
        <ele>113.638</ele>
        <time>2017-10-22T07:52:28.000Z</time>
      </trkpt>
      <trkpt lat="48.61915" lon="2.02347">
        <ele>113.655</ele>
        <time>2017-10-22T07:52:29.822Z</time>
      </trkpt>
      <trkpt lat="48.61924" lon="2.02346">
        <ele>113.795</ele>
        <time>2017-10-22T07:52:38.027Z</time>
      </trkpt>
      <trkpt lat="48.61934" lon="2.02346">
        <ele>114.065</ele>
        <time>2017-10-22T07:52:45.759Z</time>
      </trkpt>
      <trkpt lat="48.61943" lon="2.02347">
        <ele>114.405</ele>
        <time>2017-10-22T07:52:53.763Z</time>
      </trkpt>
      <trkpt lat="48.61953" lon="2.02349">
        <ele>114.818</ele>
        <time>2017-10-22T07:53:04.000Z</time>
      </trkpt>
      <trkpt lat="48.61953" lon="2.02349">
        <ele>115.282</ele>
        <time>2017-10-22T07:53:19.000Z</time>
      </trkpt>
      <trkpt lat="48.61953" lon="2.02349">
        <ele>115.556</ele>
        <time>2017-10-22T07:53:34.115Z</time>
      </trkpt>
      <trkpt lat="48.61971" lon="2.02357">
        <ele>115.492</ele>
        <time>2017-10-22T07:53:59.054Z</time>
      </trkpt>
      <trkpt lat="48.61976" lon="2.02369">
        <ele>115.592</ele>
        <time>2017-10-22T07:54:07.748Z</time>
      </trkpt>
      <trkpt lat="48.61978" lon="2.02384">
        <ele>116.275</ele>
        <time>2017-10-22T07:54:16.654Z</time>
      </trkpt>
      <trkpt lat="48.61979" lon="2.02398">
        <ele>117.122</ele>
        <time>2017-10-22T07:54:25.101Z</time>
      </trkpt>
      <trkpt lat="48.61989" lon="2.02402">
        <ele>117.626</ele>
        <time>2017-10-22T07:54:33.785Z</time>
      </trkpt>
      <trkpt lat="48.61998" lon="2.02399">
        <ele>117.944</ele>
        <time>2017-10-22T07:54:42.018Z</time>
      </trkpt>
      <trkpt lat="48.62007" lon="2.02396">
        <ele>118.306</ele>
        <time>2017-10-22T07:54:49.792Z</time>
      </trkpt>
      <trkpt lat="48.62017" lon="2.02393">
        <ele>118.631</ele>
        <time>2017-10-22T07:54:57.940Z</time>
      </trkpt>
      <trkpt lat="48.62026" lon="2.02389">
        <ele>118.857</ele>
        <time>2017-10-22T07:55:05.424Z</time>
      </trkpt>
      <trkpt lat="48.62034" lon="2.02384">
        <ele>119.085</ele>
        <time>2017-10-22T07:55:12.480Z</time>
      </trkpt>
      <trkpt lat="48.62043" lon="2.0238">
        <ele>119.394</ele>
        <time>2017-10-22T07:55:19.672Z</time>
      </trkpt>
      <trkpt lat="48.62052" lon="2.02375">
        <ele>119.838</ele>
        <time>2017-10-22T07:55:27.011Z</time>
      </trkpt>
      <trkpt lat="48.6206" lon="2.02369">
        <ele>120.364</ele>
        <time>2017-10-22T07:55:34.624Z</time>
      </trkpt>
      <trkpt lat="48.62069" lon="2.02365">
        <ele>120.863</ele>
        <time>2017-10-22T07:55:41.501Z</time>
      </trkpt>
      <trkpt lat="48.62077" lon="2.02358">
        <ele>121.331</ele>
        <time>2017-10-22T07:55:48.272Z</time>
      </trkpt>
      <trkpt lat="48.62085" lon="2.02349">
        <ele>121.751</ele>
        <time>2017-10-22T07:55:56.000Z</time>
      </trkpt>
      <trkpt lat="48.62085" lon="2.02349">
        <ele>122.024</ele>
        <time>2017-10-22T07:56:05.000Z</time>
      </trkpt>
      <trkpt lat="48.62085" lon="2.02349">
        <ele>122.1</ele>
        <time>2017-10-22T07:56:05.100Z</time>
      </trkpt>
      <trkpt lat="48.62097" lon="2.02341">
        <ele>121.998</ele>
        <time>2017-10-22T07:56:23.884Z</time>
      </trkpt>
      <trkpt lat="48.62105" lon="2.02333">
        <ele>121.826</ele>
        <time>2017-10-22T07:56:31.703Z</time>
      </trkpt>
      <trkpt lat="48.62113" lon="2.02325">
        <ele>121.719</ele>
        <time>2017-10-22T07:56:38.898Z</time>
      </trkpt>
      <trkpt lat="48.62121" lon="2.02316">
        <ele>121.738</ele>
        <time>2017-10-22T07:56:45.656Z</time>
      </trkpt>
      <trkpt lat="48.62128" lon="2.02307">
        <ele>121.85</ele>
        <time>2017-10-22T07:56:52.000Z</time>
      </trkpt>
      <trkpt lat="48.62128" lon="2.02307">
        <ele>121.944</ele>
        <time>2017-10-22T07:56:58.000Z</time>
      </trkpt>
      <trkpt lat="48.62128" lon="2.02307">
        <ele>121.939</ele>
        <time>2017-10-22T07:57:17.051Z</time>
      </trkpt>
      <trkpt lat="48.6214" lon="2.02291">
        <ele>121.874</ele>
        <time>2017-10-22T07:57:40.076Z</time>
      </trkpt>
      <trkpt lat="48.62147" lon="2.02282">
        <ele>121.828</ele>
        <time>2017-10-22T07:57:48.014Z</time>
      </trkpt>
      <trkpt lat="48.62153" lon="2.02271">
        <ele>121.84</ele>
        <time>2017-10-22T07:57:55.317Z</time>
      </trkpt>
      <trkpt lat="48.62159" lon="2.0226">
        <ele>121.988</ele>
        <time>2017-10-22T07:58:02.233Z</time>
      </trkpt>
      <trkpt lat="48.62163" lon="2.02245">
        <ele>122.287</ele>
        <time>2017-10-22T07:58:08.811Z</time>
      </trkpt>
      <trkpt lat="48.62168" lon="2.02233">
        <ele>122.554</ele>
        <time>2017-10-22T07:58:14.464Z</time>
      </trkpt>
      <trkpt lat="48.62175" lon="2.02224">
        <ele>122.635</ele>
        <time>2017-10-22T07:58:20.070Z</time>
      </trkpt>
      <trkpt lat="48.62183" lon="2.02217">
        <ele>122.581</ele>
        <time>2017-10-22T07:58:26.037Z</time>
      </trkpt>
      <trkpt lat="48.62187" lon="2.02204">
        <ele>122.503</ele>
        <time>2017-10-22T07:58:33.000Z</time>
      </trkpt>
      <trkpt lat="48.62187" lon="2.02204">
        <ele>122.458</ele>
        <time>2017-10-22T07:58:46.000Z</time>
      </trkpt>
      <trkpt lat="48.62187" lon="2.02204">
        <ele>122.432</ele>
        <time>2017-10-22T07:58:51.178Z</time>
      </trkpt>
      <trkpt lat="48.62199" lon="2.02188">
        <ele>122.393</ele>
        <time>2017-10-22T07:59:21.943Z</time>
      </trkpt>
      <trkpt lat="48.62198" lon="2.02174">
        <ele>122.315</ele>
        <time>2017-10-22T07:59:32.321Z</time>
      </trkpt>
      <trkpt lat="48.62199" lon="2.02158">
        <ele>122.174</ele>
        <time>2017-10-22T07:59:41.356Z</time>
      </trkpt>
      <trkpt lat="48.622" lon="2.02145">
        <ele>121.988</ele>
        <time>2017-10-22T07:59:48.942Z</time>
      </trkpt>
      <trkpt lat="48.62201" lon="2.02131">
        <ele>121.824</ele>
        <time>2017-10-22T07:59:56.787Z</time>
      </trkpt>
      <trkpt lat="48.62202" lon="2.02117">
        <ele>121.729</ele>
        <time>2017-10-22T08:00:04.602Z</time>
      </trkpt>
      <trkpt lat="48.62204" lon="2.02104">
        <ele>121.631</ele>
        <time>2017-10-22T08:00:12.016Z</time>
      </trkpt>
      <trkpt lat="48.62206" lon="2.02088">
        <ele>121.459</ele>
        <time>2017-10-22T08:00:19.769Z</time>
      </trkpt>
      <trkpt lat="48.62207" lon="2.02074">
        <ele>121.295</ele>
        <time>2017-10-22T08:00:26.947Z</time>
      </trkpt>
      <trkpt lat="48.62209" lon="2.0206">
        <ele>121.225</ele>
        <time>2017-10-22T08:00:34.146Z</time>
      </trkpt>
      <trkpt lat="48.6221" lon="2.02045">
        <ele>121.222</ele>
        <time>2017-10-22T08:00:41.692Z</time>
      </trkpt>
      <trkpt lat="48.62213" lon="2.0203">
        <ele>121.237</ele>
        <time>2017-10-22T08:00:49.030Z</time>
      </trkpt>
      <trkpt lat="48.62214" lon="2.02015">
        <ele>121.247</ele>
        <time>2017-10-22T08:00:56.334Z</time>
      </trkpt>
      <trkpt lat="48.62216" lon="2.02001">
        <ele>121.248</ele>
        <time>2017-10-22T08:01:03.037Z</time>
      </trkpt>
      <trkpt lat="48.62217" lon="2.01986">
        <ele>121.212</ele>
        <time>2017-10-22T08:01:09.992Z</time>
      </trkpt>
      <trkpt lat="48.62218" lon="2.01972">
        <ele>121.117</ele>
        <time>2017-10-22T08:01:17.117Z</time>
      </trkpt>
      <trkpt lat="48.6222" lon="2.01957">
        <ele>121.015</ele>
        <time>2017-10-22T08:01:24.572Z</time>
      </trkpt>
      <trkpt lat="48.62221" lon="2.01943">
        <ele>120.963</ele>
        <time>2017-10-22T08:01:31.858Z</time>
      </trkpt>
      <trkpt lat="48.62223" lon="2.01927">
        <ele>120.953</ele>
        <time>2017-10-22T08:01:40.913Z</time>
      </trkpt>
      <trkpt lat="48.62222" lon="2.01913">
        <ele>120.977</ele>
        <time>2017-10-22T08:01:50.755Z</time>
      </trkpt>
      <trkpt lat="48.62218" lon="2.01901">
        <ele>121.029</ele>
        <time>2017-10-22T08:01:59.933Z</time>
      </trkpt>
      <trkpt lat="48.6222" lon="2.01888">
        <ele>121.077</ele>
        <time>2017-10-22T08:02:07.765Z</time>
      </trkpt>
      <trkpt lat="48.62221" lon="2.01873">
        <ele>121.1</ele>
        <time>2017-10-22T08:02:15.796Z</time>
      </trkpt>
      <trkpt lat="48.62224" lon="2.0186">
        <ele>121.121</ele>
        <time>2017-10-22T08:02:23.394Z</time>
      </trkpt>
      <trkpt lat="48.62227" lon="2.01846">
        <ele>121.2</ele>
        <time>2017-10-22T08:02:31.214Z</time>
      </trkpt>
      <trkpt lat="48.62228" lon="2.01831">
        <ele>121.349</ele>
        <time>2017-10-22T08:02:39.467Z</time>
      </trkpt>
      <trkpt lat="48.62231" lon="2.01818">
        <ele>121.493</ele>
        <time>2017-10-22T08:02:47.181Z</time>
      </trkpt>
      <trkpt lat="48.62233" lon="2.01804">
        <ele>121.576</ele>
        <time>2017-10-22T08:02:54.848Z</time>
      </trkpt>
      <trkpt lat="48.62233" lon="2.0179">
        <ele>121.628</ele>
        <time>2017-10-22T08:03:02.115Z</time>
      </trkpt>
      <trkpt lat="48.62233" lon="2.01776">
        <ele>121.702</ele>
        <time>2017-10-22T08:03:09.750Z</time>
      </trkpt>
      <trkpt lat="48.62231" lon="2.01761">
        <ele>121.792</ele>
        <time>2017-10-22T08:03:17.836Z</time>
      </trkpt>
      <trkpt lat="48.62235" lon="2.01748">
        <ele>121.864</ele>
        <time>2017-10-22T08:03:24.958Z</time>
      </trkpt>
      <trkpt lat="48.62237" lon="2.01734">
        <ele>121.902</ele>
        <time>2017-10-22T08:03:32.908Z</time>
      </trkpt>
      <trkpt lat="48.62229" lon="2.01726">
        <ele>121.95</ele>
        <time>2017-10-22T08:03:41.445Z</time>
      </trkpt>
      <trkpt lat="48.6222" lon="2.01723">
        <ele>122.042</ele>
        <time>2017-10-22T08:03:49.935Z</time>
      </trkpt>
      <trkpt lat="48.62211" lon="2.01721">
        <ele>122.15</ele>
        <time>2017-10-22T08:03:57.525Z</time>
      </trkpt>
      <trkpt lat="48.62202" lon="2.01715">
        <ele>122.225</ele>
        <time>2017-10-22T08:04:05.789Z</time>
      </trkpt>
      <trkpt lat="48.62193" lon="2.01712">
        <ele>122.255</ele>
        <time>2017-10-22T08:04:13.272Z</time>
      </trkpt>
      <trkpt lat="48.62184" lon="2.01707">
        <ele>122.255</ele>
        <time>2017-10-22T08:04:20.783Z</time>
      </trkpt>
      <trkpt lat="48.62174" lon="2.01705">
        <ele>122.246</ele>
        <time>2017-10-22T08:04:29.165Z</time>
      </trkpt>
      <trkpt lat="48.62165" lon="2.017">
        <ele>122.245</ele>
        <time>2017-10-22T08:04:37.818Z</time>
      </trkpt>
      <trkpt lat="48.62155" lon="2.01697">
        <ele>122.279</ele>
        <time>2017-10-22T08:04:45.572Z</time>
      </trkpt>
      <trkpt lat="48.62146" lon="2.01693">
        <ele>122.327</ele>
        <time>2017-10-22T08:04:52.527Z</time>
      </trkpt>
      <trkpt lat="48.62137" lon="2.01688">
        <ele>122.358</ele>
        <time>2017-10-22T08:04:59.311Z</time>
      </trkpt>
      <trkpt lat="48.62128" lon="2.01683">
        <ele>122.349</ele>
        <time>2017-10-22T08:05:06.018Z</time>
      </trkpt>
      <trkpt lat="48.6212" lon="2.01678">
        <ele>122.248</ele>
        <time>2017-10-22T08:05:12.880Z</time>
      </trkpt>
      <trkpt lat="48.62111" lon="2.01674">
        <ele>122.052</ele>
        <time>2017-10-22T08:05:20.570Z</time>
      </trkpt>
      <trkpt lat="48.62101" lon="2.01671">
        <ele>121.875</ele>
        <time>2017-10-22T08:05:28.581Z</time>
      </trkpt>
      <trkpt lat="48.62092" lon="2.0167">
        <ele>121.795</ele>
        <time>2017-10-22T08:05:36.371Z</time>
      </trkpt>
      <trkpt lat="48.62082" lon="2.01667">
        <ele>121.799</ele>
        <time>2017-10-22T08:05:44.389Z</time>
      </trkpt>
      <trkpt lat="48.62073" lon="2.01664">
        <ele>121.811</ele>
        <time>2017-10-22T08:05:51.332Z</time>
      </trkpt>
      <trkpt lat="48.62064" lon="2.01659">
        <ele>121.777</ele>
        <time>2017-10-22T08:05:58.118Z</time>
      </trkpt>
      <trkpt lat="48.62054" lon="2.01656">
        <ele>121.716</ele>
        <time>2017-10-22T08:06:05.237Z</time>
      </trkpt>
      <trkpt lat="48.62045" lon="2.01651">
        <ele>121.561</ele>
        <time>2017-10-22T08:06:11.497Z</time>
      </trkpt>
      <trkpt lat="48.62035" lon="2.01651">
        <ele>121.259</ele>
        <time>2017-10-22T08:06:18.958Z</time>
      </trkpt>
      <trkpt lat="48.62025" lon="2.01647">
        <ele>121.064</ele>
        <time>2017-10-22T08:06:26.839Z</time>
      </trkpt>
      <trkpt lat="48.62017" lon="2.01642">
        <ele>121.182</ele>
        <time>2017-10-22T08:06:33.853Z</time>
      </trkpt>
      <trkpt lat="48.62007" lon="2.01641">
        <ele>121.393</ele>
        <time>2017-10-22T08:06:41.026Z</time>
      </trkpt>
      <trkpt lat="48.61998" lon="2.01641">
        <ele>121.388</ele>
        <time>2017-10-22T08:06:48.661Z</time>
      </trkpt>
      <trkpt lat="48.61988" lon="2.0164">
        <ele>121.018</ele>
        <time>2017-10-22T08:06:56.279Z</time>
      </trkpt>
      <trkpt lat="48.61979" lon="2.01637">
        <ele>120.406</ele>
        <time>2017-10-22T08:07:03.376Z</time>
      </trkpt>
      <trkpt lat="48.61969" lon="2.01636">
        <ele>119.852</ele>
        <time>2017-10-22T08:07:10.782Z</time>
      </trkpt>
      <trkpt lat="48.6196" lon="2.01631">
        <ele>119.447</ele>
        <time>2017-10-22T08:07:17.634Z</time>
      </trkpt>
      <trkpt lat="48.6195" lon="2.0163">
        <ele>119.132</ele>
        <time>2017-10-22T08:07:25.202Z</time>
      </trkpt>
      <trkpt lat="48.61941" lon="2.01626">
        <ele>118.947</ele>
        <time>2017-10-22T08:07:33.014Z</time>
      </trkpt>
      <trkpt lat="48.61931" lon="2.01625">
        <ele>118.889</ele>
        <time>2017-10-22T08:07:41.600Z</time>
      </trkpt>
      <trkpt lat="48.61921" lon="2.01624">
        <ele>118.821</ele>
        <time>2017-10-22T08:07:50.645Z</time>
      </trkpt>
      <trkpt lat="48.61911" lon="2.01619">
        <ele>118.66</ele>
        <time>2017-10-22T08:07:59.768Z</time>
      </trkpt>
      <trkpt lat="48.61903" lon="2.01616">
        <ele>118.428</ele>
        <time>2017-10-22T08:08:07.349Z</time>
      </trkpt>
      <trkpt lat="48.61893" lon="2.01617">
        <ele>118.133</ele>
        <time>2017-10-22T08:08:14.945Z</time>
      </trkpt>
      <trkpt lat="48.61884" lon="2.01613">
        <ele>117.823</ele>
        <time>2017-10-22T08:08:22.207Z</time>
      </trkpt>
      <trkpt lat="48.61875" lon="2.01608">
        <ele>117.591</ele>
        <time>2017-10-22T08:08:30.249Z</time>
      </trkpt>
      <trkpt lat="48.61866" lon="2.01601">
        <ele>117.424</ele>
        <time>2017-10-22T08:08:38.657Z</time>
      </trkpt>
      <trkpt lat="48.61857" lon="2.01597">
        <ele>117.265</ele>
        <time>2017-10-22T08:08:46.683Z</time>
      </trkpt>
      <trkpt lat="48.61849" lon="2.0159">
        <ele>117.1</ele>
        <time>2017-10-22T08:08:54.629Z</time>
      </trkpt>
      <trkpt lat="48.6184" lon="2.01584">
        <ele>116.919</ele>
        <time>2017-10-22T08:09:02.188Z</time>
      </trkpt>
      <trkpt lat="48.61832" lon="2.0158">
        <ele>116.75</ele>
        <time>2017-10-22T08:09:09.729Z</time>
      </trkpt>
      <trkpt lat="48.61822" lon="2.01577">
        <ele>116.64</ele>
        <time>2017-10-22T08:09:17.455Z</time>
      </trkpt>
      <trkpt lat="48.61813" lon="2.01571">
        <ele>116.565</ele>
        <time>2017-10-22T08:09:25.348Z</time>
      </trkpt>
      <trkpt lat="48.61803" lon="2.0157">
        <ele>116.464</ele>
        <time>2017-10-22T08:09:33.145Z</time>
      </trkpt>
      <trkpt lat="48.61794" lon="2.01565">
        <ele>116.277</ele>
        <time>2017-10-22T08:09:40.404Z</time>
      </trkpt>
      <trkpt lat="48.61786" lon="2.01561">
        <ele>116.007</ele>
        <time>2017-10-22T08:09:47.489Z</time>
      </trkpt>
      <trkpt lat="48.61776" lon="2.01563">
        <ele>115.718</ele>
        <time>2017-10-22T08:09:54.772Z</time>
      </trkpt>
      <trkpt lat="48.61766" lon="2.01563">
        <ele>115.499</ele>
        <time>2017-10-22T08:10:01.519Z</time>
      </trkpt>
      <trkpt lat="48.61756" lon="2.01564">
        <ele>115.39</ele>
        <time>2017-10-22T08:10:08.726Z</time>
      </trkpt>
      <trkpt lat="48.61746" lon="2.01563">
        <ele>115.343</ele>
        <time>2017-10-22T08:10:16.052Z</time>
      </trkpt>
      <trkpt lat="48.61738" lon="2.01558">
        <ele>115.282</ele>
        <time>2017-10-22T08:10:23.165Z</time>
      </trkpt>
      <trkpt lat="48.61729" lon="2.01552">
        <ele>115.201</ele>
        <time>2017-10-22T08:10:30.867Z</time>
      </trkpt>
      <trkpt lat="48.61719" lon="2.01549">
        <ele>115.18</ele>
        <time>2017-10-22T08:10:38.893Z</time>
      </trkpt>
      <trkpt lat="48.61709" lon="2.01545">
        <ele>115.272</ele>
        <time>2017-10-22T08:10:46.744Z</time>
      </trkpt>
      <trkpt lat="48.61699" lon="2.01544">
        <ele>115.401</ele>
        <time>2017-10-22T08:10:54.555Z</time>
      </trkpt>
      <trkpt lat="48.6169" lon="2.01541">
        <ele>115.477</ele>
        <time>2017-10-22T08:11:02.271Z</time>
      </trkpt>
      <trkpt lat="48.6168" lon="2.0154">
        <ele>115.516</ele>
        <time>2017-10-22T08:11:09.668Z</time>
      </trkpt>
      <trkpt lat="48.61671" lon="2.01538">
        <ele>115.57</ele>
        <time>2017-10-22T08:11:16.907Z</time>
      </trkpt>
      <trkpt lat="48.61661" lon="2.01537">
        <ele>115.646</ele>
        <time>2017-10-22T08:11:23.929Z</time>
      </trkpt>
      <trkpt lat="48.61653" lon="2.01532">
        <ele>115.741</ele>
        <time>2017-10-22T08:11:31.603Z</time>
      </trkpt>
      <trkpt lat="48.61644" lon="2.01531">
        <ele>115.859</ele>
        <time>2017-10-22T08:11:39.723Z</time>
      </trkpt>
      <trkpt lat="48.61634" lon="2.01528">
        <ele>115.989</ele>
        <time>2017-10-22T08:11:47.442Z</time>
      </trkpt>
      <trkpt lat="48.61624" lon="2.01525">
        <ele>116.083</ele>
        <time>2017-10-22T08:11:55.639Z</time>
      </trkpt>
      <trkpt lat="48.61616" lon="2.01522">
        <ele>116.116</ele>
        <time>2017-10-22T08:12:03.000Z</time>
      </trkpt>
      <trkpt lat="48.61616" lon="2.01522">
        <ele>116.102</ele>
        <time>2017-10-22T08:12:07.000Z</time>
      </trkpt>
      <trkpt lat="48.61616" lon="2.01522">
        <ele>116.061</ele>
        <time>2017-10-22T08:12:07.185Z</time>
      </trkpt>
      <trkpt lat="48.61606" lon="2.01524">
        <ele>115.973</ele>
        <time>2017-10-22T08:12:25.754Z</time>
      </trkpt>
      <trkpt lat="48.61596" lon="2.0152">
        <ele>115.961</ele>
        <time>2017-10-22T08:12:36.766Z</time>
      </trkpt>
      <trkpt lat="48.61587" lon="2.01518">
        <ele>116.092</ele>
        <time>2017-10-22T08:12:46.113Z</time>
      </trkpt>
      <trkpt lat="48.61578" lon="2.01512">
        <ele>116.453</ele>
        <time>2017-10-22T08:12:54.067Z</time>
      </trkpt>
      <trkpt lat="48.6157" lon="2.01506">
        <ele>116.853</ele>
        <time>2017-10-22T08:13:01.645Z</time>
      </trkpt>
      <trkpt lat="48.6156" lon="2.01504">
        <ele>117.141</ele>
        <time>2017-10-22T08:13:08.887Z</time>
      </trkpt>
      <trkpt lat="48.61551" lon="2.0151">
        <ele>117.374</ele>
        <time>2017-10-22T08:13:16.223Z</time>
      </trkpt>
      <trkpt lat="48.61543" lon="2.01516">
        <ele>117.595</ele>
        <time>2017-10-22T08:13:23.718Z</time>
      </trkpt>
      <trkpt lat="48.61533" lon="2.01519">
        <ele>117.875</ele>
        <time>2017-10-22T08:13:31.750Z</time>
      </trkpt>
      <trkpt lat="48.61524" lon="2.01516">
        <ele>118.237</ele>
        <time>2017-10-22T08:13:39.614Z</time>
      </trkpt>
      <trkpt lat="48.61514" lon="2.01515">
        <ele>118.55</ele>
        <time>2017-10-22T08:13:47.233Z</time>
      </trkpt>
      <trkpt lat="48.61505" lon="2.01512">
        <ele>118.745</ele>
        <time>2017-10-22T08:13:55.135Z</time>
      </trkpt>
      <trkpt lat="48.61496" lon="2.01515">
        <ele>118.834</ele>
        <time>2017-10-22T08:14:02.735Z</time>
      </trkpt>
      <trkpt lat="48.61486" lon="2.01517">
        <ele>118.834</ele>
        <time>2017-10-22T08:14:10.814Z</time>
      </trkpt>
      <trkpt lat="48.61476" lon="2.01518">
        <ele>118.794</ele>
        <time>2017-10-22T08:14:19.222Z</time>
      </trkpt>
      <trkpt lat="48.61467" lon="2.01523">
        <ele>118.829</ele>
        <time>2017-10-22T08:14:26.229Z</time>
      </trkpt>
      <trkpt lat="48.61458" lon="2.01521">
        <ele>118.987</ele>
        <time>2017-10-22T08:14:32.882Z</time>
      </trkpt>
      <trkpt lat="48.61449" lon="2.01524">
        <ele>119.129</ele>
        <time>2017-10-22T08:14:39.821Z</time>
      </trkpt>
      <trkpt lat="48.61439" lon="2.01524">
        <ele>119.131</ele>
        <time>2017-10-22T08:14:47.657Z</time>
      </trkpt>
      <trkpt lat="48.61429" lon="2.01526">
        <ele>119.061</ele>
        <time>2017-10-22T08:14:55.431Z</time>
      </trkpt>
      <trkpt lat="48.6142" lon="2.01526">
        <ele>119.039</ele>
        <time>2017-10-22T08:15:02.755Z</time>
      </trkpt>
      <trkpt lat="48.61411" lon="2.01527">
        <ele>119.093</ele>
        <time>2017-10-22T08:15:09.883Z</time>
      </trkpt>
      <trkpt lat="48.61401" lon="2.01527">
        <ele>119.164</ele>
        <time>2017-10-22T08:15:17.737Z</time>
      </trkpt>
      <trkpt lat="48.61391" lon="2.01528">
        <ele>119.256</ele>
        <time>2017-10-22T08:15:24.924Z</time>
      </trkpt>
      <trkpt lat="48.61382" lon="2.01529">
        <ele>119.399</ele>
        <time>2017-10-22T08:15:31.695Z</time>
      </trkpt>
      <trkpt lat="48.61373" lon="2.01532">
        <ele>119.449</ele>
        <time>2017-10-22T08:15:38.011Z</time>
      </trkpt>
      <trkpt lat="48.61364" lon="2.01534">
        <ele>119.303</ele>
        <time>2017-10-22T08:15:44.571Z</time>
      </trkpt>
      <trkpt lat="48.61355" lon="2.01535">
        <ele>119.13</ele>
        <time>2017-10-22T08:15:51.397Z</time>
      </trkpt>
      <trkpt lat="48.61345" lon="2.01536">
        <ele>119.12</ele>
        <time>2017-10-22T08:15:58.866Z</time>
      </trkpt>
      <trkpt lat="48.61335" lon="2.01535">
        <ele>119.211</ele>
        <time>2017-10-22T08:16:06.000Z</time>
      </trkpt>
      <trkpt lat="48.61335" lon="2.01535">
        <ele>119.254</ele>
        <time>2017-10-22T08:16:15.000Z</time>
      </trkpt>
      <trkpt lat="48.61335" lon="2.01535">
        <ele>119.216</ele>
        <time>2017-10-22T08:16:15.965Z</time>
      </trkpt>
      <trkpt lat="48.61322" lon="2.01534">
        <ele>119.151</ele>
        <time>2017-10-22T08:16:34.613Z</time>
      </trkpt>
      <trkpt lat="48.61313" lon="2.01531">
        <ele>119.09</ele>
        <time>2017-10-22T08:16:44.700Z</time>
      </trkpt>
      <trkpt lat="48.61304" lon="2.01527">
        <ele>119.034</ele>
        <time>2017-10-22T08:16:52.996Z</time>
      </trkpt>
      <trkpt lat="48.61294" lon="2.01526">
        <ele>118.993</ele>
        <time>2017-10-22T08:17:01.952Z</time>
      </trkpt>
      <trkpt lat="48.61285" lon="2.01525">
        <ele>119.226</ele>
        <time>2017-10-22T08:17:10.448Z</time>
      </trkpt>
      <trkpt lat="48.61275" lon="2.0152">
        <ele>120.093</ele>
        <time>2017-10-22T08:17:19.723Z</time>
      </trkpt>
      <trkpt lat="48.61265" lon="2.01516">
        <ele>121.387</ele>
        <time>2017-10-22T08:17:28.986Z</time>
      </trkpt>
      <trkpt lat="48.61256" lon="2.01511">
        <ele>122.522</ele>
        <time>2017-10-22T08:17:38.200Z</time>
      </trkpt>
      <trkpt lat="48.61247" lon="2.01505">
        <ele>123.229</ele>
        <time>2017-10-22T08:17:47.515Z</time>
      </trkpt>
      <trkpt lat="48.61238" lon="2.01498">
        <ele>123.548</ele>
        <time>2017-10-22T08:17:56.574Z</time>
      </trkpt>
      <trkpt lat="48.61228" lon="2.01492">
        <ele>123.575</ele>
        <time>2017-10-22T08:18:05.323Z</time>
      </trkpt>
      <trkpt lat="48.61219" lon="2.01485">
        <ele>123.423</ele>
        <time>2017-10-22T08:18:14.110Z</time>
      </trkpt>
      <trkpt lat="48.61211" lon="2.01478">
        <ele>123.12</ele>
        <time>2017-10-22T08:18:22.373Z</time>
      </trkpt>
      <trkpt lat="48.61203" lon="2.01471">
        <ele>122.712</ele>
        <time>2017-10-22T08:18:31.255Z</time>
      </trkpt>
      <trkpt lat="48.61195" lon="2.01465">
        <ele>122.323</ele>
        <time>2017-10-22T08:18:40.112Z</time>
      </trkpt>
      <trkpt lat="48.61185" lon="2.0146">
        <ele>121.981</ele>
        <time>2017-10-22T08:18:49.516Z</time>
      </trkpt>
      <trkpt lat="48.61176" lon="2.01455">
        <ele>121.651</ele>
        <time>2017-10-22T08:18:58.631Z</time>
      </trkpt>
      <trkpt lat="48.61167" lon="2.0145">
        <ele>121.335</ele>
        <time>2017-10-22T08:19:07.711Z</time>
      </trkpt>
      <trkpt lat="48.61158" lon="2.01445">
        <ele>120.983</ele>
        <time>2017-10-22T08:19:16.656Z</time>
      </trkpt>
      <trkpt lat="48.61148" lon="2.01441">
        <ele>120.583</ele>
        <time>2017-10-22T08:19:25.728Z</time>
      </trkpt>
      <trkpt lat="48.61139" lon="2.01436">
        <ele>120.249</ele>
        <time>2017-10-22T08:19:34.436Z</time>
      </trkpt>
      <trkpt lat="48.61129" lon="2.01432">
        <ele>120.075</ele>
        <time>2017-10-22T08:19:43.335Z</time>
      </trkpt>
      <trkpt lat="48.61121" lon="2.01427">
        <ele>120.043</ele>
        <time>2017-10-22T08:19:51.582Z</time>
      </trkpt>
      <trkpt lat="48.61113" lon="2.01421">
        <ele>120.034</ele>
        <time>2017-10-22T08:19:59.942Z</time>
      </trkpt>
      <trkpt lat="48.61105" lon="2.01414">
        <ele>119.964</ele>
        <time>2017-10-22T08:20:08.836Z</time>
      </trkpt>
      <trkpt lat="48.61097" lon="2.01406">
        <ele>119.899</ele>
        <time>2017-10-22T08:20:17.938Z</time>
      </trkpt>
      <trkpt lat="48.61088" lon="2.01399">
        <ele>119.912</ele>
        <time>2017-10-22T08:20:27.499Z</time>
      </trkpt>
      <trkpt lat="48.61079" lon="2.01392">
        <ele>119.946</ele>
        <time>2017-10-22T08:20:36.705Z</time>
      </trkpt>
      <trkpt lat="48.61071" lon="2.01386">
        <ele>119.839</ele>
        <time>2017-10-22T08:20:45.070Z</time>
      </trkpt>
      <trkpt lat="48.61062" lon="2.01379">
        <ele>119.533</ele>
        <time>2017-10-22T08:20:53.753Z</time>
      </trkpt>
      <trkpt lat="48.61054" lon="2.01371">
        <ele>119.184</ele>
        <time>2017-10-22T08:21:03.030Z</time>
      </trkpt>
      <trkpt lat="48.6104" lon="2.01358">
        <ele>118.974</ele>
        <time>2017-10-22T08:21:19.537Z</time>
      </trkpt>
      <trkpt lat="48.61031" lon="2.01351">
        <ele>118.933</ele>
        <time>2017-10-22T08:21:32.001Z</time>
      </trkpt>
      <trkpt lat="48.61023" lon="2.01342">
        <ele>119.047</ele>
        <time>2017-10-22T08:21:43.965Z</time>
      </trkpt>
      <trkpt lat="48.61014" lon="2.01334">
        <ele>119.265</ele>
        <time>2017-10-22T08:21:55.026Z</time>
      </trkpt>
      <trkpt lat="48.61007" lon="2.01325">
        <ele>119.263</ele>
        <time>2017-10-22T08:22:06.369Z</time>
      </trkpt>
      <trkpt lat="48.61" lon="2.01316">
        <ele>118.786</ele>
        <time>2017-10-22T08:22:17.489Z</time>
      </trkpt>
      <trkpt lat="48.60994" lon="2.01305">
        <ele>118.113</ele>
        <time>2017-10-22T08:22:27.147Z</time>
      </trkpt>
      <trkpt lat="48.60987" lon="2.01294">
        <ele>117.64</ele>
        <time>2017-10-22T08:22:37.614Z</time>
      </trkpt>
      <trkpt lat="48.60979" lon="2.01286">
        <ele>117.452</ele>
        <time>2017-10-22T08:22:49.884Z</time>
      </trkpt>
      <trkpt lat="48.6097" lon="2.01279">
        <ele>117.454</ele>
        <time>2017-10-22T08:23:07.562Z</time>
      </trkpt>
      <trkpt lat="48.60962" lon="2.01274">
        <ele>117.513</ele>
        <time>2017-10-22T08:23:50.942Z</time>
      </trkpt>
      <trkpt lat="48.60953" lon="2.01268">
        <ele>118.058</ele>
        <time>2017-10-22T08:24:12.788Z</time>
      </trkpt>
      <trkpt lat="48.60943" lon="2.01263">
        <ele>119.855</ele>
        <time>2017-10-22T08:24:33.460Z</time>
      </trkpt>
      <trkpt lat="48.60935" lon="2.01256">
        <ele>122.445</ele>
        <time>2017-10-22T08:24:51.494Z</time>
      </trkpt>
      <trkpt lat="48.60927" lon="2.01249">
        <ele>124.368</ele>
        <time>2017-10-22T08:25:10.460Z</time>
      </trkpt>
      <trkpt lat="48.60918" lon="2.01243">
        <ele>125.029</ele>
        <time>2017-10-22T08:25:29.589Z</time>
      </trkpt>
      <trkpt lat="48.60909" lon="2.01239">
        <ele>124.801</ele>
        <time>2017-10-22T08:25:48.448Z</time>
      </trkpt>
      <trkpt lat="48.60903" lon="2.01228">
        <ele>124.225</ele>
        <time>2017-10-22T08:26:07.594Z</time>
      </trkpt>
      <trkpt lat="48.60894" lon="2.01223">
        <ele>123.731</ele>
        <time>2017-10-22T08:26:25.987Z</time>
      </trkpt>
      <trkpt lat="48.60886" lon="2.01215">
        <ele>123.317</ele>
        <time>2017-10-22T08:26:37.463Z</time>
      </trkpt>
      <trkpt lat="48.60878" lon="2.01208">
        <ele>122.721</ele>
        <time>2017-10-22T08:26:45.999Z</time>
      </trkpt>
      <trkpt lat="48.60878" lon="2.01208">
        <ele>122.027</ele>
        <time>2017-10-22T08:26:52.999Z</time>
      </trkpt>
      <trkpt lat="48.60878" lon="2.01208">
        <ele>121.613</ele>
        <time>2017-10-22T08:26:56.010Z</time>
      </trkpt>
      <trkpt lat="48.60863" lon="2.01202">
        <ele>121.592</ele>
        <time>2017-10-22T08:27:19.313Z</time>
      </trkpt>
      <trkpt lat="48.60854" lon="2.01196">
        <ele>121.47</ele>
        <time>2017-10-22T08:27:29.537Z</time>
      </trkpt>
      <trkpt lat="48.60846" lon="2.01191">
        <ele>120.797</ele>
        <time>2017-10-22T08:27:36.853Z</time>
      </trkpt>
      <trkpt lat="48.60837" lon="2.01183">
        <ele>119.872</ele>
        <time>2017-10-22T08:27:45.254Z</time>
      </trkpt>
      <trkpt lat="48.60828" lon="2.01176">
        <ele>119.098</ele>
        <time>2017-10-22T08:27:53.967Z</time>
      </trkpt>
      <trkpt lat="48.6082" lon="2.01169">
        <ele>118.412</ele>
        <time>2017-10-22T08:28:03.584Z</time>
      </trkpt>
      <trkpt lat="48.6081" lon="2.01165">
        <ele>117.755</ele>
        <time>2017-10-22T08:28:13.580Z</time>
      </trkpt>
      <trkpt lat="48.60801" lon="2.01162">
        <ele>117.251</ele>
        <time>2017-10-22T08:28:21.753Z</time>
      </trkpt>
      <trkpt lat="48.6079" lon="2.01159">
        <ele>117.025</ele>
        <time>2017-10-22T08:28:30.616Z</time>
      </trkpt>
      <trkpt lat="48.60782" lon="2.01154">
        <ele>117.046</ele>
        <time>2017-10-22T08:28:37.452Z</time>
      </trkpt>
      <trkpt lat="48.60772" lon="2.01148">
        <ele>117.124</ele>
        <time>2017-10-22T08:28:44.657Z</time>
      </trkpt>
      <trkpt lat="48.60763" lon="2.01144">
        <ele>117.06</ele>
        <time>2017-10-22T08:28:51.462Z</time>
      </trkpt>
      <trkpt lat="48.60752" lon="2.01143">
        <ele>116.838</ele>
        <time>2017-10-22T08:28:59.008Z</time>
      </trkpt>
      <trkpt lat="48.60743" lon="2.01141">
        <ele>116.606</ele>
        <time>2017-10-22T08:29:06.027Z</time>
      </trkpt>
      <trkpt lat="48.60733" lon="2.01139">
        <ele>116.482</ele>
        <time>2017-10-22T08:29:13.868Z</time>
      </trkpt>
      <trkpt lat="48.60724" lon="2.01136">
        <ele>116.473</ele>
        <time>2017-10-22T08:29:21.346Z</time>
      </trkpt>
      <trkpt lat="48.60715" lon="2.01132">
        <ele>116.545</ele>
        <time>2017-10-22T08:29:29.127Z</time>
      </trkpt>
      <trkpt lat="48.60706" lon="2.01129">
        <ele>116.678</ele>
        <time>2017-10-22T08:29:37.402Z</time>
      </trkpt>
      <trkpt lat="48.60697" lon="2.01127">
        <ele>116.837</ele>
        <time>2017-10-22T08:29:44.958Z</time>
      </trkpt>
      <trkpt lat="48.60687" lon="2.01124">
        <ele>116.892</ele>
        <time>2017-10-22T08:29:53.541Z</time>
      </trkpt>
      <trkpt lat="48.60677" lon="2.01121">
        <ele>116.736</ele>
        <time>2017-10-22T08:30:01.818Z</time>
      </trkpt>
      <trkpt lat="48.60669" lon="2.01117">
        <ele>116.46</ele>
        <time>2017-10-22T08:30:09.662Z</time>
      </trkpt>
      <trkpt lat="48.6066" lon="2.01113">
        <ele>116.237</ele>
        <time>2017-10-22T08:30:16.989Z</time>
      </trkpt>
      <trkpt lat="48.60651" lon="2.01111">
        <ele>116.207</ele>
        <time>2017-10-22T08:30:23.910Z</time>
      </trkpt>
      <trkpt lat="48.60641" lon="2.01107">
        <ele>116.378</ele>
        <time>2017-10-22T08:30:31.792Z</time>
      </trkpt>
      <trkpt lat="48.60632" lon="2.01104">
        <ele>116.547</ele>
        <time>2017-10-22T08:30:39.023Z</time>
      </trkpt>
      <trkpt lat="48.60623" lon="2.01098">
        <ele>116.465</ele>
        <time>2017-10-22T08:30:47.015Z</time>
      </trkpt>
      <trkpt lat="48.60614" lon="2.01092">
        <ele>116.152</ele>
        <time>2017-10-22T08:30:54.733Z</time>
      </trkpt>
      <trkpt lat="48.60605" lon="2.01087">
        <ele>115.872</ele>
        <time>2017-10-22T08:31:02.862Z</time>
      </trkpt>
      <trkpt lat="48.60597" lon="2.0108">
        <ele>115.79</ele>
        <time>2017-10-22T08:31:10.121Z</time>
      </trkpt>
      <trkpt lat="48.60588" lon="2.01074">
        <ele>115.779</ele>
        <time>2017-10-22T08:31:17.844Z</time>
      </trkpt>
      <trkpt lat="48.60579" lon="2.01069">
        <ele>115.703</ele>
        <time>2017-10-22T08:31:25.523Z</time>
      </trkpt>
      <trkpt lat="48.60569" lon="2.01064">
        <ele>115.59</ele>
        <time>2017-10-22T08:31:33.377Z</time>
      </trkpt>
      <trkpt lat="48.6056" lon="2.01058">
        <ele>115.509</ele>
        <time>2017-10-22T08:31:41.326Z</time>
      </trkpt>
      <trkpt lat="48.60551" lon="2.01052">
        <ele>115.471</ele>
        <time>2017-10-22T08:31:49.371Z</time>
      </trkpt>
      <trkpt lat="48.60541" lon="2.01047">
        <ele>115.437</ele>
        <time>2017-10-22T08:31:57.397Z</time>
      </trkpt>
      <trkpt lat="48.60532" lon="2.01041">
        <ele>115.372</ele>
        <time>2017-10-22T08:32:05.210Z</time>
      </trkpt>
      <trkpt lat="48.60524" lon="2.01034">
        <ele>115.298</ele>
        <time>2017-10-22T08:32:12.511Z</time>
      </trkpt>
      <trkpt lat="48.60514" lon="2.01028">
        <ele>115.204</ele>
        <time>2017-10-22T08:32:20.000Z</time>
      </trkpt>
      <trkpt lat="48.60514" lon="2.01028">
        <ele>115.061</ele>
        <time>2017-10-22T08:32:30.000Z</time>
      </trkpt>
      <trkpt lat="48.60514" lon="2.01028">
        <ele>114.938</ele>
        <time>2017-10-22T08:32:36.210Z</time>
      </trkpt>
      <trkpt lat="48.60512" lon="2.01009">
        <ele>114.914</ele>
        <time>2017-10-22T08:32:49.000Z</time>
      </trkpt>
      <trkpt lat="48.60512" lon="2.01009">
        <ele>114.951</ele>
        <time>2017-10-22T08:32:51.000Z</time>
      </trkpt>
      <trkpt lat="48.60512" lon="2.01009">
        <ele>114.954</ele>
        <time>2017-10-22T08:32:52.650Z</time>
      </trkpt>
      <trkpt lat="48.60518" lon="2.00997">
        <ele>114.898</ele>
        <time>2017-10-22T08:33:09.140Z</time>
      </trkpt>
      <trkpt lat="48.60523" lon="2.00985">
        <ele>115.093</ele>
        <time>2017-10-22T08:33:18.297Z</time>
      </trkpt>
      <trkpt lat="48.60529" lon="2.00973">
        <ele>115.818</ele>
        <time>2017-10-22T08:33:26.965Z</time>
      </trkpt>
      <trkpt lat="48.60535" lon="2.00963">
        <ele>116.832</ele>
        <time>2017-10-22T08:33:34.954Z</time>
      </trkpt>
      <trkpt lat="48.6054" lon="2.00949">
        <ele>117.67</ele>
        <time>2017-10-22T08:33:44.110Z</time>
      </trkpt>
      <trkpt lat="48.60547" lon="2.00939">
        <ele>118.196</ele>
        <time>2017-10-22T08:33:53.023Z</time>
      </trkpt>
      <trkpt lat="48.60556" lon="2.00933">
        <ele>118.559</ele>
        <time>2017-10-22T08:34:02.425Z</time>
      </trkpt>
      <trkpt lat="48.60565" lon="2.00926">
        <ele>119.032</ele>
        <time>2017-10-22T08:34:12.998Z</time>
      </trkpt>
      <trkpt lat="48.60573" lon="2.00916">
        <ele>119.851</ele>
        <time>2017-10-22T08:34:21.150Z</time>
      </trkpt>
      <trkpt lat="48.60578" lon="2.00905">
        <ele>120.897</ele>
        <time>2017-10-22T08:34:29.217Z</time>
      </trkpt>
      <trkpt lat="48.60582" lon="2.00893">
        <ele>121.747</ele>
        <time>2017-10-22T08:34:38.310Z</time>
      </trkpt>
      <trkpt lat="48.6059" lon="2.00885">
        <ele>122.254</ele>
        <time>2017-10-22T08:34:47.999Z</time>
      </trkpt>
      <trkpt lat="48.60598" lon="2.00877">
        <ele>122.536</ele>
        <time>2017-10-22T08:34:56.276Z</time>
      </trkpt>
      <trkpt lat="48.60606" lon="2.00871">
        <ele>122.719</ele>
        <time>2017-10-22T08:35:04.955Z</time>
      </trkpt>
      <trkpt lat="48.60613" lon="2.00861">
        <ele>122.953</ele>
        <time>2017-10-22T08:35:13.854Z</time>
      </trkpt>
      <trkpt lat="48.6062" lon="2.00851">
        <ele>123.27</ele>
        <time>2017-10-22T08:35:22.754Z</time>
      </trkpt>
      <trkpt lat="48.60626" lon="2.0084">
        <ele>123.582</ele>
        <time>2017-10-22T08:35:30.247Z</time>
      </trkpt>
      <trkpt lat="48.60631" lon="2.00828">
        <ele>123.955</ele>
        <time>2017-10-22T08:35:37.902Z</time>
      </trkpt>
      <trkpt lat="48.60638" lon="2.00819">
        <ele>124.461</ele>
        <time>2017-10-22T08:35:46.153Z</time>
      </trkpt>
      <trkpt lat="48.60645" lon="2.00811">
        <ele>124.947</ele>
        <time>2017-10-22T08:35:54.696Z</time>
      </trkpt>
      <trkpt lat="48.60653" lon="2.00801">
        <ele>125.281</ele>
        <time>2017-10-22T08:36:03.902Z</time>
      </trkpt>
      <trkpt lat="48.60662" lon="2.00796">
        <ele>125.547</ele>
        <time>2017-10-22T08:36:12.993Z</time>
      </trkpt>
      <trkpt lat="48.60667" lon="2.00784">
        <ele>126.036</ele>
        <time>2017-10-22T08:36:22.248Z</time>
      </trkpt>
      <trkpt lat="48.60673" lon="2.00772">
        <ele>127.006</ele>
        <time>2017-10-22T08:36:32.194Z</time>
      </trkpt>
      <trkpt lat="48.60681" lon="2.00765">
        <ele>128.317</ele>
        <time>2017-10-22T08:36:41.116Z</time>
      </trkpt>
      <trkpt lat="48.60688" lon="2.00757">
        <ele>129.66</ele>
        <time>2017-10-22T08:36:49.483Z</time>
      </trkpt>
      <trkpt lat="48.60698" lon="2.00754">
        <ele>131.077</ele>
        <time>2017-10-22T08:36:59.463Z</time>
      </trkpt>
      <trkpt lat="48.60706" lon="2.00744">
        <ele>132.727</ele>
        <time>2017-10-22T08:37:08.681Z</time>
      </trkpt>
      <trkpt lat="48.6071" lon="2.00731">
        <ele>134.441</ele>
        <time>2017-10-22T08:37:15.785Z</time>
      </trkpt>
      <trkpt lat="48.60717" lon="2.00722">
        <ele>135.872</ele>
        <time>2017-10-22T08:37:23.397Z</time>
      </trkpt>
      <trkpt lat="48.60726" lon="2.00716">
        <ele>136.926</ele>
        <time>2017-10-22T08:37:34.142Z</time>
      </trkpt>
      <trkpt lat="48.60732" lon="2.00706">
        <ele>137.822</ele>
        <time>2017-10-22T08:37:44.815Z</time>
      </trkpt>
      <trkpt lat="48.6074" lon="2.00696">
        <ele>138.811</ele>
        <time>2017-10-22T08:37:56.851Z</time>
      </trkpt>
      <trkpt lat="48.60746" lon="2.00685">
        <ele>140.044</ele>
        <time>2017-10-22T08:38:07.790Z</time>
      </trkpt>
      <trkpt lat="48.60748" lon="2.00671">
        <ele>141.367</ele>
        <time>2017-10-22T08:38:17.000Z</time>
      </trkpt>
      <trkpt lat="48.60748" lon="2.00671">
        <ele>142.31</ele>
        <time>2017-10-22T08:38:26.000Z</time>
      </trkpt>
      <trkpt lat="48.60748" lon="2.00671">
        <ele>142.616</ele>
        <time>2017-10-22T08:39:29.013Z</time>
      </trkpt>
      <trkpt lat="48.6076" lon="2.00649">
        <ele>142.482</ele>
        <time>2017-10-22T08:41:28.963Z</time>
      </trkpt>
      <trkpt lat="48.60767" lon="2.0064">
        <ele>142.237</ele>
        <time>2017-10-22T08:41:38.077Z</time>
      </trkpt>
      <trkpt lat="48.60773" lon="2.0063">
        <ele>142.305</ele>
        <time>2017-10-22T08:41:46.933Z</time>
      </trkpt>
      <trkpt lat="48.60776" lon="2.00615">
        <ele>142.816</ele>
        <time>2017-10-22T08:41:56.518Z</time>
      </trkpt>
      <trkpt lat="48.60777" lon="2.00602">
        <ele>142.3</ele>
        <time>2017-10-22T08:42:06.718Z</time>
      </trkpt>
      <trkpt lat="48.60781" lon="2.00589">
        <ele>139.761</ele>
        <time>2017-10-22T08:42:17.609Z</time>
      </trkpt>
      <trkpt lat="48.60781" lon="2.00574">
        <ele>138.326</ele>
        <time>2017-10-22T08:42:28.723Z</time>
      </trkpt>
      <trkpt lat="48.60777" lon="2.00562">
        <ele>140.578</ele>
        <time>2017-10-22T08:42:37.655Z</time>
      </trkpt>
      <trkpt lat="48.60778" lon="2.00547">
        <ele>142.864</ele>
        <time>2017-10-22T08:42:47.238Z</time>
      </trkpt>
      <trkpt lat="48.60779" lon="2.00532">
        <ele>141.633</ele>
        <time>2017-10-22T08:42:55.666Z</time>
      </trkpt>
      <trkpt lat="48.60779" lon="2.00518">
        <ele>138.76</ele>
        <time>2017-10-22T08:43:02.265Z</time>
      </trkpt>
      <trkpt lat="48.60779" lon="2.00505">
        <ele>137.09</ele>
        <time>2017-10-22T08:43:08.653Z</time>
      </trkpt>
      <trkpt lat="48.60779" lon="2.0049">
        <ele>138.747</ele>
        <time>2017-10-22T08:43:16.000Z</time>
      </trkpt>
      <trkpt lat="48.60779" lon="2.0049">
        <ele>143.912</ele>
        <time>2017-10-22T08:43:22.000Z</time>
      </trkpt>
      <trkpt lat="48.60779" lon="2.0049">
        <ele>148.102</ele>
        <time>2017-10-22T08:43:22.100Z</time>
      </trkpt>
      <trkpt lat="48.60787" lon="2.00461">
        <ele>147.958</ele>
        <time>2017-10-22T08:43:51.689Z</time>
      </trkpt>
      <trkpt lat="48.60786" lon="2.00447">
        <ele>146.922</ele>
        <time>2017-10-22T08:43:59.409Z</time>
      </trkpt>
      <trkpt lat="48.6079" lon="2.00434">
        <ele>148.57</ele>
        <time>2017-10-22T08:44:07.660Z</time>
      </trkpt>
      <trkpt lat="48.60799" lon="2.00431">
        <ele>151.49</ele>
        <time>2017-10-22T08:44:16.412Z</time>
      </trkpt>
      <trkpt lat="48.60807" lon="2.00424">
        <ele>153.289</ele>
        <time>2017-10-22T08:44:23.931Z</time>
      </trkpt>
      <trkpt lat="48.60815" lon="2.00414">
        <ele>153.799</ele>
        <time>2017-10-22T08:44:33.380Z</time>
      </trkpt>
      <trkpt lat="48.60825" lon="2.00411">
        <ele>153.706</ele>
        <time>2017-10-22T08:44:43.136Z</time>
      </trkpt>
      <trkpt lat="48.60833" lon="2.00405">
        <ele>153.555</ele>
        <time>2017-10-22T08:44:50.711Z</time>
      </trkpt>
      <trkpt lat="48.60842" lon="2.00403">
        <ele>153.468</ele>
        <time>2017-10-22T08:44:58.503Z</time>
      </trkpt>
      <trkpt lat="48.60851" lon="2.00406">
        <ele>153.363</ele>
        <time>2017-10-22T08:45:05.935Z</time>
      </trkpt>
      <trkpt lat="48.60859" lon="2.00415">
        <ele>153.208</ele>
        <time>2017-10-22T08:45:13.699Z</time>
      </trkpt>
      <trkpt lat="48.60868" lon="2.00422">
        <ele>153.042</ele>
        <time>2017-10-22T08:45:21.489Z</time>
      </trkpt>
      <trkpt lat="48.60877" lon="2.00418">
        <ele>152.921</ele>
        <time>2017-10-22T08:45:30.000Z</time>
      </trkpt>
      <trkpt lat="48.60877" lon="2.00418">
        <ele>152.859</ele>
        <time>2017-10-22T08:45:33.000Z</time>
      </trkpt>
      <trkpt lat="48.60877" lon="2.00418">
        <ele>152.83</ele>
        <time>2017-10-22T08:45:33.979Z</time>
      </trkpt>
      <trkpt lat="48.60888" lon="2.00417">
        <ele>152.727</ele>
        <time>2017-10-22T08:45:47.544Z</time>
      </trkpt>
      <trkpt lat="48.60898" lon="2.00413">
        <ele>152.687</ele>
        <time>2017-10-22T08:45:54.958Z</time>
      </trkpt>
      <trkpt lat="48.60908" lon="2.00412">
        <ele>152.743</ele>
        <time>2017-10-22T08:46:03.000Z</time>
      </trkpt>
      <trkpt lat="48.60908" lon="2.00412">
        <ele>152.924</ele>
        <time>2017-10-22T08:46:06.000Z</time>
      </trkpt>
      <trkpt lat="48.60908" lon="2.00412">
        <ele>153.054</ele>
        <time>2017-10-22T08:46:09.404Z</time>
      </trkpt>
      <trkpt lat="48.60919" lon="2.00405">
        <ele>152.841</ele>
        <time>2017-10-22T08:46:27.408Z</time>
      </trkpt>
      <trkpt lat="48.60928" lon="2.00402">
        <ele>152.813</ele>
        <time>2017-10-22T08:46:35.535Z</time>
      </trkpt>
      <trkpt lat="48.60938" lon="2.004">
        <ele>152.969</ele>
        <time>2017-10-22T08:46:44.661Z</time>
      </trkpt>
      <trkpt lat="48.60947" lon="2.00394">
        <ele>153.253</ele>
        <time>2017-10-22T08:46:52.900Z</time>
      </trkpt>
      <trkpt lat="48.60956" lon="2.00387">
        <ele>153.552</ele>
        <time>2017-10-22T08:47:01.140Z</time>
      </trkpt>
      <trkpt lat="48.60965" lon="2.00383">
        <ele>153.721</ele>
        <time>2017-10-22T08:47:07.827Z</time>
      </trkpt>
      <trkpt lat="48.60975" lon="2.0038">
        <ele>153.648</ele>
        <time>2017-10-22T08:47:14.053Z</time>
      </trkpt>
      <trkpt lat="48.60984" lon="2.00377">
        <ele>153.418</ele>
        <time>2017-10-22T08:47:22.103Z</time>
      </trkpt>
      <trkpt lat="48.60993" lon="2.00374">
        <ele>153.247</ele>
        <time>2017-10-22T08:47:31.427Z</time>
      </trkpt>
      <trkpt lat="48.61003" lon="2.00368">
        <ele>153.237</ele>
        <time>2017-10-22T08:47:41.554Z</time>
      </trkpt>
      <trkpt lat="48.61011" lon="2.0036">
        <ele>153.307</ele>
        <time>2017-10-22T08:47:49.863Z</time>
      </trkpt>
      <trkpt lat="48.61019" lon="2.00353">
        <ele>153.354</ele>
        <time>2017-10-22T08:47:57.752Z</time>
      </trkpt>
      <trkpt lat="48.61028" lon="2.00351">
        <ele>153.381</ele>
        <time>2017-10-22T08:48:06.047Z</time>
      </trkpt>
      <trkpt lat="48.61037" lon="2.00345">
        <ele>153.406</ele>
        <time>2017-10-22T08:48:15.050Z</time>
      </trkpt>
      <trkpt lat="48.61044" lon="2.00333">
        <ele>153.414</ele>
        <time>2017-10-22T08:48:24.976Z</time>
      </trkpt>
      <trkpt lat="48.61052" lon="2.00329">
        <ele>153.4</ele>
        <time>2017-10-22T08:48:32.860Z</time>
      </trkpt>
      <trkpt lat="48.61061" lon="2.00328">
        <ele>153.335</ele>
        <time>2017-10-22T08:48:41.278Z</time>
      </trkpt>
      <trkpt lat="48.61071" lon="2.00322">
        <ele>153.199</ele>
        <time>2017-10-22T08:48:50.811Z</time>
      </trkpt>
      <trkpt lat="48.61078" lon="2.00315">
        <ele>153.077</ele>
        <time>2017-10-22T08:48:58.256Z</time>
      </trkpt>
      <trkpt lat="48.61087" lon="2.00309">
        <ele>153.027</ele>
        <time>2017-10-22T08:49:04.616Z</time>
      </trkpt>
      <trkpt lat="48.61096" lon="2.00304">
        <ele>152.939</ele>
        <time>2017-10-22T08:49:12.587Z</time>
      </trkpt>
      <trkpt lat="48.61106" lon="2.00297">
        <ele>152.718</ele>
        <time>2017-10-22T08:49:21.916Z</time>
      </trkpt>
      <trkpt lat="48.61115" lon="2.00296">
        <ele>152.459</ele>
        <time>2017-10-22T08:49:29.678Z</time>
      </trkpt>
      <trkpt lat="48.61125" lon="2.00294">
        <ele>152.281</ele>
        <time>2017-10-22T08:49:36.661Z</time>
      </trkpt>
      <trkpt lat="48.61135" lon="2.00295">
        <ele>152.194</ele>
        <time>2017-10-22T08:49:44.826Z</time>
      </trkpt>
      <trkpt lat="48.61143" lon="2.00289">
        <ele>152.127</ele>
        <time>2017-10-22T08:49:52.513Z</time>
      </trkpt>
      <trkpt lat="48.61151" lon="2.0028">
        <ele>152.011</ele>
        <time>2017-10-22T08:49:59.814Z</time>
      </trkpt>
      <trkpt lat="48.61158" lon="2.00271">
        <ele>151.886</ele>
        <time>2017-10-22T08:50:06.283Z</time>
      </trkpt>
      <trkpt lat="48.61167" lon="2.00265">
        <ele>151.832</ele>
        <time>2017-10-22T08:50:14.041Z</time>
      </trkpt>
      <trkpt lat="48.61174" lon="2.00257">
        <ele>151.846</ele>
        <time>2017-10-22T08:50:22.013Z</time>
      </trkpt>
      <trkpt lat="48.61184" lon="2.00251">
        <ele>151.87</ele>
        <time>2017-10-22T08:50:29.487Z</time>
      </trkpt>
      <trkpt lat="48.61193" lon="2.00249">
        <ele>151.749</ele>
        <time>2017-10-22T08:50:36.007Z</time>
      </trkpt>
      <trkpt lat="48.61199" lon="2.00239">
        <ele>151.394</ele>
        <time>2017-10-22T08:50:42.540Z</time>
      </trkpt>
      <trkpt lat="48.61206" lon="2.00228">
        <ele>150.853</ele>
        <time>2017-10-22T08:50:50.771Z</time>
      </trkpt>
      <trkpt lat="48.61215" lon="2.00223">
        <ele>150.163</ele>
        <time>2017-10-22T08:50:58.103Z</time>
      </trkpt>
      <trkpt lat="48.61223" lon="2.00217">
        <ele>149.341</ele>
        <time>2017-10-22T08:51:05.595Z</time>
      </trkpt>
      <trkpt lat="48.61229" lon="2.00205">
        <ele>148.442</ele>
        <time>2017-10-22T08:51:15.695Z</time>
      </trkpt>
      <trkpt lat="48.61239" lon="2.00203">
        <ele>147.44</ele>
        <time>2017-10-22T08:51:25.281Z</time>
      </trkpt>
      <trkpt lat="48.61248" lon="2.00206">
        <ele>146.332</ele>
        <time>2017-10-22T08:51:31.591Z</time>
      </trkpt>
      <trkpt lat="48.61257" lon="2.00212">
        <ele>145.231</ele>
        <time>2017-10-22T08:51:38.569Z</time>
      </trkpt>
      <trkpt lat="48.61264" lon="2.00221">
        <ele>144.218</ele>
        <time>2017-10-22T08:51:46.140Z</time>
      </trkpt>
      <trkpt lat="48.61269" lon="2.00232">
        <ele>143.259</ele>
        <time>2017-10-22T08:51:53.895Z</time>
      </trkpt>
      <trkpt lat="48.61278" lon="2.00234">
        <ele>142.271</ele>
        <time>2017-10-22T08:52:01.989Z</time>
      </trkpt>
      <trkpt lat="48.61287" lon="2.00239">
        <ele>141.199</ele>
        <time>2017-10-22T08:52:09.446Z</time>
      </trkpt>
      <trkpt lat="48.61296" lon="2.00243">
        <ele>140.049</ele>
        <time>2017-10-22T08:52:17.651Z</time>
      </trkpt>
      <trkpt lat="48.61306" lon="2.00243">
        <ele>138.711</ele>
        <time>2017-10-22T08:52:28.242Z</time>
      </trkpt>
      <trkpt lat="48.61316" lon="2.0024">
        <ele>136.997</ele>
        <time>2017-10-22T08:52:38.192Z</time>
      </trkpt>
      <trkpt lat="48.61324" lon="2.00232">
        <ele>135.088</ele>
        <time>2017-10-22T08:52:45.163Z</time>
      </trkpt>
      <trkpt lat="48.61333" lon="2.00226">
        <ele>133.46</ele>
        <time>2017-10-22T08:52:52.462Z</time>
      </trkpt>
      <trkpt lat="48.6134" lon="2.00217">
        <ele>132.18</ele>
        <time>2017-10-22T08:53:00.297Z</time>
      </trkpt>
      <trkpt lat="48.61344" lon="2.00204">
        <ele>130.929</ele>
        <time>2017-10-22T08:53:09.659Z</time>
      </trkpt>
      <trkpt lat="48.61352" lon="2.00196">
        <ele>129.561</ele>
        <time>2017-10-22T08:53:20.885Z</time>
      </trkpt>
      <trkpt lat="48.61358" lon="2.00184">
        <ele>128.287</ele>
        <time>2017-10-22T08:53:32.695Z</time>
      </trkpt>
      <trkpt lat="48.61364" lon="2.00175">
        <ele>127.278</ele>
        <time>2017-10-22T08:53:41.749Z</time>
      </trkpt>
      <trkpt lat="48.61373" lon="2.00168">
        <ele>126.438</ele>
        <time>2017-10-22T08:53:48.734Z</time>
      </trkpt>
      <trkpt lat="48.61382" lon="2.00165">
        <ele>125.739</ele>
        <time>2017-10-22T08:53:54.000Z</time>
      </trkpt>
      <trkpt lat="48.61382" lon="2.00165">
        <ele>125.382</ele>
        <time>2017-10-22T08:53:54.000Z</time>
      </trkpt>
      <trkpt lat="48.61382" lon="2.00165">
        <ele>125.365</ele>
        <time>2017-10-22T08:53:59.608Z</time>
      </trkpt>
      <trkpt lat="48.61379" lon="2.00148">
        <ele>125.433</ele>
        <time>2017-10-22T08:54:19.522Z</time>
      </trkpt>
      <trkpt lat="48.61377" lon="2.00134">
        <ele>125.371</ele>
        <time>2017-10-22T08:54:30.851Z</time>
      </trkpt>
      <trkpt lat="48.61375" lon="2.0012">
        <ele>125.184</ele>
        <time>2017-10-22T08:54:41.181Z</time>
      </trkpt>
      <trkpt lat="48.61372" lon="2.00106">
        <ele>124.94</ele>
        <time>2017-10-22T08:54:51.897Z</time>
      </trkpt>
      <trkpt lat="48.61369" lon="2.00093">
        <ele>124.686</ele>
        <time>2017-10-22T08:55:01.540Z</time>
      </trkpt>
      <trkpt lat="48.61366" lon="2.0008">
        <ele>124.502</ele>
        <time>2017-10-22T08:55:09.348Z</time>
      </trkpt>
      <trkpt lat="48.61363" lon="2.00066">
        <ele>124.425</ele>
        <time>2017-10-22T08:55:17.252Z</time>
      </trkpt>
      <trkpt lat="48.61359" lon="2.00052">
        <ele>124.411</ele>
        <time>2017-10-22T08:55:25.854Z</time>
      </trkpt>
      <trkpt lat="48.6135" lon="2.00046">
        <ele>124.426</ele>
        <time>2017-10-22T08:55:34.886Z</time>
      </trkpt>
      <trkpt lat="48.61341" lon="2.00041">
        <ele>124.535</ele>
        <time>2017-10-22T08:55:43.489Z</time>
      </trkpt>
      <trkpt lat="48.61334" lon="2.00031">
        <ele>124.892</ele>
        <time>2017-10-22T08:55:53.062Z</time>
      </trkpt>
      <trkpt lat="48.61325" lon="2.00024">
        <ele>125.511</ele>
        <time>2017-10-22T08:56:02.194Z</time>
      </trkpt>
      <trkpt lat="48.61317" lon="2.00018">
        <ele>126.229</ele>
        <time>2017-10-22T08:56:10.762Z</time>
      </trkpt>
      <trkpt lat="48.61309" lon="2.0001">
        <ele>126.846</ele>
        <time>2017-10-22T08:56:19.786Z</time>
      </trkpt>
      <trkpt lat="48.61302" lon="2">
        <ele>127.071</ele>
        <time>2017-10-22T08:56:28.579Z</time>
      </trkpt>
      <trkpt lat="48.61294" lon="1.99991">
        <ele>126.698</ele>
        <time>2017-10-22T08:56:36.753Z</time>
      </trkpt>
      <trkpt lat="48.61285" lon="1.99986">
        <ele>125.935</ele>
        <time>2017-10-22T08:56:44.561Z</time>
      </trkpt>
      <trkpt lat="48.61278" lon="1.99976">
        <ele>125.169</ele>
        <time>2017-10-22T08:56:52.431Z</time>
      </trkpt>
      <trkpt lat="48.6127" lon="1.99968">
        <ele>124.521</ele>
        <time>2017-10-22T08:57:01.159Z</time>
      </trkpt>
      <trkpt lat="48.61262" lon="1.9996">
        <ele>123.823</ele>
        <time>2017-10-22T08:57:09.962Z</time>
      </trkpt>
      <trkpt lat="48.61254" lon="1.99951">
        <ele>122.933</ele>
        <time>2017-10-22T08:57:19.624Z</time>
      </trkpt>
      <trkpt lat="48.61246" lon="1.99943">
        <ele>121.85</ele>
        <time>2017-10-22T08:57:29.450Z</time>
      </trkpt>
      <trkpt lat="48.61237" lon="1.99936">
        <ele>120.619</ele>
        <time>2017-10-22T08:57:40.215Z</time>
      </trkpt>
      <trkpt lat="48.61229" lon="1.99927">
        <ele>119.41</ele>
        <time>2017-10-22T08:57:49.859Z</time>
      </trkpt>
      <trkpt lat="48.61223" lon="1.99916">
        <ele>118.378</ele>
        <time>2017-10-22T08:57:59.068Z</time>
      </trkpt>
      <trkpt lat="48.61214" lon="1.9991">
        <ele>117.584</ele>
        <time>2017-10-22T08:58:07.024Z</time>
      </trkpt>
      <trkpt lat="48.61205" lon="1.99904">
        <ele>117.072</ele>
        <time>2017-10-22T08:58:15.297Z</time>
      </trkpt>
      <trkpt lat="48.61196" lon="1.999">
        <ele>116.762</ele>
        <time>2017-10-22T08:58:22.351Z</time>
      </trkpt>
      <trkpt lat="48.61186" lon="1.99898">
        <ele>116.517</ele>
        <time>2017-10-22T08:58:30.410Z</time>
      </trkpt>
      <trkpt lat="48.61176" lon="1.99895">
        <ele>116.362</ele>
        <time>2017-10-22T08:58:39.385Z</time>
      </trkpt>
      <trkpt lat="48.61168" lon="1.9989">
        <ele>116.327</ele>
        <time>2017-10-22T08:58:48.948Z</time>
      </trkpt>
      <trkpt lat="48.61159" lon="1.99886">
        <ele>116.422</ele>
        <time>2017-10-22T08:58:58.000Z</time>
      </trkpt>
      <trkpt lat="48.61159" lon="1.99886">
        <ele>116.616</ele>
        <time>2017-10-22T08:59:04.000Z</time>
      </trkpt>
      <trkpt lat="48.61159" lon="1.99886">
        <ele>116.745</ele>
        <time>2017-10-22T08:59:07.480Z</time>
      </trkpt>
      <trkpt lat="48.6115" lon="1.99879">
        <ele>116.692</ele>
        <time>2017-10-22T08:59:19.000Z</time>
      </trkpt>
      <trkpt lat="48.6115" lon="1.99879">
        <ele>116.575</ele>
        <time>2017-10-22T08:59:21.000Z</time>
      </trkpt>
      <trkpt lat="48.6115" lon="1.99879">
        <ele>116.522</ele>
        <time>2017-10-22T08:59:33.000Z</time>
      </trkpt>
      <trkpt lat="48.6115" lon="1.99879">
        <ele>116.51</ele>
        <time>2017-10-22T08:59:33.100Z</time>
      </trkpt>
      <trkpt lat="48.61135" lon="1.99874">
        <ele>116.486</ele>
        <time>2017-10-22T08:59:55.870Z</time>
      </trkpt>
      <trkpt lat="48.61125" lon="1.99873">
        <ele>117.035</ele>
        <time>2017-10-22T09:00:06.467Z</time>
      </trkpt>
      <trkpt lat="48.61116" lon="1.99867">
        <ele>118.632</ele>
        <time>2017-10-22T09:00:17.807Z</time>
      </trkpt>
      <trkpt lat="48.61108" lon="1.99866">
        <ele>120.577</ele>
        <time>2017-10-22T09:00:27.276Z</time>
      </trkpt>
      <trkpt lat="48.61098" lon="1.99862">
        <ele>122.072</ele>
        <time>2017-10-22T09:00:36.064Z</time>
      </trkpt>
      <trkpt lat="48.61089" lon="1.99863">
        <ele>123.044</ele>
        <time>2017-10-22T09:00:45.199Z</time>
      </trkpt>
      <trkpt lat="48.6108" lon="1.99857">
        <ele>123.501</ele>
        <time>2017-10-22T09:00:53.594Z</time>
      </trkpt>
      <trkpt lat="48.61072" lon="1.9985">
        <ele>123.549</ele>
        <time>2017-10-22T09:01:01.043Z</time>
      </trkpt>
      <trkpt lat="48.61064" lon="1.99843">
        <ele>123.3</ele>
        <time>2017-10-22T09:01:08.429Z</time>
      </trkpt>
      <trkpt lat="48.61055" lon="1.9984">
        <ele>122.727</ele>
        <time>2017-10-22T09:01:16.378Z</time>
      </trkpt>
      <trkpt lat="48.61045" lon="1.9984">
        <ele>121.96</ele>
        <time>2017-10-22T09:01:24.842Z</time>
      </trkpt>
      <trkpt lat="48.61037" lon="1.99834">
        <ele>121.144</ele>
        <time>2017-10-22T09:01:33.233Z</time>
      </trkpt>
      <trkpt lat="48.61028" lon="1.99827">
        <ele>120.205</ele>
        <time>2017-10-22T09:01:41.149Z</time>
      </trkpt>
      <trkpt lat="48.61019" lon="1.99824">
        <ele>119.26</ele>
        <time>2017-10-22T09:01:49.104Z</time>
      </trkpt>
      <trkpt lat="48.6101" lon="1.99827">
        <ele>118.682</ele>
        <time>2017-10-22T09:01:57.429Z</time>
      </trkpt>
      <trkpt lat="48.61001" lon="1.99824">
        <ele>118.544</ele>
        <time>2017-10-22T09:02:06.065Z</time>
      </trkpt>
      <trkpt lat="48.60991" lon="1.99824">
        <ele>118.621</ele>
        <time>2017-10-22T09:02:14.263Z</time>
      </trkpt>
      <trkpt lat="48.60982" lon="1.99828">
        <ele>118.799</ele>
        <time>2017-10-22T09:02:21.349Z</time>
      </trkpt>
      <trkpt lat="48.60974" lon="1.99835">
        <ele>119.114</ele>
        <time>2017-10-22T09:02:28.973Z</time>
      </trkpt>
      <trkpt lat="48.60966" lon="1.99841">
        <ele>119.548</ele>
        <time>2017-10-22T09:02:36.393Z</time>
      </trkpt>
      <trkpt lat="48.6096" lon="1.99851">
        <ele>120.081</ele>
        <time>2017-10-22T09:02:44.106Z</time>
      </trkpt>
      <trkpt lat="48.60953" lon="1.9986">
        <ele>120.687</ele>
        <time>2017-10-22T09:02:53.272Z</time>
      </trkpt>
      <trkpt lat="48.60943" lon="1.99859">
        <ele>121.251</ele>
        <time>2017-10-22T09:03:02.635Z</time>
      </trkpt>
      <trkpt lat="48.60933" lon="1.99855">
        <ele>121.655</ele>
        <time>2017-10-22T09:03:10.633Z</time>
      </trkpt>
      <trkpt lat="48.60924" lon="1.9985">
        <ele>121.818</ele>
        <time>2017-10-22T09:03:18.028Z</time>
      </trkpt>
      <trkpt lat="48.60915" lon="1.99842">
        <ele>121.692</ele>
        <time>2017-10-22T09:03:26.771Z</time>
      </trkpt>
      <trkpt lat="48.60907" lon="1.99837">
        <ele>121.275</ele>
        <time>2017-10-22T09:03:35.975Z</time>
      </trkpt>
      <trkpt lat="48.60898" lon="1.99831">
        <ele>120.519</ele>
        <time>2017-10-22T09:03:46.288Z</time>
      </trkpt>
      <trkpt lat="48.60889" lon="1.99827">
        <ele>119.443</ele>
        <time>2017-10-22T09:03:55.968Z</time>
      </trkpt>
      <trkpt lat="48.6088" lon="1.99822">
        <ele>118.392</ele>
        <time>2017-10-22T09:04:01.863Z</time>
      </trkpt>
      <trkpt lat="48.60871" lon="1.99816">
        <ele>117.802</ele>
        <time>2017-10-22T09:04:07.855Z</time>
      </trkpt>
      <trkpt lat="48.60861" lon="1.99811">
        <ele>117.731</ele>
        <time>2017-10-22T09:04:15.414Z</time>
      </trkpt>
      <trkpt lat="48.60852" lon="1.99809">
        <ele>117.91</ele>
        <time>2017-10-22T09:04:24.103Z</time>
      </trkpt>
      <trkpt lat="48.60842" lon="1.99805">
        <ele>118.177</ele>
        <time>2017-10-22T09:04:33.657Z</time>
      </trkpt>
      <trkpt lat="48.60833" lon="1.99801">
        <ele>118.503</ele>
        <time>2017-10-22T09:04:41.315Z</time>
      </trkpt>
      <trkpt lat="48.60824" lon="1.99797">
        <ele>118.773</ele>
        <time>2017-10-22T09:04:48.410Z</time>
      </trkpt>
      <trkpt lat="48.60815" lon="1.99791">
        <ele>118.848</ele>
        <time>2017-10-22T09:04:55.667Z</time>
      </trkpt>
      <trkpt lat="48.60805" lon="1.99788">
        <ele>118.545</ele>
        <time>2017-10-22T09:05:03.307Z</time>
      </trkpt>
      <trkpt lat="48.60796" lon="1.99786">
        <ele>117.77</ele>
        <time>2017-10-22T09:05:09.989Z</time>
      </trkpt>
      <trkpt lat="48.60786" lon="1.99788">
        <ele>116.769</ele>
        <time>2017-10-22T09:05:17.388Z</time>
      </trkpt>
      <trkpt lat="48.60776" lon="1.9979">
        <ele>115.778</ele>
        <time>2017-10-22T09:05:25.324Z</time>
      </trkpt>
      <trkpt lat="48.60766" lon="1.9979">
        <ele>114.837</ele>
        <time>2017-10-22T09:05:33.179Z</time>
      </trkpt>
      <trkpt lat="48.60757" lon="1.99791">
        <ele>114.103</ele>
        <time>2017-10-22T09:05:40.634Z</time>
      </trkpt>
      <trkpt lat="48.60748" lon="1.9979">
        <ele>113.777</ele>
        <time>2017-10-22T09:05:49.439Z</time>
      </trkpt>
      <trkpt lat="48.60739" lon="1.99788">
        <ele>114.051</ele>
        <time>2017-10-22T09:05:58.233Z</time>
      </trkpt>
      <trkpt lat="48.60729" lon="1.99788">
        <ele>114.854</ele>
        <time>2017-10-22T09:06:05.777Z</time>
      </trkpt>
      <trkpt lat="48.60719" lon="1.99788">
        <ele>115.696</ele>
        <time>2017-10-22T09:06:13.573Z</time>
      </trkpt>
      <trkpt lat="48.60709" lon="1.99788">
        <ele>116.193</ele>
        <time>2017-10-22T09:06:21.690Z</time>
      </trkpt>
      <trkpt lat="48.607" lon="1.99786">
        <ele>116.401</ele>
        <time>2017-10-22T09:06:29.012Z</time>
      </trkpt>
      <trkpt lat="48.60691" lon="1.9979">
        <ele>116.485</ele>
        <time>2017-10-22T09:06:36.443Z</time>
      </trkpt>
      <trkpt lat="48.6068" lon="1.99791">
        <ele>116.524</ele>
        <time>2017-10-22T09:06:44.889Z</time>
      </trkpt>
      <trkpt lat="48.60671" lon="1.99789">
        <ele>116.494</ele>
        <time>2017-10-22T09:06:52.339Z</time>
      </trkpt>
      <trkpt lat="48.60664" lon="1.99781">
        <ele>116.311</ele>
        <time>2017-10-22T09:06:59.370Z</time>
      </trkpt>
      <trkpt lat="48.60655" lon="1.99774">
        <ele>115.971</ele>
        <time>2017-10-22T09:07:07.000Z</time>
      </trkpt>
      <trkpt lat="48.60655" lon="1.99774">
        <ele>115.644</ele>
        <time>2017-10-22T09:07:16.000Z</time>
      </trkpt>
      <trkpt lat="48.60655" lon="1.99774">
        <ele>115.479</ele>
        <time>2017-10-22T09:07:16.058Z</time>
      </trkpt>
      <trkpt lat="48.60653" lon="1.99756">
        <ele>115.449</ele>
        <time>2017-10-22T09:07:29.000Z</time>
      </trkpt>
      <trkpt lat="48.60653" lon="1.99756">
        <ele>115.446</ele>
        <time>2017-10-22T09:07:37.000Z</time>
      </trkpt>
      <trkpt lat="48.60653" lon="1.99756">
        <ele>115.403</ele>
        <time>2017-10-22T09:07:56.000Z</time>
      </trkpt>
      <trkpt lat="48.60653" lon="1.99756">
        <ele>115.343</ele>
        <time>2017-10-22T09:07:56.100Z</time>
      </trkpt>
      <trkpt lat="48.60663" lon="1.99746">
        <ele>115.304</ele>
        <time>2017-10-22T09:08:10.000Z</time>
      </trkpt>
      <trkpt lat="48.60663" lon="1.99746">
        <ele>115.267</ele>
        <time>2017-10-22T09:08:16.000Z</time>
      </trkpt>
      <trkpt lat="48.60663" lon="1.99746">
        <ele>115.214</ele>
        <time>2017-10-22T09:08:16.100Z</time>
      </trkpt>
      <trkpt lat="48.60654" lon="1.99741">
        <ele>115.133</ele>
        <time>2017-10-22T09:08:35.000Z</time>
      </trkpt>
      <trkpt lat="48.60654" lon="1.99741">
        <ele>115.107</ele>
        <time>2017-10-22T09:08:39.000Z</time>
      </trkpt>
      <trkpt lat="48.60654" lon="1.99741">
        <ele>115.058</ele>
        <time>2017-10-22T09:08:39.100Z</time>
      </trkpt>
      <trkpt lat="48.60675" lon="1.99746">
        <ele>115.003</ele>
        <time>2017-10-22T09:11:22.000Z</time>
      </trkpt>
      <trkpt lat="48.60675" lon="1.99746">
        <ele>114.958</ele>
        <time>2017-10-22T09:11:25.000Z</time>
      </trkpt>
      <trkpt lat="48.60675" lon="1.99746">
        <ele>114.906</ele>
        <time>2017-10-22T09:11:25.100Z</time>
      </trkpt>
      <trkpt lat="48.60659" lon="1.99733">
        <ele>114.855</ele>
        <time>2017-10-22T09:11:50.000Z</time>
      </trkpt>
      <trkpt lat="48.60659" lon="1.99733">
        <ele>114.81</ele>
        <time>2017-10-22T09:12:06.000Z</time>
      </trkpt>
      <trkpt lat="48.60659" lon="1.99733">
        <ele>114.759</ele>
        <time>2017-10-22T09:12:27.000Z</time>
      </trkpt>
      <trkpt lat="48.60659" lon="1.99733">
        <ele>114.707</ele>
        <time>2017-10-22T09:12:27.100Z</time>
      </trkpt>
      <trkpt lat="48.60646" lon="1.99735">
        <ele>114.67</ele>
        <time>2017-10-22T09:12:47.591Z</time>
      </trkpt>
      <trkpt lat="48.60637" lon="1.99733">
        <ele>113.385</ele>
        <time>2017-10-22T09:12:58.466Z</time>
      </trkpt>
      <trkpt lat="48.60628" lon="1.99732">
        <ele>110.084</ele>
        <time>2017-10-22T09:13:09.101Z</time>
      </trkpt>
      <trkpt lat="48.60618" lon="1.99728">
        <ele>106.681</ele>
        <time>2017-10-22T09:13:19.139Z</time>
      </trkpt>
      <trkpt lat="48.60609" lon="1.99728">
        <ele>105.024</ele>
        <time>2017-10-22T09:13:29.123Z</time>
      </trkpt>
      <trkpt lat="48.60599" lon="1.99728">
        <ele>104.72</ele>
        <time>2017-10-22T09:13:38.951Z</time>
      </trkpt>
      <trkpt lat="48.60589" lon="1.9973">
        <ele>104.886</ele>
        <time>2017-10-22T09:13:47.397Z</time>
      </trkpt>
      <trkpt lat="48.60579" lon="1.9973">
        <ele>104.955</ele>
        <time>2017-10-22T09:13:56.025Z</time>
      </trkpt>
      <trkpt lat="48.6057" lon="1.99726">
        <ele>104.848</ele>
        <time>2017-10-22T09:14:05.082Z</time>
      </trkpt>
      <trkpt lat="48.6056" lon="1.99724">
        <ele>104.708</ele>
        <time>2017-10-22T09:14:13.916Z</time>
      </trkpt>
      <trkpt lat="48.60551" lon="1.99723">
        <ele>104.672</ele>
        <time>2017-10-22T09:14:22.540Z</time>
      </trkpt>
      <trkpt lat="48.60541" lon="1.99721">
        <ele>104.772</ele>
        <time>2017-10-22T09:14:31.721Z</time>
      </trkpt>
      <trkpt lat="48.60532" lon="1.9972">
        <ele>104.861</ele>
        <time>2017-10-22T09:14:40.116Z</time>
      </trkpt>
      <trkpt lat="48.60522" lon="1.9972">
        <ele>104.791</ele>
        <time>2017-10-22T09:14:48.111Z</time>
      </trkpt>
      <trkpt lat="48.60513" lon="1.99716">
        <ele>104.625</ele>
        <time>2017-10-22T09:14:55.362Z</time>
      </trkpt>
      <trkpt lat="48.60504" lon="1.99714">
        <ele>104.495</ele>
        <time>2017-10-22T09:15:03.144Z</time>
      </trkpt>
      <trkpt lat="48.60501" lon="1.99701">
        <ele>104.443</ele>
        <time>2017-10-22T09:15:11.508Z</time>
      </trkpt>
      <trkpt lat="48.60493" lon="1.99693">
        <ele>104.312</ele>
        <time>2017-10-22T09:15:22.000Z</time>
      </trkpt>
      <trkpt lat="48.60493" lon="1.99693">
        <ele>103.994</ele>
        <time>2017-10-22T09:15:26.000Z</time>
      </trkpt>
      <trkpt lat="48.60493" lon="1.99693">
        <ele>103.711</ele>
        <time>2017-10-22T09:15:26.100Z</time>
      </trkpt>
      <trkpt lat="48.60473" lon="1.99683">
        <ele>103.673</ele>
        <time>2017-10-22T09:15:56.857Z</time>
      </trkpt>
      <trkpt lat="48.60464" lon="1.99683">
        <ele>103.53</ele>
        <time>2017-10-22T09:16:07.018Z</time>
      </trkpt>
      <trkpt lat="48.60454" lon="1.99682">
        <ele>102.801</ele>
        <time>2017-10-22T09:16:16.489Z</time>
      </trkpt>
      <trkpt lat="48.60446" lon="1.99677">
        <ele>101.487</ele>
        <time>2017-10-22T09:16:24.387Z</time>
      </trkpt>
      <trkpt lat="48.60439" lon="1.99667">
        <ele>100.041</ele>
        <time>2017-10-22T09:16:31.873Z</time>
      </trkpt>
      <trkpt lat="48.60435" lon="1.99654">
        <ele>98.958</ele>
        <time>2017-10-22T09:16:40.000Z</time>
      </trkpt>
      <trkpt lat="48.60435" lon="1.99654">
        <ele>98.452</ele>
        <time>2017-10-22T09:16:43.000Z</time>
      </trkpt>
      <trkpt lat="48.60435" lon="1.99654">
        <ele>98.367</ele>
        <time>2017-10-22T09:16:51.761Z</time>
      </trkpt>
      <trkpt lat="48.60428" lon="1.99642">
        <ele>98.42</ele>
        <time>2017-10-22T09:17:18.276Z</time>
      </trkpt>
      <trkpt lat="48.60418" lon="1.99641">
        <ele>98.164</ele>
        <time>2017-10-22T09:17:42.433Z</time>
      </trkpt>
      <trkpt lat="48.60409" lon="1.99635">
        <ele>97.5</ele>
        <time>2017-10-22T09:17:56.982Z</time>
      </trkpt>
      <trkpt lat="48.604" lon="1.9963">
        <ele>96.657</ele>
        <time>2017-10-22T09:18:06.039Z</time>
      </trkpt>
      <trkpt lat="48.6039" lon="1.99624">
        <ele>95.98</ele>
        <time>2017-10-22T09:18:13.298Z</time>
      </trkpt>
      <trkpt lat="48.60381" lon="1.99622">
        <ele>95.568</ele>
        <time>2017-10-22T09:18:21.025Z</time>
      </trkpt>
      <trkpt lat="48.60372" lon="1.99616">
        <ele>95.253</ele>
        <time>2017-10-22T09:18:29.502Z</time>
      </trkpt>
      <trkpt lat="48.60363" lon="1.99612">
        <ele>94.644</ele>
        <time>2017-10-22T09:18:39.052Z</time>
      </trkpt>
      <trkpt lat="48.60356" lon="1.99602">
        <ele>93.738</ele>
        <time>2017-10-22T09:18:47.430Z</time>
      </trkpt>
      <trkpt lat="48.60347" lon="1.99597">
        <ele>92.824</ele>
        <time>2017-10-22T09:18:55.431Z</time>
      </trkpt>
      <trkpt lat="48.60339" lon="1.99593">
        <ele>92.028</ele>
        <time>2017-10-22T09:19:03.152Z</time>
      </trkpt>
      <trkpt lat="48.60333" lon="1.99581">
        <ele>91.46</ele>
        <time>2017-10-22T09:19:11.266Z</time>
      </trkpt>
      <trkpt lat="48.60326" lon="1.99571">
        <ele>91.133</ele>
        <time>2017-10-22T09:19:18.192Z</time>
      </trkpt>
      <trkpt lat="48.6032" lon="1.99561">
        <ele>90.821</ele>
        <time>2017-10-22T09:19:24.919Z</time>
      </trkpt>
      <trkpt lat="48.60314" lon="1.9955">
        <ele>90.475</ele>
        <time>2017-10-22T09:19:32.648Z</time>
      </trkpt>
      <trkpt lat="48.60306" lon="1.99541">
        <ele>90.195</ele>
        <time>2017-10-22T09:19:39.909Z</time>
      </trkpt>
      <trkpt lat="48.603" lon="1.99529">
        <ele>90.022</ele>
        <time>2017-10-22T09:19:47.736Z</time>
      </trkpt>
      <trkpt lat="48.60292" lon="1.9952">
        <ele>89.932</ele>
        <time>2017-10-22T09:19:55.399Z</time>
      </trkpt>
      <trkpt lat="48.60285" lon="1.99511">
        <ele>89.885</ele>
        <time>2017-10-22T09:20:02.530Z</time>
      </trkpt>
      <trkpt lat="48.60278" lon="1.99502">
        <ele>89.862</ele>
        <time>2017-10-22T09:20:09.288Z</time>
      </trkpt>
      <trkpt lat="48.60273" lon="1.99491">
        <ele>90.623</ele>
        <time>2017-10-22T09:20:17.326Z</time>
      </trkpt>
      <trkpt lat="48.60266" lon="1.99482">
        <ele>92.614</ele>
        <time>2017-10-22T09:20:25.463Z</time>
      </trkpt>
      <trkpt lat="48.60257" lon="1.99475">
        <ele>94.606</ele>
        <time>2017-10-22T09:20:32.999Z</time>
      </trkpt>
      <trkpt lat="48.60257" lon="1.99475">
        <ele>95.434</ele>
        <time>2017-10-22T09:20:37.999Z</time>
      </trkpt>
      <trkpt lat="48.60257" lon="1.99475">
        <ele>95.427</ele>
        <time>2017-10-22T09:21:01.940Z</time>
      </trkpt>
      <trkpt lat="48.60245" lon="1.99448">
        <ele>95.154</ele>
        <time>2017-10-22T09:21:34.876Z</time>
      </trkpt>
      <trkpt lat="48.60237" lon="1.99439">
        <ele>94.881</ele>
        <time>2017-10-22T09:21:42.907Z</time>
      </trkpt>
      <trkpt lat="48.60229" lon="1.99429">
        <ele>94.699</ele>
        <time>2017-10-22T09:21:50.082Z</time>
      </trkpt>
      <trkpt lat="48.6022" lon="1.99422">
        <ele>94.633</ele>
        <time>2017-10-22T09:21:57.277Z</time>
      </trkpt>
      <trkpt lat="48.60211" lon="1.99415">
        <ele>94.672</ele>
        <time>2017-10-22T09:22:04.202Z</time>
      </trkpt>
      <trkpt lat="48.60203" lon="1.99406">
        <ele>94.796</ele>
        <time>2017-10-22T09:22:12.167Z</time>
      </trkpt>
      <trkpt lat="48.60195" lon="1.994">
        <ele>94.919</ele>
        <time>2017-10-22T09:22:19.810Z</time>
      </trkpt>
      <trkpt lat="48.60187" lon="1.99392">
        <ele>95.004</ele>
        <time>2017-10-22T09:22:27.585Z</time>
      </trkpt>
      <trkpt lat="48.60182" lon="1.99381">
        <ele>95.113</ele>
        <time>2017-10-22T09:22:35.420Z</time>
      </trkpt>
      <trkpt lat="48.60185" lon="1.99367">
        <ele>95.226</ele>
        <time>2017-10-22T09:22:43.325Z</time>
      </trkpt>
      <trkpt lat="48.60191" lon="1.99353">
        <ele>95.294</ele>
        <time>2017-10-22T09:22:50.602Z</time>
      </trkpt>
      <trkpt lat="48.60197" lon="1.99342">
        <ele>95.351</ele>
        <time>2017-10-22T09:22:58.193Z</time>
      </trkpt>
      <trkpt lat="48.60204" lon="1.99332">
        <ele>95.418</ele>
        <time>2017-10-22T09:23:06.119Z</time>
      </trkpt>
      <trkpt lat="48.60209" lon="1.99321">
        <ele>95.509</ele>
        <time>2017-10-22T09:23:14.036Z</time>
      </trkpt>
      <trkpt lat="48.60217" lon="1.99311">
        <ele>95.653</ele>
        <time>2017-10-22T09:23:21.746Z</time>
      </trkpt>
      <trkpt lat="48.60223" lon="1.99301">
        <ele>95.79</ele>
        <time>2017-10-22T09:23:29.152Z</time>
      </trkpt>
      <trkpt lat="48.60228" lon="1.99288">
        <ele>95.855</ele>
        <time>2017-10-22T09:23:36.805Z</time>
      </trkpt>
      <trkpt lat="48.60235" lon="1.9928">
        <ele>95.883</ele>
        <time>2017-10-22T09:23:43.781Z</time>
      </trkpt>
      <trkpt lat="48.60242" lon="1.99271">
        <ele>95.933</ele>
        <time>2017-10-22T09:23:51.017Z</time>
      </trkpt>
      <trkpt lat="48.60247" lon="1.99259">
        <ele>96.052</ele>
        <time>2017-10-22T09:23:58.734Z</time>
      </trkpt>
      <trkpt lat="48.60253" lon="1.99246">
        <ele>96.234</ele>
        <time>2017-10-22T09:24:07.389Z</time>
      </trkpt>
      <trkpt lat="48.60258" lon="1.99234">
        <ele>96.4</ele>
        <time>2017-10-22T09:24:15.364Z</time>
      </trkpt>
      <trkpt lat="48.60264" lon="1.99223">
        <ele>96.482</ele>
        <time>2017-10-22T09:24:22.477Z</time>
      </trkpt>
      <trkpt lat="48.6027" lon="1.99211">
        <ele>96.288</ele>
        <time>2017-10-22T09:24:29.948Z</time>
      </trkpt>
      <trkpt lat="48.60277" lon="1.99201">
        <ele>95.598</ele>
        <time>2017-10-22T09:24:36.771Z</time>
      </trkpt>
      <trkpt lat="48.60283" lon="1.9919">
        <ele>94.674</ele>
        <time>2017-10-22T09:24:43.546Z</time>
      </trkpt>
      <trkpt lat="48.60289" lon="1.99178">
        <ele>94.036</ele>
        <time>2017-10-22T09:24:51.019Z</time>
      </trkpt>
      <trkpt lat="48.60295" lon="1.99166">
        <ele>93.805</ele>
        <time>2017-10-22T09:24:58.407Z</time>
      </trkpt>
      <trkpt lat="48.60303" lon="1.99156">
        <ele>93.791</ele>
        <time>2017-10-22T09:25:05.607Z</time>
      </trkpt>
      <trkpt lat="48.60309" lon="1.99144">
        <ele>93.825</ele>
        <time>2017-10-22T09:25:13.303Z</time>
      </trkpt>
      <trkpt lat="48.60317" lon="1.99134">
        <ele>93.884</ele>
        <time>2017-10-22T09:25:21.120Z</time>
      </trkpt>
      <trkpt lat="48.60323" lon="1.99124">
        <ele>93.984</ele>
        <time>2017-10-22T09:25:28.007Z</time>
      </trkpt>
      <trkpt lat="48.6033" lon="1.99114">
        <ele>93.994</ele>
        <time>2017-10-22T09:25:34.936Z</time>
      </trkpt>
      <trkpt lat="48.60337" lon="1.99102">
        <ele>93.819</ele>
        <time>2017-10-22T09:25:42.289Z</time>
      </trkpt>
      <trkpt lat="48.60343" lon="1.9909">
        <ele>93.598</ele>
        <time>2017-10-22T09:25:49.370Z</time>
      </trkpt>
      <trkpt lat="48.60349" lon="1.99079">
        <ele>93.388</ele>
        <time>2017-10-22T09:25:56.428Z</time>
      </trkpt>
      <trkpt lat="48.60355" lon="1.99067">
        <ele>93.121</ele>
        <time>2017-10-22T09:26:03.605Z</time>
      </trkpt>
      <trkpt lat="48.6036" lon="1.99056">
        <ele>92.895</ele>
        <time>2017-10-22T09:26:10.504Z</time>
      </trkpt>
      <trkpt lat="48.60365" lon="1.99044">
        <ele>92.824</ele>
        <time>2017-10-22T09:26:17.000Z</time>
      </trkpt>
      <trkpt lat="48.60365" lon="1.99044">
        <ele>92.858</ele>
        <time>2017-10-22T09:26:23.000Z</time>
      </trkpt>
      <trkpt lat="48.60365" lon="1.99044">
        <ele>92.886</ele>
        <time>2017-10-22T09:26:52.000Z</time>
      </trkpt>
      <trkpt lat="48.60365" lon="1.99044">
        <ele>92.849</ele>
        <time>2017-10-22T09:26:52.100Z</time>
      </trkpt>
      <trkpt lat="48.60358" lon="1.99027">
        <ele>92.79</ele>
        <time>2017-10-22T09:27:05.537Z</time>
      </trkpt>
      <trkpt lat="48.60351" lon="1.99015">
        <ele>92.806</ele>
        <time>2017-10-22T09:27:13.000Z</time>
      </trkpt>
      <trkpt lat="48.60351" lon="1.99015">
        <ele>92.918</ele>
        <time>2017-10-22T09:27:14.000Z</time>
      </trkpt>
      <trkpt lat="48.60351" lon="1.99015">
        <ele>93.002</ele>
        <time>2017-10-22T09:27:14.100Z</time>
      </trkpt>
      <trkpt lat="48.60345" lon="1.99001">
        <ele>92.962</ele>
        <time>2017-10-22T09:27:28.304Z</time>
      </trkpt>
      <trkpt lat="48.60338" lon="1.98992">
        <ele>93.128</ele>
        <time>2017-10-22T09:27:36.007Z</time>
      </trkpt>
      <trkpt lat="48.60331" lon="1.98983">
        <ele>93.937</ele>
        <time>2017-10-22T09:27:43.769Z</time>
      </trkpt>
      <trkpt lat="48.60323" lon="1.98974">
        <ele>95.184</ele>
        <time>2017-10-22T09:27:51.509Z</time>
      </trkpt>
      <trkpt lat="48.60315" lon="1.98964">
        <ele>96.23</ele>
        <time>2017-10-22T09:27:59.379Z</time>
      </trkpt>
      <trkpt lat="48.60308" lon="1.98955">
        <ele>96.866</ele>
        <time>2017-10-22T09:28:06.650Z</time>
      </trkpt>
      <trkpt lat="48.603" lon="1.98946">
        <ele>97.252</ele>
        <time>2017-10-22T09:28:14.319Z</time>
      </trkpt>
      <trkpt lat="48.60293" lon="1.98937">
        <ele>97.468</ele>
        <time>2017-10-22T09:28:21.930Z</time>
      </trkpt>
      <trkpt lat="48.60285" lon="1.98931">
        <ele>97.531</ele>
        <time>2017-10-22T09:28:30.113Z</time>
      </trkpt>
      <trkpt lat="48.60278" lon="1.9892">
        <ele>97.591</ele>
        <time>2017-10-22T09:28:39.245Z</time>
      </trkpt>
      <trkpt lat="48.60272" lon="1.9891">
        <ele>97.84</ele>
        <time>2017-10-22T09:28:47.693Z</time>
      </trkpt>
      <trkpt lat="48.60264" lon="1.989">
        <ele>98.303</ele>
        <time>2017-10-22T09:28:56.926Z</time>
      </trkpt>
      <trkpt lat="48.60257" lon="1.98891">
        <ele>98.841</ele>
        <time>2017-10-22T09:29:05.130Z</time>
      </trkpt>
      <trkpt lat="48.6025" lon="1.9888">
        <ele>99.369</ele>
        <time>2017-10-22T09:29:13.633Z</time>
      </trkpt>
      <trkpt lat="48.60244" lon="1.9887">
        <ele>99.819</ele>
        <time>2017-10-22T09:29:21.763Z</time>
      </trkpt>
      <trkpt lat="48.60236" lon="1.98862">
        <ele>100.201</ele>
        <time>2017-10-22T09:29:29.702Z</time>
      </trkpt>
      <trkpt lat="48.60227" lon="1.98854">
        <ele>100.674</ele>
        <time>2017-10-22T09:29:38.510Z</time>
      </trkpt>
      <trkpt lat="48.6022" lon="1.98844">
        <ele>101.256</ele>
        <time>2017-10-22T09:29:46.953Z</time>
      </trkpt>
      <trkpt lat="48.60214" lon="1.98833">
        <ele>101.725</ele>
        <time>2017-10-22T09:29:54.986Z</time>
      </trkpt>
      <trkpt lat="48.60206" lon="1.98825">
        <ele>101.952</ele>
        <time>2017-10-22T09:30:02.637Z</time>
      </trkpt>
      <trkpt lat="48.60199" lon="1.98816">
        <ele>101.991</ele>
        <time>2017-10-22T09:30:10.346Z</time>
      </trkpt>
      <trkpt lat="48.60192" lon="1.98807">
        <ele>101.979</ele>
        <time>2017-10-22T09:30:17.674Z</time>
      </trkpt>
      <trkpt lat="48.60184" lon="1.98797">
        <ele>102.004</ele>
        <time>2017-10-22T09:30:25.927Z</time>
      </trkpt>
      <trkpt lat="48.60177" lon="1.98788">
        <ele>102.051</ele>
        <time>2017-10-22T09:30:34.097Z</time>
      </trkpt>
      <trkpt lat="48.60171" lon="1.98779">
        <ele>102.086</ele>
        <time>2017-10-22T09:30:42.118Z</time>
      </trkpt>
      <trkpt lat="48.60163" lon="1.9877">
        <ele>102.14</ele>
        <time>2017-10-22T09:30:49.230Z</time>
      </trkpt>
      <trkpt lat="48.60157" lon="1.98759">
        <ele>102.237</ele>
        <time>2017-10-22T09:30:56.505Z</time>
      </trkpt>
      <trkpt lat="48.6015" lon="1.98749">
        <ele>102.354</ele>
        <time>2017-10-22T09:31:03.741Z</time>
      </trkpt>
      <trkpt lat="48.60142" lon="1.98741">
        <ele>102.574</ele>
        <time>2017-10-22T09:31:12.294Z</time>
      </trkpt>
      <trkpt lat="48.60133" lon="1.98738">
        <ele>102.971</ele>
        <time>2017-10-22T09:31:20.660Z</time>
      </trkpt>
      <trkpt lat="48.60126" lon="1.98726">
        <ele>103.429</ele>
        <time>2017-10-22T09:31:28.211Z</time>
      </trkpt>
      <trkpt lat="48.60123" lon="1.98712">
        <ele>103.808</ele>
        <time>2017-10-22T09:31:36.000Z</time>
      </trkpt>
      <trkpt lat="48.60123" lon="1.98712">
        <ele>104.03</ele>
        <time>2017-10-22T09:31:46.000Z</time>
      </trkpt>
      <trkpt lat="48.60123" lon="1.98712">
        <ele>104.068</ele>
        <time>2017-10-22T09:31:46.100Z</time>
      </trkpt>
      <trkpt lat="48.60118" lon="1.98696">
        <ele>104.002</ele>
        <time>2017-10-22T09:32:22.000Z</time>
      </trkpt>
      <trkpt lat="48.60118" lon="1.98696">
        <ele>103.935</ele>
        <time>2017-10-22T09:32:26.000Z</time>
      </trkpt>
      <trkpt lat="48.60118" lon="1.98696">
        <ele>103.899</ele>
        <time>2017-10-22T09:32:26.100Z</time>
      </trkpt>
      <trkpt lat="48.6011" lon="1.98703">
        <ele>103.845</ele>
        <time>2017-10-22T09:33:01.672Z</time>
      </trkpt>
      <trkpt lat="48.601" lon="1.98707">
        <ele>103.821</ele>
        <time>2017-10-22T09:33:11.999Z</time>
      </trkpt>
      <trkpt lat="48.601" lon="1.98707">
        <ele>103.795</ele>
        <time>2017-10-22T09:33:19.000Z</time>
      </trkpt>
      <trkpt lat="48.601" lon="1.98707">
        <ele>103.75</ele>
        <time>2017-10-22T09:33:41.337Z</time>
      </trkpt>
      <trkpt lat="48.60109" lon="1.98704">
        <ele>103.673</ele>
        <time>2017-10-22T09:34:09.002Z</time>
      </trkpt>
      <trkpt lat="48.60117" lon="1.98709">
        <ele>103.667</ele>
        <time>2017-10-22T09:34:25.000Z</time>
      </trkpt>
      <trkpt lat="48.60117" lon="1.98709">
        <ele>103.669</ele>
        <time>2017-10-22T09:34:28.000Z</time>
      </trkpt>
      <trkpt lat="48.60117" lon="1.98709">
        <ele>103.654</ele>
        <time>2017-10-22T09:39:13.520Z</time>
      </trkpt>
      <trkpt lat="48.60106" lon="1.98707">
        <ele>103.611</ele>
        <time>2017-10-22T09:39:30.710Z</time>
      </trkpt>
      <trkpt lat="48.60098" lon="1.98713">
        <ele>104.176</ele>
        <time>2017-10-22T09:39:39.775Z</time>
      </trkpt>
      <trkpt lat="48.60088" lon="1.98715">
        <ele>105.758</ele>
        <time>2017-10-22T09:39:48.050Z</time>
      </trkpt>
      <trkpt lat="48.6008" lon="1.98723">
        <ele>107.421</ele>
        <time>2017-10-22T09:39:56.153Z</time>
      </trkpt>
      <trkpt lat="48.60071" lon="1.9873">
        <ele>108.234</ele>
        <time>2017-10-22T09:40:03.630Z</time>
      </trkpt>
      <trkpt lat="48.60063" lon="1.98735">
        <ele>108.365</ele>
        <time>2017-10-22T09:40:10.827Z</time>
      </trkpt>
      <trkpt lat="48.60053" lon="1.98739">
        <ele>108.22</ele>
        <time>2017-10-22T09:40:18.572Z</time>
      </trkpt>
      <trkpt lat="48.60044" lon="1.98743">
        <ele>108.069</ele>
        <time>2017-10-22T09:40:26.302Z</time>
      </trkpt>
      <trkpt lat="48.60034" lon="1.98747">
        <ele>108.097</ele>
        <time>2017-10-22T09:40:34.384Z</time>
      </trkpt>
      <trkpt lat="48.60025" lon="1.98749">
        <ele>108.45</ele>
        <time>2017-10-22T09:40:42.200Z</time>
      </trkpt>
      <trkpt lat="48.60016" lon="1.9875">
        <ele>109.05</ele>
        <time>2017-10-22T09:40:49.727Z</time>
      </trkpt>
      <trkpt lat="48.60007" lon="1.98751">
        <ele>109.634</ele>
        <time>2017-10-22T09:40:56.909Z</time>
      </trkpt>
      <trkpt lat="48.59998" lon="1.98753">
        <ele>110.047</ele>
        <time>2017-10-22T09:41:03.988Z</time>
      </trkpt>
      <trkpt lat="48.59989" lon="1.98756">
        <ele>110.801</ele>
        <time>2017-10-22T09:41:11.666Z</time>
      </trkpt>
      <trkpt lat="48.59979" lon="1.98758">
        <ele>112.255</ele>
        <time>2017-10-22T09:41:19.841Z</time>
      </trkpt>
      <trkpt lat="48.5997" lon="1.98761">
        <ele>113.714</ele>
        <time>2017-10-22T09:41:27.313Z</time>
      </trkpt>
      <trkpt lat="48.59961" lon="1.98763">
        <ele>114.498</ele>
        <time>2017-10-22T09:41:34.848Z</time>
      </trkpt>
      <trkpt lat="48.59951" lon="1.98769">
        <ele>114.749</ele>
        <time>2017-10-22T09:41:43.323Z</time>
      </trkpt>
      <trkpt lat="48.59941" lon="1.9877">
        <ele>114.729</ele>
        <time>2017-10-22T09:41:50.973Z</time>
      </trkpt>
      <trkpt lat="48.59932" lon="1.98773">
        <ele>114.638</ele>
        <time>2017-10-22T09:41:58.123Z</time>
      </trkpt>
      <trkpt lat="48.59922" lon="1.98778">
        <ele>114.624</ele>
        <time>2017-10-22T09:42:05.694Z</time>
      </trkpt>
      <trkpt lat="48.59912" lon="1.98779">
        <ele>114.735</ele>
        <time>2017-10-22T09:42:13.303Z</time>
      </trkpt>
      <trkpt lat="48.59903" lon="1.98782">
        <ele>114.88</ele>
        <time>2017-10-22T09:42:21.167Z</time>
      </trkpt>
      <trkpt lat="48.59894" lon="1.98783">
        <ele>114.999</ele>
        <time>2017-10-22T09:42:28.229Z</time>
      </trkpt>
      <trkpt lat="48.5988" lon="1.98786">
        <ele>115.185</ele>
        <time>2017-10-22T09:42:39.483Z</time>
      </trkpt>
      <trkpt lat="48.59871" lon="1.98788">
        <ele>115.52</ele>
        <time>2017-10-22T09:42:47.230Z</time>
      </trkpt>
      <trkpt lat="48.59861" lon="1.98791">
        <ele>115.963</ele>
        <time>2017-10-22T09:42:55.688Z</time>
      </trkpt>
      <trkpt lat="48.59852" lon="1.98794">
        <ele>116.423</ele>
        <time>2017-10-22T09:43:03.771Z</time>
      </trkpt>
      <trkpt lat="48.59842" lon="1.98797">
        <ele>116.868</ele>
        <time>2017-10-22T09:43:11.933Z</time>
      </trkpt>
      <trkpt lat="48.59833" lon="1.98799">
        <ele>117.294</ele>
        <time>2017-10-22T09:43:19.039Z</time>
      </trkpt>
      <trkpt lat="48.59824" lon="1.988">
        <ele>117.712</ele>
        <time>2017-10-22T09:43:26.661Z</time>
      </trkpt>
      <trkpt lat="48.59815" lon="1.98799">
        <ele>118.147</ele>
        <time>2017-10-22T09:43:33.998Z</time>
      </trkpt>
      <trkpt lat="48.59806" lon="1.98798">
        <ele>118.557</ele>
        <time>2017-10-22T09:43:40.821Z</time>
      </trkpt>
      <trkpt lat="48.59796" lon="1.98797">
        <ele>118.831</ele>
        <time>2017-10-22T09:43:47.558Z</time>
      </trkpt>
      <trkpt lat="48.59787" lon="1.98794">
        <ele>118.867</ele>
        <time>2017-10-22T09:43:54.921Z</time>
      </trkpt>
      <trkpt lat="48.59778" lon="1.98794">
        <ele>118.656</ele>
        <time>2017-10-22T09:44:02.709Z</time>
      </trkpt>
      <trkpt lat="48.59769" lon="1.98797">
        <ele>118.372</ele>
        <time>2017-10-22T09:44:10.198Z</time>
      </trkpt>
      <trkpt lat="48.5976" lon="1.98797">
        <ele>118.208</ele>
        <time>2017-10-22T09:44:17.478Z</time>
      </trkpt>
      <trkpt lat="48.5975" lon="1.98798">
        <ele>118.232</ele>
        <time>2017-10-22T09:44:24.996Z</time>
      </trkpt>
      <trkpt lat="48.59741" lon="1.98797">
        <ele>118.428</ele>
        <time>2017-10-22T09:44:32.661Z</time>
      </trkpt>
      <trkpt lat="48.59731" lon="1.98798">
        <ele>118.746</ele>
        <time>2017-10-22T09:44:41.272Z</time>
      </trkpt>
      <trkpt lat="48.59721" lon="1.98798">
        <ele>119.111</ele>
        <time>2017-10-22T09:44:49.462Z</time>
      </trkpt>
      <trkpt lat="48.59711" lon="1.98797">
        <ele>119.498</ele>
        <time>2017-10-22T09:44:57.417Z</time>
      </trkpt>
      <trkpt lat="48.59702" lon="1.98796">
        <ele>119.881</ele>
        <time>2017-10-22T09:45:05.447Z</time>
      </trkpt>
      <trkpt lat="48.59693" lon="1.98795">
        <ele>120.227</ele>
        <time>2017-10-22T09:45:13.000Z</time>
      </trkpt>
      <trkpt lat="48.59693" lon="1.98795">
        <ele>120.508</ele>
        <time>2017-10-22T09:45:23.000Z</time>
      </trkpt>
      <trkpt lat="48.59693" lon="1.98795">
        <ele>120.639</ele>
        <time>2017-10-22T09:45:41.015Z</time>
      </trkpt>
      <trkpt lat="48.59681" lon="1.98792">
        <ele>120.576</ele>
        <time>2017-10-22T09:45:58.600Z</time>
      </trkpt>
      <trkpt lat="48.59671" lon="1.98791">
        <ele>120.831</ele>
        <time>2017-10-22T09:46:07.463Z</time>
      </trkpt>
      <trkpt lat="48.59661" lon="1.98791">
        <ele>121.79</ele>
        <time>2017-10-22T09:46:15.498Z</time>
      </trkpt>
      <trkpt lat="48.59651" lon="1.98793">
        <ele>122.934</ele>
        <time>2017-10-22T09:46:22.910Z</time>
      </trkpt>
      <trkpt lat="48.59641" lon="1.98794">
        <ele>123.729</ele>
        <time>2017-10-22T09:46:30.543Z</time>
      </trkpt>
      <trkpt lat="48.59631" lon="1.98794">
        <ele>124.248</ele>
        <time>2017-10-22T09:46:38.649Z</time>
      </trkpt>
      <trkpt lat="48.59622" lon="1.98795">
        <ele>124.58</ele>
        <time>2017-10-22T09:46:46.545Z</time>
      </trkpt>
      <trkpt lat="48.59612" lon="1.98795">
        <ele>124.736</ele>
        <time>2017-10-22T09:46:55.184Z</time>
      </trkpt>
      <trkpt lat="48.59602" lon="1.98797">
        <ele>124.785</ele>
        <time>2017-10-22T09:47:03.520Z</time>
      </trkpt>
      <trkpt lat="48.59592" lon="1.98799">
        <ele>124.829</ele>
        <time>2017-10-22T09:47:11.757Z</time>
      </trkpt>
      <trkpt lat="48.59582" lon="1.98801">
        <ele>124.914</ele>
        <time>2017-10-22T09:47:19.829Z</time>
      </trkpt>
      <trkpt lat="48.59573" lon="1.98802">
        <ele>125.163</ele>
        <time>2017-10-22T09:47:26.771Z</time>
      </trkpt>
      <trkpt lat="48.59563" lon="1.98803">
        <ele>125.629</ele>
        <time>2017-10-22T09:47:33.799Z</time>
      </trkpt>
      <trkpt lat="48.59554" lon="1.98804">
        <ele>126.059</ele>
        <time>2017-10-22T09:47:41.362Z</time>
      </trkpt>
      <trkpt lat="48.59545" lon="1.98807">
        <ele>126.173</ele>
        <time>2017-10-22T09:47:48.453Z</time>
      </trkpt>
      <trkpt lat="48.59534" lon="1.98806">
        <ele>125.979</ele>
        <time>2017-10-22T09:47:56.537Z</time>
      </trkpt>
      <trkpt lat="48.59525" lon="1.98805">
        <ele>125.638</ele>
        <time>2017-10-22T09:48:03.956Z</time>
      </trkpt>
      <trkpt lat="48.59516" lon="1.98806">
        <ele>125.298</ele>
        <time>2017-10-22T09:48:11.079Z</time>
      </trkpt>
      <trkpt lat="48.59506" lon="1.98809">
        <ele>124.964</ele>
        <time>2017-10-22T09:48:18.881Z</time>
      </trkpt>
      <trkpt lat="48.59496" lon="1.9881">
        <ele>124.506</ele>
        <time>2017-10-22T09:48:26.595Z</time>
      </trkpt>
      <trkpt lat="48.59486" lon="1.98809">
        <ele>123.917</ele>
        <time>2017-10-22T09:48:34.702Z</time>
      </trkpt>
      <trkpt lat="48.59477" lon="1.98811">
        <ele>123.413</ele>
        <time>2017-10-22T09:48:42.012Z</time>
      </trkpt>
      <trkpt lat="48.59468" lon="1.98815">
        <ele>123.151</ele>
        <time>2017-10-22T09:48:49.480Z</time>
      </trkpt>
      <trkpt lat="48.59458" lon="1.98817">
        <ele>123.017</ele>
        <time>2017-10-22T09:48:57.106Z</time>
      </trkpt>
      <trkpt lat="48.59448" lon="1.98818">
        <ele>122.863</ele>
        <time>2017-10-22T09:49:04.930Z</time>
      </trkpt>
      <trkpt lat="48.59439" lon="1.98818">
        <ele>122.611</ele>
        <time>2017-10-22T09:49:11.880Z</time>
      </trkpt>
      <trkpt lat="48.5943" lon="1.98818">
        <ele>122.283</ele>
        <time>2017-10-22T09:49:18.901Z</time>
      </trkpt>
      <trkpt lat="48.59421" lon="1.98818">
        <ele>121.869</ele>
        <time>2017-10-22T09:49:25.778Z</time>
      </trkpt>
      <trkpt lat="48.5941" lon="1.98819">
        <ele>121.338</ele>
        <time>2017-10-22T09:49:33.672Z</time>
      </trkpt>
      <trkpt lat="48.594" lon="1.98819">
        <ele>120.74</ele>
        <time>2017-10-22T09:49:41.955Z</time>
      </trkpt>
      <trkpt lat="48.59391" lon="1.9882">
        <ele>120.166</ele>
        <time>2017-10-22T09:49:49.057Z</time>
      </trkpt>
      <trkpt lat="48.59382" lon="1.98821">
        <ele>119.626</ele>
        <time>2017-10-22T09:49:56.028Z</time>
      </trkpt>
      <trkpt lat="48.59373" lon="1.98824">
        <ele>119.147</ele>
        <time>2017-10-22T09:50:03.020Z</time>
      </trkpt>
      <trkpt lat="48.59364" lon="1.98827">
        <ele>118.778</ele>
        <time>2017-10-22T09:50:10.524Z</time>
      </trkpt>
      <trkpt lat="48.59355" lon="1.98832">
        <ele>118.544</ele>
        <time>2017-10-22T09:50:18.182Z</time>
      </trkpt>
      <trkpt lat="48.59346" lon="1.98836">
        <ele>118.391</ele>
        <time>2017-10-22T09:50:25.971Z</time>
      </trkpt>
      <trkpt lat="48.59337" lon="1.98839">
        <ele>118.262</ele>
        <time>2017-10-22T09:50:34.020Z</time>
      </trkpt>
      <trkpt lat="48.59328" lon="1.98844">
        <ele>118.228</ele>
        <time>2017-10-22T09:50:41.744Z</time>
      </trkpt>
      <trkpt lat="48.59318" lon="1.98848">
        <ele>118.357</ele>
        <time>2017-10-22T09:50:49.911Z</time>
      </trkpt>
      <trkpt lat="48.59309" lon="1.98851">
        <ele>118.55</ele>
        <time>2017-10-22T09:50:57.739Z</time>
      </trkpt>
      <trkpt lat="48.593" lon="1.98856">
        <ele>118.694</ele>
        <time>2017-10-22T09:51:05.581Z</time>
      </trkpt>
      <trkpt lat="48.59291" lon="1.9886">
        <ele>118.77</ele>
        <time>2017-10-22T09:51:13.317Z</time>
      </trkpt>
      <trkpt lat="48.59281" lon="1.98864">
        <ele>118.796</ele>
        <time>2017-10-22T09:51:21.212Z</time>
      </trkpt>
      <trkpt lat="48.59272" lon="1.98868">
        <ele>118.799</ele>
        <time>2017-10-22T09:51:28.853Z</time>
      </trkpt>
      <trkpt lat="48.59264" lon="1.98873">
        <ele>118.714</ele>
        <time>2017-10-22T09:51:36.599Z</time>
      </trkpt>
      <trkpt lat="48.59255" lon="1.98877">
        <ele>118.494</ele>
        <time>2017-10-22T09:51:44.751Z</time>
      </trkpt>
      <trkpt lat="48.59246" lon="1.98884">
        <ele>118.304</ele>
        <time>2017-10-22T09:51:53.308Z</time>
      </trkpt>
      <trkpt lat="48.59239" lon="1.98892">
        <ele>118.409</ele>
        <time>2017-10-22T09:52:01.452Z</time>
      </trkpt>
      <trkpt lat="48.59233" lon="1.98903">
        <ele>118.798</ele>
        <time>2017-10-22T09:52:09.427Z</time>
      </trkpt>
      <trkpt lat="48.59228" lon="1.98916">
        <ele>119.212</ele>
        <time>2017-10-22T09:52:17.670Z</time>
      </trkpt>
      <trkpt lat="48.59221" lon="1.98926">
        <ele>119.481</ele>
        <time>2017-10-22T09:52:25.322Z</time>
      </trkpt>
      <trkpt lat="48.59217" lon="1.98937">
        <ele>119.62</ele>
        <time>2017-10-22T09:52:33.343Z</time>
      </trkpt>
      <trkpt lat="48.5921" lon="1.98948">
        <ele>119.663</ele>
        <time>2017-10-22T09:52:42.277Z</time>
      </trkpt>
      <trkpt lat="48.59204" lon="1.98959">
        <ele>119.614</ele>
        <time>2017-10-22T09:52:49.951Z</time>
      </trkpt>
      <trkpt lat="48.592" lon="1.98972">
        <ele>119.496</ele>
        <time>2017-10-22T09:52:58.351Z</time>
      </trkpt>
      <trkpt lat="48.59193" lon="1.98981">
        <ele>119.386</ele>
        <time>2017-10-22T09:53:06.607Z</time>
      </trkpt>
      <trkpt lat="48.59187" lon="1.98991">
        <ele>119.322</ele>
        <time>2017-10-22T09:53:14.207Z</time>
      </trkpt>
      <trkpt lat="48.59178" lon="1.99">
        <ele>119.215</ele>
        <time>2017-10-22T09:53:22.592Z</time>
      </trkpt>
      <trkpt lat="48.59173" lon="1.99012">
        <ele>118.994</ele>
        <time>2017-10-22T09:53:31.135Z</time>
      </trkpt>
      <trkpt lat="48.59164" lon="1.99019">
        <ele>118.691</ele>
        <time>2017-10-22T09:53:39.360Z</time>
      </trkpt>
      <trkpt lat="48.59156" lon="1.99027">
        <ele>118.348</ele>
        <time>2017-10-22T09:53:47.082Z</time>
      </trkpt>
      <trkpt lat="48.59147" lon="1.99034">
        <ele>117.961</ele>
        <time>2017-10-22T09:53:54.246Z</time>
      </trkpt>
      <trkpt lat="48.5914" lon="1.99043">
        <ele>117.464</ele>
        <time>2017-10-22T09:54:01.571Z</time>
      </trkpt>
      <trkpt lat="48.59132" lon="1.99052">
        <ele>116.863</ele>
        <time>2017-10-22T09:54:09.486Z</time>
      </trkpt>
      <trkpt lat="48.59124" lon="1.99061">
        <ele>116.322</ele>
        <time>2017-10-22T09:54:17.428Z</time>
      </trkpt>
      <trkpt lat="48.59116" lon="1.99068">
        <ele>115.969</ele>
        <time>2017-10-22T09:54:24.912Z</time>
      </trkpt>
      <trkpt lat="48.59109" lon="1.99076">
        <ele>115.758</ele>
        <time>2017-10-22T09:54:32.630Z</time>
      </trkpt>
      <trkpt lat="48.591" lon="1.99086">
        <ele>115.525</ele>
        <time>2017-10-22T09:54:40.725Z</time>
      </trkpt>
      <trkpt lat="48.59093" lon="1.99095">
        <ele>115.102</ele>
        <time>2017-10-22T09:54:47.431Z</time>
      </trkpt>
      <trkpt lat="48.59085" lon="1.99101">
        <ele>114.541</ele>
        <time>2017-10-22T09:54:54.265Z</time>
      </trkpt>
      <trkpt lat="48.59077" lon="1.99109">
        <ele>114.051</ele>
        <time>2017-10-22T09:55:01.483Z</time>
      </trkpt>
      <trkpt lat="48.5907" lon="1.99118">
        <ele>113.749</ele>
        <time>2017-10-22T09:55:08.999Z</time>
      </trkpt>
      <trkpt lat="48.5907" lon="1.99118">
        <ele>113.606</ele>
        <time>2017-10-22T09:55:14.999Z</time>
      </trkpt>
      <trkpt lat="48.5907" lon="1.99118">
        <ele>113.549</ele>
        <time>2017-10-22T09:55:39.833Z</time>
      </trkpt>
      <trkpt lat="48.59062" lon="1.99126">
        <ele>113.482</ele>
        <time>2017-10-22T09:55:59.249Z</time>
      </trkpt>
      <trkpt lat="48.59054" lon="1.9912">
        <ele>113.412</ele>
        <time>2017-10-22T09:56:08.654Z</time>
      </trkpt>
      <trkpt lat="48.59045" lon="1.99114">
        <ele>113.167</ele>
        <time>2017-10-22T09:56:16.574Z</time>
      </trkpt>
      <trkpt lat="48.59035" lon="1.99109">
        <ele>112.768</ele>
        <time>2017-10-22T09:56:24.205Z</time>
      </trkpt>
      <trkpt lat="48.59026" lon="1.99103">
        <ele>112.395</ele>
        <time>2017-10-22T09:56:32.326Z</time>
      </trkpt>
      <trkpt lat="48.59017" lon="1.99098">
        <ele>112.122</ele>
        <time>2017-10-22T09:56:39.893Z</time>
      </trkpt>
      <trkpt lat="48.59008" lon="1.99093">
        <ele>111.915</ele>
        <time>2017-10-22T09:56:47.955Z</time>
      </trkpt>
      <trkpt lat="48.58999" lon="1.99089">
        <ele>111.771</ele>
        <time>2017-10-22T09:56:55.515Z</time>
      </trkpt>
      <trkpt lat="48.5899" lon="1.99083">
        <ele>111.654</ele>
        <time>2017-10-22T09:57:03.419Z</time>
      </trkpt>
      <trkpt lat="48.58981" lon="1.99078">
        <ele>111.519</ele>
        <time>2017-10-22T09:57:11.895Z</time>
      </trkpt>
      <trkpt lat="48.58972" lon="1.99073">
        <ele>111.353</ele>
        <time>2017-10-22T09:57:20.401Z</time>
      </trkpt>
      <trkpt lat="48.58963" lon="1.99067">
        <ele>111.181</ele>
        <time>2017-10-22T09:57:29.392Z</time>
      </trkpt>
      <trkpt lat="48.58954" lon="1.99062">
        <ele>111.052</ele>
        <time>2017-10-22T09:57:37.929Z</time>
      </trkpt>
      <trkpt lat="48.58945" lon="1.99059">
        <ele>110.994</ele>
        <time>2017-10-22T09:57:47.336Z</time>
      </trkpt>
      <trkpt lat="48.58936" lon="1.99052">
        <ele>111</ele>
        <time>2017-10-22T09:57:56.734Z</time>
      </trkpt>
      <trkpt lat="48.58927" lon="1.99047">
        <ele>111.026</ele>
        <time>2017-10-22T09:58:06.051Z</time>
      </trkpt>
      <trkpt lat="48.58918" lon="1.99041">
        <ele>111.017</ele>
        <time>2017-10-22T09:58:16.183Z</time>
      </trkpt>
      <trkpt lat="48.5891" lon="1.99035">
        <ele>110.977</ele>
        <time>2017-10-22T09:58:26.626Z</time>
      </trkpt>
      <trkpt lat="48.58901" lon="1.99031">
        <ele>110.888</ele>
        <time>2017-10-22T09:58:35.340Z</time>
      </trkpt>
      <trkpt lat="48.58892" lon="1.99024">
        <ele>110.722</ele>
        <time>2017-10-22T09:58:44.368Z</time>
      </trkpt>
      <trkpt lat="48.58884" lon="1.99017">
        <ele>110.593</ele>
        <time>2017-10-22T09:58:53.471Z</time>
      </trkpt>
      <trkpt lat="48.58876" lon="1.99012">
        <ele>110.626</ele>
        <time>2017-10-22T09:59:02.219Z</time>
      </trkpt>
      <trkpt lat="48.58866" lon="1.99007">
        <ele>110.777</ele>
        <time>2017-10-22T09:59:11.679Z</time>
      </trkpt>
      <trkpt lat="48.58858" lon="1.99002">
        <ele>110.931</ele>
        <time>2017-10-22T09:59:20.127Z</time>
      </trkpt>
      <trkpt lat="48.58849" lon="1.98995">
        <ele>111.08</ele>
        <time>2017-10-22T09:59:29.302Z</time>
      </trkpt>
      <trkpt lat="48.5884" lon="1.9899">
        <ele>111.293</ele>
        <time>2017-10-22T09:59:39.295Z</time>
      </trkpt>
      <trkpt lat="48.58831" lon="1.98984">
        <ele>111.552</ele>
        <time>2017-10-22T09:59:48.681Z</time>
      </trkpt>
      <trkpt lat="48.58822" lon="1.98979">
        <ele>111.745</ele>
        <time>2017-10-22T09:59:58.342Z</time>
      </trkpt>
      <trkpt lat="48.58813" lon="1.98974">
        <ele>111.812</ele>
        <time>2017-10-22T10:00:08.462Z</time>
      </trkpt>
      <trkpt lat="48.58804" lon="1.98972">
        <ele>111.798</ele>
        <time>2017-10-22T10:00:18.382Z</time>
      </trkpt>
      <trkpt lat="48.58795" lon="1.98968">
        <ele>111.813</ele>
        <time>2017-10-22T10:00:27.407Z</time>
      </trkpt>
      <trkpt lat="48.58786" lon="1.98961">
        <ele>111.968</ele>
        <time>2017-10-22T10:00:36.204Z</time>
      </trkpt>
      <trkpt lat="48.58778" lon="1.98955">
        <ele>112.306</ele>
        <time>2017-10-22T10:00:44.311Z</time>
      </trkpt>
      <trkpt lat="48.5877" lon="1.9895">
        <ele>112.728</ele>
        <time>2017-10-22T10:00:52.913Z</time>
      </trkpt>
      <trkpt lat="48.58761" lon="1.98945">
        <ele>113.216</ele>
        <time>2017-10-22T10:01:02.605Z</time>
      </trkpt>
      <trkpt lat="48.58753" lon="1.9894">
        <ele>113.816</ele>
        <time>2017-10-22T10:01:13.999Z</time>
      </trkpt>
      <trkpt lat="48.58753" lon="1.9894">
        <ele>114.35</ele>
        <time>2017-10-22T10:01:17.999Z</time>
      </trkpt>
      <trkpt lat="48.58753" lon="1.9894">
        <ele>114.564</ele>
        <time>2017-10-22T10:01:20.272Z</time>
      </trkpt>
      <trkpt lat="48.58735" lon="1.98923">
        <ele>114.487</ele>
        <time>2017-10-22T10:01:53.850Z</time>
      </trkpt>
      <trkpt lat="48.58726" lon="1.98917">
        <ele>114.379</ele>
        <time>2017-10-22T10:02:03.903Z</time>
      </trkpt>
      <trkpt lat="48.58717" lon="1.98912">
        <ele>114.448</ele>
        <time>2017-10-22T10:02:12.951Z</time>
      </trkpt>
      <trkpt lat="48.58708" lon="1.98909">
        <ele>114.63</ele>
        <time>2017-10-22T10:02:20.795Z</time>
      </trkpt>
      <trkpt lat="48.58699" lon="1.98906">
        <ele>114.783</ele>
        <time>2017-10-22T10:02:28.073Z</time>
      </trkpt>
      <trkpt lat="48.5869" lon="1.98901">
        <ele>114.872</ele>
        <time>2017-10-22T10:02:35.207Z</time>
      </trkpt>
      <trkpt lat="48.58681" lon="1.98896">
        <ele>114.921</ele>
        <time>2017-10-22T10:02:43.255Z</time>
      </trkpt>
      <trkpt lat="48.58672" lon="1.98888">
        <ele>114.996</ele>
        <time>2017-10-22T10:02:51.721Z</time>
      </trkpt>
      <trkpt lat="48.58663" lon="1.98881">
        <ele>115.168</ele>
        <time>2017-10-22T10:03:00.046Z</time>
      </trkpt>
      <trkpt lat="48.58653" lon="1.98878">
        <ele>115.386</ele>
        <time>2017-10-22T10:03:08.244Z</time>
      </trkpt>
      <trkpt lat="48.58645" lon="1.98872">
        <ele>115.561</ele>
        <time>2017-10-22T10:03:15.055Z</time>
      </trkpt>
      <trkpt lat="48.58635" lon="1.98869">
        <ele>115.651</ele>
        <time>2017-10-22T10:03:22.210Z</time>
      </trkpt>
      <trkpt lat="48.58627" lon="1.98877">
        <ele>115.672</ele>
        <time>2017-10-22T10:03:30.000Z</time>
      </trkpt>
      <trkpt lat="48.58627" lon="1.98877">
        <ele>115.655</ele>
        <time>2017-10-22T10:03:34.000Z</time>
      </trkpt>
      <trkpt lat="48.58627" lon="1.98877">
        <ele>115.611</ele>
        <time>2017-10-22T10:03:34.100Z</time>
      </trkpt>
      <trkpt lat="48.58617" lon="1.98885">
        <ele>115.56</ele>
        <time>2017-10-22T10:03:49.553Z</time>
      </trkpt>
      <trkpt lat="48.58609" lon="1.98891">
        <ele>115.565</ele>
        <time>2017-10-22T10:03:58.713Z</time>
      </trkpt>
      <trkpt lat="48.586" lon="1.98896">
        <ele>115.732</ele>
        <time>2017-10-22T10:04:07.291Z</time>
      </trkpt>
      <trkpt lat="48.58592" lon="1.98902">
        <ele>116.208</ele>
        <time>2017-10-22T10:04:15.663Z</time>
      </trkpt>
      <trkpt lat="48.58584" lon="1.98909">
        <ele>116.951</ele>
        <time>2017-10-22T10:04:23.919Z</time>
      </trkpt>
      <trkpt lat="48.58576" lon="1.98917">
        <ele>117.642</ele>
        <time>2017-10-22T10:04:32.651Z</time>
      </trkpt>
      <trkpt lat="48.58567" lon="1.98921">
        <ele>118.233</ele>
        <time>2017-10-22T10:04:41.698Z</time>
      </trkpt>
      <trkpt lat="48.58558" lon="1.98921">
        <ele>118.934</ele>
        <time>2017-10-22T10:04:50.039Z</time>
      </trkpt>
      <trkpt lat="48.58552" lon="1.98933">
        <ele>119.761</ele>
        <time>2017-10-22T10:04:58.003Z</time>
      </trkpt>
      <trkpt lat="48.58544" lon="1.98941">
        <ele>120.523</ele>
        <time>2017-10-22T10:05:06.000Z</time>
      </trkpt>
      <trkpt lat="48.58544" lon="1.98941">
        <ele>120.999</ele>
        <time>2017-10-22T10:05:14.000Z</time>
      </trkpt>
      <trkpt lat="48.58544" lon="1.98941">
        <ele>121.099</ele>
        <time>2017-10-22T10:05:14.100Z</time>
      </trkpt>
      <trkpt lat="48.58538" lon="1.98955">
        <ele>121.007</ele>
        <time>2017-10-22T10:05:31.000Z</time>
      </trkpt>
      <trkpt lat="48.58538" lon="1.98955">
        <ele>120.904</ele>
        <time>2017-10-22T10:05:33.000Z</time>
      </trkpt>
      <trkpt lat="48.58538" lon="1.98955">
        <ele>120.854</ele>
        <time>2017-10-22T10:05:37.956Z</time>
      </trkpt>
      <trkpt lat="48.58538" lon="1.9897">
        <ele>120.847</ele>
        <time>2017-10-22T10:05:55.510Z</time>
      </trkpt>
      <trkpt lat="48.58536" lon="1.98985">
        <ele>121.245</ele>
        <time>2017-10-22T10:06:09.681Z</time>
      </trkpt>
      <trkpt lat="48.58532" lon="1.98997">
        <ele>122.558</ele>
        <time>2017-10-22T10:06:27.860Z</time>
      </trkpt>
      <trkpt lat="48.58525" lon="1.99007">
        <ele>124.747</ele>
        <time>2017-10-22T10:06:45.317Z</time>
      </trkpt>
      <trkpt lat="48.58515" lon="1.99014">
        <ele>127.323</ele>
        <time>2017-10-22T10:07:01.869Z</time>
      </trkpt>
      <trkpt lat="48.58506" lon="1.99008">
        <ele>130.042</ele>
        <time>2017-10-22T10:07:13.553Z</time>
      </trkpt>
      <trkpt lat="48.58503" lon="1.98995">
        <ele>132.509</ele>
        <time>2017-10-22T10:07:25.000Z</time>
      </trkpt>
      <trkpt lat="48.58503" lon="1.98995">
        <ele>134.024</ele>
        <time>2017-10-22T10:07:34.000Z</time>
      </trkpt>
      <trkpt lat="48.58503" lon="1.98995">
        <ele>134.413</ele>
        <time>2017-10-22T10:08:51.351Z</time>
      </trkpt>
      <trkpt lat="48.58493" lon="1.98997">
        <ele>133.993</ele>
        <time>2017-10-22T10:09:08.820Z</time>
      </trkpt>
      <trkpt lat="48.58485" lon="1.99003">
        <ele>133.504</ele>
        <time>2017-10-22T10:09:16.999Z</time>
      </trkpt>
      <trkpt lat="48.58485" lon="1.99003">
        <ele>132.553</ele>
        <time>2017-10-22T10:09:20.000Z</time>
      </trkpt>
      <trkpt lat="48.58485" lon="1.99003">
        <ele>131.773</ele>
        <time>2017-10-22T10:09:20.100Z</time>
      </trkpt>
      <trkpt lat="48.58477" lon="1.99007">
        <ele>132.079</ele>
        <time>2017-10-22T10:09:35.505Z</time>
      </trkpt>
      <trkpt lat="48.5847" lon="1.99018">
        <ele>132.348</ele>
        <time>2017-10-22T10:09:45.985Z</time>
      </trkpt>
      <trkpt lat="48.58461" lon="1.99022">
        <ele>132.644</ele>
        <time>2017-10-22T10:09:55.000Z</time>
      </trkpt>
      <trkpt lat="48.58461" lon="1.99022">
        <ele>133.144</ele>
        <time>2017-10-22T10:09:56.000Z</time>
      </trkpt>
      <trkpt lat="48.58461" lon="1.99022">
        <ele>133.517</ele>
        <time>2017-10-22T10:09:59.394Z</time>
      </trkpt>
      <trkpt lat="48.58461" lon="1.99022">
        <ele>133.188</ele>
        <time>2017-10-22T10:10:11.000Z</time>
      </trkpt>
      <trkpt lat="48.58461" lon="1.99022">
        <ele>133.013</ele>
        <time>2017-10-22T10:13:44.968Z</time>
      </trkpt>
      <trkpt lat="48.58467" lon="1.99011">
        <ele>132.991</ele>
        <time>2017-10-22T10:14:08.004Z</time>
      </trkpt>
      <trkpt lat="48.58476" lon="1.99008">
        <ele>133.064</ele>
        <time>2017-10-22T10:14:21.623Z</time>
      </trkpt>
      <trkpt lat="48.58485" lon="1.99004">
        <ele>133.193</ele>
        <time>2017-10-22T10:14:33.138Z</time>
      </trkpt>
      <trkpt lat="48.58495" lon="1.99005">
        <ele>133.188</ele>
        <time>2017-10-22T10:14:42.891Z</time>
      </trkpt>
      <trkpt lat="48.58504" lon="1.99003">
        <ele>132.916</ele>
        <time>2017-10-22T10:14:54.085Z</time>
      </trkpt>
      <trkpt lat="48.58512" lon="1.99012">
        <ele>132.629</ele>
        <time>2017-10-22T10:15:06.353Z</time>
      </trkpt>
      <trkpt lat="48.58522" lon="1.9901">
        <ele>132.565</ele>
        <time>2017-10-22T10:15:19.272Z</time>
      </trkpt>
      <trkpt lat="48.5853" lon="1.99004">
        <ele>132.322</ele>
        <time>2017-10-22T10:15:31.014Z</time>
      </trkpt>
      <trkpt lat="48.58531" lon="1.98989">
        <ele>131.128</ele>
        <time>2017-10-22T10:15:42.527Z</time>
      </trkpt>
      <trkpt lat="48.58531" lon="1.98975">
        <ele>128.796</ele>
        <time>2017-10-22T10:15:53.974Z</time>
      </trkpt>
      <trkpt lat="48.58532" lon="1.98961">
        <ele>125.978</ele>
        <time>2017-10-22T10:16:05.862Z</time>
      </trkpt>
      <trkpt lat="48.58534" lon="1.98947">
        <ele>123.499</ele>
        <time>2017-10-22T10:16:17.000Z</time>
      </trkpt>
      <trkpt lat="48.58534" lon="1.98947">
        <ele>121.909</ele>
        <time>2017-10-22T10:16:25.000Z</time>
      </trkpt>
      <trkpt lat="48.58534" lon="1.98947">
        <ele>121.311</ele>
        <time>2017-10-22T10:16:25.100Z</time>
      </trkpt>
      <trkpt lat="48.58532" lon="1.98934">
        <ele>121.36</ele>
        <time>2017-10-22T10:16:37.302Z</time>
      </trkpt>
      <trkpt lat="48.58531" lon="1.98919">
        <ele>121.344</ele>
        <time>2017-10-22T10:16:47.217Z</time>
      </trkpt>
      <trkpt lat="48.5853" lon="1.98904">
        <ele>120.648</ele>
        <time>2017-10-22T10:16:57.508Z</time>
      </trkpt>
      <trkpt lat="48.58532" lon="1.9889">
        <ele>119.297</ele>
        <time>2017-10-22T10:17:09.022Z</time>
      </trkpt>
      <trkpt lat="48.5853" lon="1.98876">
        <ele>117.808</ele>
        <time>2017-10-22T10:17:20.000Z</time>
      </trkpt>
      <trkpt lat="48.5853" lon="1.98876">
        <ele>116.698</ele>
        <time>2017-10-22T10:17:26.000Z</time>
      </trkpt>
      <trkpt lat="48.5853" lon="1.98876">
        <ele>116.222</ele>
        <time>2017-10-22T10:17:26.100Z</time>
      </trkpt>
      <trkpt lat="48.58526" lon="1.9886">
        <ele>116.238</ele>
        <time>2017-10-22T10:17:34.000Z</time>
      </trkpt>
      <trkpt lat="48.58526" lon="1.9886">
        <ele>116.352</ele>
        <time>2017-10-22T10:17:41.000Z</time>
      </trkpt>
      <trkpt lat="48.58526" lon="1.9886">
        <ele>116.316</ele>
        <time>2017-10-22T10:51:26.779Z</time>
      </trkpt>
      <trkpt lat="48.58516" lon="1.98862">
        <ele>116.193</ele>
        <time>2017-10-22T10:51:47.779Z</time>
      </trkpt>
      <trkpt lat="48.58508" lon="1.98868">
        <ele>115.817</ele>
        <time>2017-10-22T10:51:58.656Z</time>
      </trkpt>
      <trkpt lat="48.58499" lon="1.98872">
        <ele>115.008</ele>
        <time>2017-10-22T10:52:07.690Z</time>
      </trkpt>
      <trkpt lat="48.5849" lon="1.98874">
        <ele>114.147</ele>
        <time>2017-10-22T10:52:16.094Z</time>
      </trkpt>
      <trkpt lat="48.58481" lon="1.9888">
        <ele>113.653</ele>
        <time>2017-10-22T10:52:24.847Z</time>
      </trkpt>
      <trkpt lat="48.58471" lon="1.98884">
        <ele>113.347</ele>
        <time>2017-10-22T10:52:33.139Z</time>
      </trkpt>
      <trkpt lat="48.58462" lon="1.9889">
        <ele>112.9</ele>
        <time>2017-10-22T10:52:42.052Z</time>
      </trkpt>
      <trkpt lat="48.58454" lon="1.98897">
        <ele>112.198</ele>
        <time>2017-10-22T10:52:50.868Z</time>
      </trkpt>
      <trkpt lat="48.58445" lon="1.98902">
        <ele>111.342</ele>
        <time>2017-10-22T10:53:00.699Z</time>
      </trkpt>
      <trkpt lat="48.58437" lon="1.98909">
        <ele>110.559</ele>
        <time>2017-10-22T10:53:12.217Z</time>
      </trkpt>
      <trkpt lat="48.58428" lon="1.98916">
        <ele>110.066</ele>
        <time>2017-10-22T10:53:24.491Z</time>
      </trkpt>
      <trkpt lat="48.58419" lon="1.98917">
        <ele>109.695</ele>
        <time>2017-10-22T10:53:34.502Z</time>
      </trkpt>
      <trkpt lat="48.5841" lon="1.9892">
        <ele>109.185</ele>
        <time>2017-10-22T10:53:44.235Z</time>
      </trkpt>
      <trkpt lat="48.584" lon="1.98923">
        <ele>108.62</ele>
        <time>2017-10-22T10:53:54.138Z</time>
      </trkpt>
      <trkpt lat="48.58391" lon="1.98928">
        <ele>108.074</ele>
        <time>2017-10-22T10:54:03.966Z</time>
      </trkpt>
      <trkpt lat="48.58382" lon="1.98931">
        <ele>107.501</ele>
        <time>2017-10-22T10:54:14.008Z</time>
      </trkpt>
      <trkpt lat="48.58376" lon="1.98942">
        <ele>107.194</ele>
        <time>2017-10-22T10:54:23.314Z</time>
      </trkpt>
      <trkpt lat="48.58372" lon="1.98955">
        <ele>107.419</ele>
        <time>2017-10-22T10:54:33.240Z</time>
      </trkpt>
      <trkpt lat="48.58368" lon="1.98968">
        <ele>107.924</ele>
        <time>2017-10-22T10:54:42.241Z</time>
      </trkpt>
      <trkpt lat="48.58365" lon="1.98981">
        <ele>108.317</ele>
        <time>2017-10-22T10:54:51.400Z</time>
      </trkpt>
      <trkpt lat="48.58361" lon="1.98994">
        <ele>108.498</ele>
        <time>2017-10-22T10:55:00.063Z</time>
      </trkpt>
      <trkpt lat="48.58357" lon="1.99007">
        <ele>108.645</ele>
        <time>2017-10-22T10:55:09.354Z</time>
      </trkpt>
      <trkpt lat="48.58352" lon="1.9902">
        <ele>108.886</ele>
        <time>2017-10-22T10:55:19.043Z</time>
      </trkpt>
      <trkpt lat="48.58349" lon="1.99034">
        <ele>109.118</ele>
        <time>2017-10-22T10:55:28.912Z</time>
      </trkpt>
      <trkpt lat="48.58342" lon="1.99045">
        <ele>109.224</ele>
        <time>2017-10-22T10:55:37.936Z</time>
      </trkpt>
      <trkpt lat="48.58336" lon="1.99054">
        <ele>109.125</ele>
        <time>2017-10-22T10:55:46.042Z</time>
      </trkpt>
      <trkpt lat="48.58329" lon="1.99066">
        <ele>108.811</ele>
        <time>2017-10-22T10:55:54.848Z</time>
      </trkpt>
      <trkpt lat="48.58324" lon="1.99077">
        <ele>108.389</ele>
        <time>2017-10-22T10:56:02.865Z</time>
      </trkpt>
      <trkpt lat="48.58318" lon="1.99087">
        <ele>107.902</ele>
        <time>2017-10-22T10:56:10.942Z</time>
      </trkpt>
      <trkpt lat="48.58311" lon="1.99098">
        <ele>107.382</ele>
        <time>2017-10-22T10:56:20.094Z</time>
      </trkpt>
      <trkpt lat="48.58304" lon="1.99109">
        <ele>106.988</ele>
        <time>2017-10-22T10:56:29.762Z</time>
      </trkpt>
      <trkpt lat="48.58299" lon="1.99121">
        <ele>106.804</ele>
        <time>2017-10-22T10:56:38.915Z</time>
      </trkpt>
      <trkpt lat="48.58294" lon="1.99132">
        <ele>106.723</ele>
        <time>2017-10-22T10:56:48.399Z</time>
      </trkpt>
      <trkpt lat="48.58288" lon="1.99143">
        <ele>106.6</ele>
        <time>2017-10-22T10:56:57.117Z</time>
      </trkpt>
      <trkpt lat="48.58282" lon="1.99154">
        <ele>106.432</ele>
        <time>2017-10-22T10:57:05.634Z</time>
      </trkpt>
      <trkpt lat="48.58277" lon="1.99167">
        <ele>106.195</ele>
        <time>2017-10-22T10:57:14.784Z</time>
      </trkpt>
      <trkpt lat="48.58272" lon="1.99179">
        <ele>105.792</ele>
        <time>2017-10-22T10:57:23.566Z</time>
      </trkpt>
      <trkpt lat="48.58267" lon="1.99192">
        <ele>105.313</ele>
        <time>2017-10-22T10:57:31.945Z</time>
      </trkpt>
      <trkpt lat="48.58263" lon="1.99204">
        <ele>104.968</ele>
        <time>2017-10-22T10:57:39.818Z</time>
      </trkpt>
      <trkpt lat="48.5826" lon="1.99218">
        <ele>104.824</ele>
        <time>2017-10-22T10:57:47.563Z</time>
      </trkpt>
      <trkpt lat="48.58257" lon="1.99232">
        <ele>104.864</ele>
        <time>2017-10-22T10:57:55.715Z</time>
      </trkpt>
      <trkpt lat="48.58255" lon="1.99246">
        <ele>105.034</ele>
        <time>2017-10-22T10:58:03.173Z</time>
      </trkpt>
      <trkpt lat="48.58252" lon="1.9926">
        <ele>105.18</ele>
        <time>2017-10-22T10:58:11.577Z</time>
      </trkpt>
      <trkpt lat="48.58248" lon="1.99272">
        <ele>105.186</ele>
        <time>2017-10-22T10:58:19.484Z</time>
      </trkpt>
      <trkpt lat="48.58244" lon="1.99287">
        <ele>105.042</ele>
        <time>2017-10-22T10:58:27.922Z</time>
      </trkpt>
      <trkpt lat="48.5824" lon="1.99299">
        <ele>104.778</ele>
        <time>2017-10-22T10:58:36.465Z</time>
      </trkpt>
      <trkpt lat="48.58236" lon="1.99312">
        <ele>104.488</ele>
        <time>2017-10-22T10:58:46.469Z</time>
      </trkpt>
      <trkpt lat="48.58232" lon="1.99326">
        <ele>104.28</ele>
        <time>2017-10-22T10:58:56.240Z</time>
      </trkpt>
      <trkpt lat="48.58228" lon="1.99339">
        <ele>104.191</ele>
        <time>2017-10-22T10:59:05.560Z</time>
      </trkpt>
      <trkpt lat="48.58224" lon="1.99352">
        <ele>104.188</ele>
        <time>2017-10-22T10:59:14.568Z</time>
      </trkpt>
      <trkpt lat="48.5822" lon="1.99364">
        <ele>104.125</ele>
        <time>2017-10-22T10:59:23.366Z</time>
      </trkpt>
      <trkpt lat="48.58215" lon="1.99378">
        <ele>103.919</ele>
        <time>2017-10-22T10:59:32.335Z</time>
      </trkpt>
      <trkpt lat="48.5821" lon="1.99389">
        <ele>103.642</ele>
        <time>2017-10-22T10:59:40.337Z</time>
      </trkpt>
      <trkpt lat="48.58206" lon="1.99402">
        <ele>103.285</ele>
        <time>2017-10-22T10:59:49.121Z</time>
      </trkpt>
      <trkpt lat="48.582" lon="1.99414">
        <ele>102.758</ele>
        <time>2017-10-22T10:59:57.890Z</time>
      </trkpt>
      <trkpt lat="48.58196" lon="1.99426">
        <ele>102.157</ele>
        <time>2017-10-22T11:00:06.329Z</time>
      </trkpt>
      <trkpt lat="48.58194" lon="1.99441">
        <ele>101.702</ele>
        <time>2017-10-22T11:00:15.282Z</time>
      </trkpt>
      <trkpt lat="48.58189" lon="1.99454">
        <ele>101.516</ele>
        <time>2017-10-22T11:00:23.572Z</time>
      </trkpt>
      <trkpt lat="48.58182" lon="1.99465">
        <ele>101.546</ele>
        <time>2017-10-22T11:00:31.147Z</time>
      </trkpt>
      <trkpt lat="48.58178" lon="1.99479">
        <ele>101.61</ele>
        <time>2017-10-22T11:00:39.601Z</time>
      </trkpt>
      <trkpt lat="48.58173" lon="1.9949">
        <ele>101.54</ele>
        <time>2017-10-22T11:00:47.956Z</time>
      </trkpt>
      <trkpt lat="48.58168" lon="1.99503">
        <ele>101.348</ele>
        <time>2017-10-22T11:00:56.283Z</time>
      </trkpt>
      <trkpt lat="48.58163" lon="1.99516">
        <ele>101.175</ele>
        <time>2017-10-22T11:01:04.488Z</time>
      </trkpt>
      <trkpt lat="48.58157" lon="1.99527">
        <ele>101.095</ele>
        <time>2017-10-22T11:01:12.516Z</time>
      </trkpt>
      <trkpt lat="48.58153" lon="1.9954">
        <ele>101.074</ele>
        <time>2017-10-22T11:01:21.254Z</time>
      </trkpt>
      <trkpt lat="48.58148" lon="1.99553">
        <ele>101.079</ele>
        <time>2017-10-22T11:01:30.603Z</time>
      </trkpt>
      <trkpt lat="48.58144" lon="1.99566">
        <ele>101.096</ele>
        <time>2017-10-22T11:01:39.774Z</time>
      </trkpt>
      <trkpt lat="48.58139" lon="1.99579">
        <ele>101.095</ele>
        <time>2017-10-22T11:01:48.246Z</time>
      </trkpt>
      <trkpt lat="48.58133" lon="1.99589">
        <ele>101.064</ele>
        <time>2017-10-22T11:01:55.309Z</time>
      </trkpt>
      <trkpt lat="48.58126" lon="1.996">
        <ele>101.037</ele>
        <time>2017-10-22T11:02:03.465Z</time>
      </trkpt>
      <trkpt lat="48.5812" lon="1.99612">
        <ele>101.045</ele>
        <time>2017-10-22T11:02:11.570Z</time>
      </trkpt>
      <trkpt lat="48.58115" lon="1.99624">
        <ele>100.981</ele>
        <time>2017-10-22T11:02:19.276Z</time>
      </trkpt>
      <trkpt lat="48.58109" lon="1.99637">
        <ele>100.74</ele>
        <time>2017-10-22T11:02:27.114Z</time>
      </trkpt>
      <trkpt lat="48.58104" lon="1.99649">
        <ele>100.4</ele>
        <time>2017-10-22T11:02:35.144Z</time>
      </trkpt>
      <trkpt lat="48.58097" lon="1.99659">
        <ele>100.108</ele>
        <time>2017-10-22T11:02:43.792Z</time>
      </trkpt>
      <trkpt lat="48.58091" lon="1.9967">
        <ele>99.955</ele>
        <time>2017-10-22T11:02:52.726Z</time>
      </trkpt>
      <trkpt lat="48.58085" lon="1.99682">
        <ele>99.95</ele>
        <time>2017-10-22T11:03:01.734Z</time>
      </trkpt>
      <trkpt lat="48.5808" lon="1.99693">
        <ele>99.996</ele>
        <time>2017-10-22T11:03:10.501Z</time>
      </trkpt>
      <trkpt lat="48.58073" lon="1.99703">
        <ele>99.982</ele>
        <time>2017-10-22T11:03:19.049Z</time>
      </trkpt>
      <trkpt lat="48.58066" lon="1.99714">
        <ele>99.882</ele>
        <time>2017-10-22T11:03:27.912Z</time>
      </trkpt>
      <trkpt lat="48.58059" lon="1.99725">
        <ele>99.791</ele>
        <time>2017-10-22T11:03:35.226Z</time>
      </trkpt>
      <trkpt lat="48.58054" lon="1.99736">
        <ele>99.805</ele>
        <time>2017-10-22T11:03:42.140Z</time>
      </trkpt>
      <trkpt lat="48.58048" lon="1.99748">
        <ele>99.949</ele>
        <time>2017-10-22T11:03:50.168Z</time>
      </trkpt>
      <trkpt lat="48.58041" lon="1.99759">
        <ele>100.168</ele>
        <time>2017-10-22T11:03:58.751Z</time>
      </trkpt>
      <trkpt lat="48.58036" lon="1.99772">
        <ele>100.237</ele>
        <time>2017-10-22T11:04:07.580Z</time>
      </trkpt>
      <trkpt lat="48.58031" lon="1.99784">
        <ele>100.028</ele>
        <time>2017-10-22T11:04:16.712Z</time>
      </trkpt>
      <trkpt lat="48.58025" lon="1.99796">
        <ele>99.752</ele>
        <time>2017-10-22T11:04:26.963Z</time>
      </trkpt>
      <trkpt lat="48.58019" lon="1.99806">
        <ele>99.655</ele>
        <time>2017-10-22T11:04:35.567Z</time>
      </trkpt>
      <trkpt lat="48.58013" lon="1.99818">
        <ele>99.764</ele>
        <time>2017-10-22T11:04:43.583Z</time>
      </trkpt>
      <trkpt lat="48.58007" lon="1.9983">
        <ele>100.037</ele>
        <time>2017-10-22T11:04:52.159Z</time>
      </trkpt>
      <trkpt lat="48.58004" lon="1.99843">
        <ele>100.376</ele>
        <time>2017-10-22T11:05:00.433Z</time>
      </trkpt>
      <trkpt lat="48.57995" lon="1.99864">
        <ele>100.65</ele>
        <time>2017-10-22T11:05:15.513Z</time>
      </trkpt>
      <trkpt lat="48.5799" lon="1.99877">
        <ele>100.801</ele>
        <time>2017-10-22T11:05:24.028Z</time>
      </trkpt>
      <trkpt lat="48.57986" lon="1.9989">
        <ele>100.86</ele>
        <time>2017-10-22T11:05:33.371Z</time>
      </trkpt>
      <trkpt lat="48.5798" lon="1.99901">
        <ele>100.867</ele>
        <time>2017-10-22T11:05:41.427Z</time>
      </trkpt>
      <trkpt lat="48.57977" lon="1.99914">
        <ele>100.879</ele>
        <time>2017-10-22T11:05:50.175Z</time>
      </trkpt>
      <trkpt lat="48.57972" lon="1.99926">
        <ele>100.958</ele>
        <time>2017-10-22T11:05:59.165Z</time>
      </trkpt>
      <trkpt lat="48.57967" lon="1.99938">
        <ele>101.1</ele>
        <time>2017-10-22T11:06:07.830Z</time>
      </trkpt>
      <trkpt lat="48.57962" lon="1.9995">
        <ele>101.218</ele>
        <time>2017-10-22T11:06:15.292Z</time>
      </trkpt>
      <trkpt lat="48.57958" lon="1.99963">
        <ele>101.246</ele>
        <time>2017-10-22T11:06:22.549Z</time>
      </trkpt>
      <trkpt lat="48.57956" lon="1.99976">
        <ele>101.173</ele>
        <time>2017-10-22T11:06:29.907Z</time>
      </trkpt>
      <trkpt lat="48.57953" lon="1.99991">
        <ele>100.952</ele>
        <time>2017-10-22T11:06:37.223Z</time>
      </trkpt>
      <trkpt lat="48.57952" lon="2.00005">
        <ele>100.589</ele>
        <time>2017-10-22T11:06:44.508Z</time>
      </trkpt>
      <trkpt lat="48.57949" lon="2.00019">
        <ele>100.248</ele>
        <time>2017-10-22T11:06:52.160Z</time>
      </trkpt>
      <trkpt lat="48.57947" lon="2.00034">
        <ele>100.077</ele>
        <time>2017-10-22T11:07:00.103Z</time>
      </trkpt>
      <trkpt lat="48.57949" lon="2.00048">
        <ele>99.958</ele>
        <time>2017-10-22T11:07:07.944Z</time>
      </trkpt>
      <trkpt lat="48.57953" lon="2.00061">
        <ele>99.687</ele>
        <time>2017-10-22T11:07:15.849Z</time>
      </trkpt>
      <trkpt lat="48.5796" lon="2.0007">
        <ele>99.357</ele>
        <time>2017-10-22T11:07:23.672Z</time>
      </trkpt>
      <trkpt lat="48.57965" lon="2.00082">
        <ele>99.223</ele>
        <time>2017-10-22T11:07:31.978Z</time>
      </trkpt>
      <trkpt lat="48.57971" lon="2.00094">
        <ele>99.318</ele>
        <time>2017-10-22T11:07:40.447Z</time>
      </trkpt>
      <trkpt lat="48.57976" lon="2.00105">
        <ele>99.741</ele>
        <time>2017-10-22T11:07:49.864Z</time>
      </trkpt>
      <trkpt lat="48.57981" lon="2.00118">
        <ele>100.623</ele>
        <time>2017-10-22T11:08:00.653Z</time>
      </trkpt>
      <trkpt lat="48.57988" lon="2.00129">
        <ele>101.626</ele>
        <time>2017-10-22T11:08:10.270Z</time>
      </trkpt>
      <trkpt lat="48.57993" lon="2.00141">
        <ele>102.378</ele>
        <time>2017-10-22T11:08:18.247Z</time>
      </trkpt>
      <trkpt lat="48.58" lon="2.00152">
        <ele>103</ele>
        <time>2017-10-22T11:08:26.762Z</time>
      </trkpt>
      <trkpt lat="48.58005" lon="2.00165">
        <ele>103.631</ele>
        <time>2017-10-22T11:08:36.097Z</time>
      </trkpt>
      <trkpt lat="48.58012" lon="2.00176">
        <ele>104.299</ele>
        <time>2017-10-22T11:08:45.163Z</time>
      </trkpt>
      <trkpt lat="48.58017" lon="2.00189">
        <ele>105.041</ele>
        <time>2017-10-22T11:08:54.098Z</time>
      </trkpt>
      <trkpt lat="48.58025" lon="2.00199">
        <ele>105.697</ele>
        <time>2017-10-22T11:09:02.160Z</time>
      </trkpt>
      <trkpt lat="48.58032" lon="2.0021">
        <ele>106.069</ele>
        <time>2017-10-22T11:09:09.654Z</time>
      </trkpt>
      <trkpt lat="48.58037" lon="2.00224">
        <ele>106.302</ele>
        <time>2017-10-22T11:09:17.825Z</time>
      </trkpt>
      <trkpt lat="48.58045" lon="2.00231">
        <ele>106.606</ele>
        <time>2017-10-22T11:09:26.222Z</time>
      </trkpt>
      <trkpt lat="48.58049" lon="2.00244">
        <ele>106.981</ele>
        <time>2017-10-22T11:09:36.021Z</time>
      </trkpt>
      <trkpt lat="48.58056" lon="2.00254">
        <ele>107.443</ele>
        <time>2017-10-22T11:09:45.262Z</time>
      </trkpt>
      <trkpt lat="48.58059" lon="2.00267">
        <ele>108.116</ele>
        <time>2017-10-22T11:09:53.399Z</time>
      </trkpt>
      <trkpt lat="48.58055" lon="2.0028">
        <ele>108.87</ele>
        <time>2017-10-22T11:10:02.049Z</time>
      </trkpt>
      <trkpt lat="48.58062" lon="2.0029">
        <ele>109.475</ele>
        <time>2017-10-22T11:10:10.382Z</time>
      </trkpt>
      <trkpt lat="48.58072" lon="2.00291">
        <ele>110.04</ele>
        <time>2017-10-22T11:10:18.495Z</time>
      </trkpt>
      <trkpt lat="48.58078" lon="2.00301">
        <ele>110.74</ele>
        <time>2017-10-22T11:10:26.433Z</time>
      </trkpt>
      <trkpt lat="48.58085" lon="2.00312">
        <ele>111.444</ele>
        <time>2017-10-22T11:10:32.508Z</time>
      </trkpt>
      <trkpt lat="48.58093" lon="2.00319">
        <ele>111.989</ele>
        <time>2017-10-22T11:10:38.481Z</time>
      </trkpt>
      <trkpt lat="48.58102" lon="2.00324">
        <ele>112.426</ele>
        <time>2017-10-22T11:10:45.620Z</time>
      </trkpt>
      <trkpt lat="48.58104" lon="2.00338">
        <ele>112.838</ele>
        <time>2017-10-22T11:10:53.741Z</time>
      </trkpt>
      <trkpt lat="48.58105" lon="2.00353">
        <ele>113.269</ele>
        <time>2017-10-22T11:11:02.429Z</time>
      </trkpt>
      <trkpt lat="48.58113" lon="2.00363">
        <ele>113.688</ele>
        <time>2017-10-22T11:11:10.062Z</time>
      </trkpt>
      <trkpt lat="48.58121" lon="2.00372">
        <ele>113.969</ele>
        <time>2017-10-22T11:11:15.631Z</time>
      </trkpt>
      <trkpt lat="48.58128" lon="2.00383">
        <ele>114.06</ele>
        <time>2017-10-22T11:11:21.501Z</time>
      </trkpt>
      <trkpt lat="48.58133" lon="2.00394">
        <ele>114.045</ele>
        <time>2017-10-22T11:11:28.028Z</time>
      </trkpt>
      <trkpt lat="48.58142" lon="2.00399">
        <ele>113.925</ele>
        <time>2017-10-22T11:11:34.985Z</time>
      </trkpt>
      <trkpt lat="48.58151" lon="2.00405">
        <ele>113.596</ele>
        <time>2017-10-22T11:11:42.257Z</time>
      </trkpt>
      <trkpt lat="48.58154" lon="2.00419">
        <ele>113.121</ele>
        <time>2017-10-22T11:11:50.452Z</time>
      </trkpt>
      <trkpt lat="48.58163" lon="2.00428">
        <ele>112.742</ele>
        <time>2017-10-22T11:11:58.679Z</time>
      </trkpt>
      <trkpt lat="48.58172" lon="2.00437">
        <ele>112.576</ele>
        <time>2017-10-22T11:12:05.830Z</time>
      </trkpt>
      <trkpt lat="48.58177" lon="2.00449">
        <ele>112.436</ele>
        <time>2017-10-22T11:12:12.886Z</time>
      </trkpt>
      <trkpt lat="48.58184" lon="2.00457">
        <ele>112.09</ele>
        <time>2017-10-22T11:12:20.234Z</time>
      </trkpt>
      <trkpt lat="48.58192" lon="2.00465">
        <ele>111.589</ele>
        <time>2017-10-22T11:12:28.139Z</time>
      </trkpt>
      <trkpt lat="48.582" lon="2.00473">
        <ele>111.104</ele>
        <time>2017-10-22T11:12:36.350Z</time>
      </trkpt>
      <trkpt lat="48.58207" lon="2.00483">
        <ele>110.704</ele>
        <time>2017-10-22T11:12:44.938Z</time>
      </trkpt>
      <trkpt lat="48.58214" lon="2.00492">
        <ele>110.414</ele>
        <time>2017-10-22T11:12:51.150Z</time>
      </trkpt>
      <trkpt lat="48.58222" lon="2.00502">
        <ele>110.221</ele>
        <time>2017-10-22T11:12:58.397Z</time>
      </trkpt>
      <trkpt lat="48.5823" lon="2.0051">
        <ele>110.09</ele>
        <time>2017-10-22T11:13:06.477Z</time>
      </trkpt>
      <trkpt lat="48.58238" lon="2.0052">
        <ele>109.969</ele>
        <time>2017-10-22T11:13:14.640Z</time>
      </trkpt>
      <trkpt lat="48.58245" lon="2.00531">
        <ele>109.806</ele>
        <time>2017-10-22T11:13:20.796Z</time>
      </trkpt>
      <trkpt lat="48.58251" lon="2.00541">
        <ele>109.58</ele>
        <time>2017-10-22T11:13:27.960Z</time>
      </trkpt>
      <trkpt lat="48.58257" lon="2.00553">
        <ele>109.339</ele>
        <time>2017-10-22T11:13:35.998Z</time>
      </trkpt>
      <trkpt lat="48.58266" lon="2.00558">
        <ele>109.103</ele>
        <time>2017-10-22T11:13:44.627Z</time>
      </trkpt>
      <trkpt lat="48.58273" lon="2.00569">
        <ele>108.858</ele>
        <time>2017-10-22T11:13:53.914Z</time>
      </trkpt>
      <trkpt lat="48.58279" lon="2.00581">
        <ele>108.66</ele>
        <time>2017-10-22T11:14:01.433Z</time>
      </trkpt>
      <trkpt lat="48.58286" lon="2.00588">
        <ele>108.569</ele>
        <time>2017-10-22T11:14:07.564Z</time>
      </trkpt>
      <trkpt lat="48.58294" lon="2.00598">
        <ele>108.523</ele>
        <time>2017-10-22T11:14:15.416Z</time>
      </trkpt>
      <trkpt lat="48.58301" lon="2.00607">
        <ele>108.466</ele>
        <time>2017-10-22T11:14:24.444Z</time>
      </trkpt>
      <trkpt lat="48.58307" lon="2.00619">
        <ele>108.408</ele>
        <time>2017-10-22T11:14:36.139Z</time>
      </trkpt>
      <trkpt lat="48.58313" lon="2.0063">
        <ele>108.379</ele>
        <time>2017-10-22T11:14:44.173Z</time>
      </trkpt>
      <trkpt lat="48.58319" lon="2.00641">
        <ele>108.349</ele>
        <time>2017-10-22T11:14:51.338Z</time>
      </trkpt>
      <trkpt lat="48.58326" lon="2.00652">
        <ele>108.256</ele>
        <time>2017-10-22T11:14:59.012Z</time>
      </trkpt>
      <trkpt lat="48.58332" lon="2.00664">
        <ele>108.095</ele>
        <time>2017-10-22T11:15:06.708Z</time>
      </trkpt>
      <trkpt lat="48.58339" lon="2.00675">
        <ele>107.943</ele>
        <time>2017-10-22T11:15:14.187Z</time>
      </trkpt>
      <trkpt lat="48.58348" lon="2.00683">
        <ele>107.764</ele>
        <time>2017-10-22T11:15:21.606Z</time>
      </trkpt>
      <trkpt lat="48.58354" lon="2.00693">
        <ele>107.463</ele>
        <time>2017-10-22T11:15:28.552Z</time>
      </trkpt>
      <trkpt lat="48.58362" lon="2.007">
        <ele>107.091</ele>
        <time>2017-10-22T11:15:35.596Z</time>
      </trkpt>
      <trkpt lat="48.5837" lon="2.00708">
        <ele>106.789</ele>
        <time>2017-10-22T11:15:43.007Z</time>
      </trkpt>
      <trkpt lat="48.58376" lon="2.0072">
        <ele>106.579</ele>
        <time>2017-10-22T11:15:50.656Z</time>
      </trkpt>
      <trkpt lat="48.58382" lon="2.00731">
        <ele>106.377</ele>
        <time>2017-10-22T11:15:58.364Z</time>
      </trkpt>
      <trkpt lat="48.58387" lon="2.00743">
        <ele>106.136</ele>
        <time>2017-10-22T11:16:05.563Z</time>
      </trkpt>
      <trkpt lat="48.58392" lon="2.00755">
        <ele>105.887</ele>
        <time>2017-10-22T11:16:13.460Z</time>
      </trkpt>
      <trkpt lat="48.58399" lon="2.00766">
        <ele>105.659</ele>
        <time>2017-10-22T11:16:21.262Z</time>
      </trkpt>
      <trkpt lat="48.58403" lon="2.00779">
        <ele>105.479</ele>
        <time>2017-10-22T11:16:29.205Z</time>
      </trkpt>
      <trkpt lat="48.5841" lon="2.00789">
        <ele>105.349</ele>
        <time>2017-10-22T11:16:37.006Z</time>
      </trkpt>
      <trkpt lat="48.58416" lon="2.00802">
        <ele>105.259</ele>
        <time>2017-10-22T11:16:45.331Z</time>
      </trkpt>
      <trkpt lat="48.58421" lon="2.00814">
        <ele>105.209</ele>
        <time>2017-10-22T11:16:53.051Z</time>
      </trkpt>
      <trkpt lat="48.58426" lon="2.00826">
        <ele>105.171</ele>
        <time>2017-10-22T11:17:01.161Z</time>
      </trkpt>
      <trkpt lat="48.58428" lon="2.0084">
        <ele>105.098</ele>
        <time>2017-10-22T11:17:10.030Z</time>
      </trkpt>
      <trkpt lat="48.58434" lon="2.00853">
        <ele>104.983</ele>
        <time>2017-10-22T11:17:18.988Z</time>
      </trkpt>
      <trkpt lat="48.58442" lon="2.00861">
        <ele>104.821</ele>
        <time>2017-10-22T11:17:27.007Z</time>
      </trkpt>
      <trkpt lat="48.5845" lon="2.0087">
        <ele>104.614</ele>
        <time>2017-10-22T11:17:34.487Z</time>
      </trkpt>
      <trkpt lat="48.58459" lon="2.00877">
        <ele>104.378</ele>
        <time>2017-10-22T11:17:41.597Z</time>
      </trkpt>
      <trkpt lat="48.58466" lon="2.00888">
        <ele>104.115</ele>
        <time>2017-10-22T11:17:49.180Z</time>
      </trkpt>
      <trkpt lat="48.58474" lon="2.00896">
        <ele>103.828</ele>
        <time>2017-10-22T11:17:56.544Z</time>
      </trkpt>
      <trkpt lat="48.58483" lon="2.00902">
        <ele>103.54</ele>
        <time>2017-10-22T11:18:04.017Z</time>
      </trkpt>
      <trkpt lat="48.58491" lon="2.00912">
        <ele>103.246</ele>
        <time>2017-10-22T11:18:12.906Z</time>
      </trkpt>
      <trkpt lat="48.58498" lon="2.00921">
        <ele>102.912</ele>
        <time>2017-10-22T11:18:19.875Z</time>
      </trkpt>
      <trkpt lat="48.58505" lon="2.00929">
        <ele>102.498</ele>
        <time>2017-10-22T11:18:26.166Z</time>
      </trkpt>
      <trkpt lat="48.58514" lon="2.00937">
        <ele>102.037</ele>
        <time>2017-10-22T11:18:32.686Z</time>
      </trkpt>
      <trkpt lat="48.58522" lon="2.00946">
        <ele>101.648</ele>
        <time>2017-10-22T11:18:39.224Z</time>
      </trkpt>
      <trkpt lat="48.58528" lon="2.00959">
        <ele>101.397</ele>
        <time>2017-10-22T11:18:46.259Z</time>
      </trkpt>
      <trkpt lat="48.58536" lon="2.00964">
        <ele>101.218</ele>
        <time>2017-10-22T11:18:54.005Z</time>
      </trkpt>
      <trkpt lat="48.58543" lon="2.00973">
        <ele>100.987</ele>
        <time>2017-10-22T11:19:02.413Z</time>
      </trkpt>
      <trkpt lat="48.58551" lon="2.00983">
        <ele>100.673</ele>
        <time>2017-10-22T11:19:11.335Z</time>
      </trkpt>
      <trkpt lat="48.58559" lon="2.00991">
        <ele>100.388</ele>
        <time>2017-10-22T11:19:19.229Z</time>
      </trkpt>
      <trkpt lat="48.58568" lon="2.00998">
        <ele>100.221</ele>
        <time>2017-10-22T11:19:27.423Z</time>
      </trkpt>
      <trkpt lat="48.58575" lon="2.01006">
        <ele>100.142</ele>
        <time>2017-10-22T11:19:34.862Z</time>
      </trkpt>
      <trkpt lat="48.58583" lon="2.01016">
        <ele>100.009</ele>
        <time>2017-10-22T11:19:42.886Z</time>
      </trkpt>
      <trkpt lat="48.5859" lon="2.01024">
        <ele>99.741</ele>
        <time>2017-10-22T11:19:50.284Z</time>
      </trkpt>
      <trkpt lat="48.58598" lon="2.01031">
        <ele>99.445</ele>
        <time>2017-10-22T11:19:57.758Z</time>
      </trkpt>
      <trkpt lat="48.58606" lon="2.01038">
        <ele>99.194</ele>
        <time>2017-10-22T11:20:05.394Z</time>
      </trkpt>
      <trkpt lat="48.58613" lon="2.01048">
        <ele>98.955</ele>
        <time>2017-10-22T11:20:13.650Z</time>
      </trkpt>
      <trkpt lat="48.5862" lon="2.01058">
        <ele>98.678</ele>
        <time>2017-10-22T11:20:23.410Z</time>
      </trkpt>
      <trkpt lat="48.58627" lon="2.01068">
        <ele>98.285</ele>
        <time>2017-10-22T11:20:34.035Z</time>
      </trkpt>
      <trkpt lat="48.58633" lon="2.0108">
        <ele>97.819</ele>
        <time>2017-10-22T11:20:43.950Z</time>
      </trkpt>
      <trkpt lat="48.58641" lon="2.01088">
        <ele>97.404</ele>
        <time>2017-10-22T11:20:51.732Z</time>
      </trkpt>
      <trkpt lat="48.5865" lon="2.01095">
        <ele>97.061</ele>
        <time>2017-10-22T11:20:59.778Z</time>
      </trkpt>
      <trkpt lat="48.58659" lon="2.011">
        <ele>96.77</ele>
        <time>2017-10-22T11:21:07.156Z</time>
      </trkpt>
      <trkpt lat="48.58668" lon="2.01106">
        <ele>96.536</ele>
        <time>2017-10-22T11:21:14.674Z</time>
      </trkpt>
      <trkpt lat="48.58676" lon="2.01113">
        <ele>96.33</ele>
        <time>2017-10-22T11:21:21.690Z</time>
      </trkpt>
      <trkpt lat="48.58685" lon="2.01119">
        <ele>96.131</ele>
        <time>2017-10-22T11:21:29.369Z</time>
      </trkpt>
      <trkpt lat="48.58693" lon="2.01129">
        <ele>95.933</ele>
        <time>2017-10-22T11:21:37.401Z</time>
      </trkpt>
      <trkpt lat="48.587" lon="2.01138">
        <ele>95.728</ele>
        <time>2017-10-22T11:21:44.599Z</time>
      </trkpt>
      <trkpt lat="48.58707" lon="2.01148">
        <ele>95.55</ele>
        <time>2017-10-22T11:21:52.333Z</time>
      </trkpt>
      <trkpt lat="48.58716" lon="2.01157">
        <ele>95.423</ele>
        <time>2017-10-22T11:22:00.438Z</time>
      </trkpt>
      <trkpt lat="48.58724" lon="2.01163">
        <ele>95.284</ele>
        <time>2017-10-22T11:22:08.014Z</time>
      </trkpt>
      <trkpt lat="48.58733" lon="2.01168">
        <ele>95.097</ele>
        <time>2017-10-22T11:22:16.241Z</time>
      </trkpt>
      <trkpt lat="48.58741" lon="2.01175">
        <ele>94.849</ele>
        <time>2017-10-22T11:22:24.092Z</time>
      </trkpt>
      <trkpt lat="48.58749" lon="2.01182">
        <ele>94.551</ele>
        <time>2017-10-22T11:22:32.141Z</time>
      </trkpt>
      <trkpt lat="48.58757" lon="2.0119">
        <ele>94.22</ele>
        <time>2017-10-22T11:22:41.279Z</time>
      </trkpt>
      <trkpt lat="48.58766" lon="2.01196">
        <ele>93.859</ele>
        <time>2017-10-22T11:22:50.157Z</time>
      </trkpt>
      <trkpt lat="48.58775" lon="2.01203">
        <ele>93.54</ele>
        <time>2017-10-22T11:22:58.371Z</time>
      </trkpt>
      <trkpt lat="48.58784" lon="2.01207">
        <ele>93.347</ele>
        <time>2017-10-22T11:23:06.007Z</time>
      </trkpt>
      <trkpt lat="48.58792" lon="2.01214">
        <ele>93.181</ele>
        <time>2017-10-22T11:23:13.834Z</time>
      </trkpt>
      <trkpt lat="48.58801" lon="2.0122">
        <ele>92.948</ele>
        <time>2017-10-22T11:23:21.914Z</time>
      </trkpt>
      <trkpt lat="48.58809" lon="2.01227">
        <ele>92.319</ele>
        <time>2017-10-22T11:23:29.294Z</time>
      </trkpt>
      <trkpt lat="48.58818" lon="2.01233">
        <ele>90.987</ele>
        <time>2017-10-22T11:23:37.089Z</time>
      </trkpt>
      <trkpt lat="48.58827" lon="2.01239">
        <ele>89.47</ele>
        <time>2017-10-22T11:23:44.876Z</time>
      </trkpt>
      <trkpt lat="48.58836" lon="2.01245">
        <ele>88.474</ele>
        <time>2017-10-22T11:23:53.446Z</time>
      </trkpt>
      <trkpt lat="48.58844" lon="2.01251">
        <ele>87.996</ele>
        <time>2017-10-22T11:24:01.719Z</time>
      </trkpt>
      <trkpt lat="48.58853" lon="2.01258">
        <ele>87.766</ele>
        <time>2017-10-22T11:24:10.354Z</time>
      </trkpt>
      <trkpt lat="48.58861" lon="2.01264">
        <ele>87.594</ele>
        <time>2017-10-22T11:24:19.100Z</time>
      </trkpt>
      <trkpt lat="48.5887" lon="2.01271">
        <ele>87.347</ele>
        <time>2017-10-22T11:24:27.661Z</time>
      </trkpt>
      <trkpt lat="48.58878" lon="2.01278">
        <ele>86.985</ele>
        <time>2017-10-22T11:24:35.453Z</time>
      </trkpt>
      <trkpt lat="48.58887" lon="2.01284">
        <ele>86.594</ele>
        <time>2017-10-22T11:24:43.728Z</time>
      </trkpt>
      <trkpt lat="48.58896" lon="2.01291">
        <ele>86.239</ele>
        <time>2017-10-22T11:24:51.538Z</time>
      </trkpt>
      <trkpt lat="48.58904" lon="2.01297">
        <ele>85.868</ele>
        <time>2017-10-22T11:24:59.479Z</time>
      </trkpt>
      <trkpt lat="48.58912" lon="2.01303">
        <ele>85.516</ele>
        <time>2017-10-22T11:25:07.108Z</time>
      </trkpt>
      <trkpt lat="48.58921" lon="2.0131">
        <ele>85.293</ele>
        <time>2017-10-22T11:25:14.637Z</time>
      </trkpt>
      <trkpt lat="48.58929" lon="2.01317">
        <ele>85.235</ele>
        <time>2017-10-22T11:25:21.679Z</time>
      </trkpt>
      <trkpt lat="48.58938" lon="2.01322">
        <ele>85.282</ele>
        <time>2017-10-22T11:25:28.847Z</time>
      </trkpt>
      <trkpt lat="48.58947" lon="2.01327">
        <ele>85.311</ele>
        <time>2017-10-22T11:25:35.658Z</time>
      </trkpt>
      <trkpt lat="48.58955" lon="2.01333">
        <ele>85.247</ele>
        <time>2017-10-22T11:25:42.711Z</time>
      </trkpt>
      <trkpt lat="48.58965" lon="2.01339">
        <ele>85.119</ele>
        <time>2017-10-22T11:25:50.408Z</time>
      </trkpt>
      <trkpt lat="48.58973" lon="2.01346">
        <ele>84.919</ele>
        <time>2017-10-22T11:25:57.687Z</time>
      </trkpt>
      <trkpt lat="48.58982" lon="2.01352">
        <ele>84.65</ele>
        <time>2017-10-22T11:26:04.529Z</time>
      </trkpt>
      <trkpt lat="48.5899" lon="2.01357">
        <ele>84.431</ele>
        <time>2017-10-22T11:26:10.829Z</time>
      </trkpt>
      <trkpt lat="48.59" lon="2.01361">
        <ele>84.339</ele>
        <time>2017-10-22T11:26:18.030Z</time>
      </trkpt>
      <trkpt lat="48.59008" lon="2.0137">
        <ele>84.326</ele>
        <time>2017-10-22T11:26:25.399Z</time>
      </trkpt>
      <trkpt lat="48.59004" lon="2.01382">
        <ele>84.28</ele>
        <time>2017-10-22T11:26:34.000Z</time>
      </trkpt>
      <trkpt lat="48.59004" lon="2.01382">
        <ele>84.156</ele>
        <time>2017-10-22T11:26:37.000Z</time>
      </trkpt>
      <trkpt lat="48.59004" lon="2.01382">
        <ele>84.039</ele>
        <time>2017-10-22T11:26:48.228Z</time>
      </trkpt>
      <trkpt lat="48.59005" lon="2.01406">
        <ele>84.006</ele>
        <time>2017-10-22T11:27:18.030Z</time>
      </trkpt>
      <trkpt lat="48.59008" lon="2.0142">
        <ele>84.025</ele>
        <time>2017-10-22T11:27:29.236Z</time>
      </trkpt>
      <trkpt lat="48.59013" lon="2.01432">
        <ele>84.061</ele>
        <time>2017-10-22T11:27:38.960Z</time>
      </trkpt>
      <trkpt lat="48.59014" lon="2.01446">
        <ele>84.121</ele>
        <time>2017-10-22T11:27:49.106Z</time>
      </trkpt>
      <trkpt lat="48.59015" lon="2.0146">
        <ele>84.198</ele>
        <time>2017-10-22T11:27:59.507Z</time>
      </trkpt>
      <trkpt lat="48.59017" lon="2.01475">
        <ele>84.279</ele>
        <time>2017-10-22T11:28:09.337Z</time>
      </trkpt>
      <trkpt lat="48.59019" lon="2.01489">
        <ele>84.364</ele>
        <time>2017-10-22T11:28:18.191Z</time>
      </trkpt>
      <trkpt lat="48.59023" lon="2.01501">
        <ele>84.589</ele>
        <time>2017-10-22T11:28:27.013Z</time>
      </trkpt>
      <trkpt lat="48.59028" lon="2.01513">
        <ele>85.161</ele>
        <time>2017-10-22T11:28:35.763Z</time>
      </trkpt>
      <trkpt lat="48.59034" lon="2.01525">
        <ele>85.951</ele>
        <time>2017-10-22T11:28:44.566Z</time>
      </trkpt>
      <trkpt lat="48.59039" lon="2.01536">
        <ele>86.641</ele>
        <time>2017-10-22T11:28:53.450Z</time>
      </trkpt>
      <trkpt lat="48.59045" lon="2.01548">
        <ele>87.199</ele>
        <time>2017-10-22T11:29:02.340Z</time>
      </trkpt>
      <trkpt lat="48.5905" lon="2.0156">
        <ele>87.775</ele>
        <time>2017-10-22T11:29:11.423Z</time>
      </trkpt>
      <trkpt lat="48.59056" lon="2.01572">
        <ele>88.447</ele>
        <time>2017-10-22T11:29:21.073Z</time>
      </trkpt>
      <trkpt lat="48.59062" lon="2.01583">
        <ele>89.212</ele>
        <time>2017-10-22T11:29:30.111Z</time>
      </trkpt>
      <trkpt lat="48.59071" lon="2.01589">
        <ele>90.07</ele>
        <time>2017-10-22T11:29:39.127Z</time>
      </trkpt>
      <trkpt lat="48.5908" lon="2.0159">
        <ele>90.927</ele>
        <time>2017-10-22T11:29:47.950Z</time>
      </trkpt>
      <trkpt lat="48.59089" lon="2.01585">
        <ele>91.595</ele>
        <time>2017-10-22T11:29:56.820Z</time>
      </trkpt>
      <trkpt lat="48.59097" lon="2.0158">
        <ele>91.993</ele>
        <time>2017-10-22T11:30:05.388Z</time>
      </trkpt>
      <trkpt lat="48.59106" lon="2.01576">
        <ele>92.196</ele>
        <time>2017-10-22T11:30:14.461Z</time>
      </trkpt>
      <trkpt lat="48.59116" lon="2.01571">
        <ele>92.304</ele>
        <time>2017-10-22T11:30:23.167Z</time>
      </trkpt>
      <trkpt lat="48.59124" lon="2.01565">
        <ele>92.403</ele>
        <time>2017-10-22T11:30:31.997Z</time>
      </trkpt>
      <trkpt lat="48.59134" lon="2.01559">
        <ele>92.547</ele>
        <time>2017-10-22T11:30:40.928Z</time>
      </trkpt>
      <trkpt lat="48.59143" lon="2.01554">
        <ele>92.743</ele>
        <time>2017-10-22T11:30:49.842Z</time>
      </trkpt>
      <trkpt lat="48.59152" lon="2.01548">
        <ele>92.927</ele>
        <time>2017-10-22T11:30:58.628Z</time>
      </trkpt>
      <trkpt lat="48.59161" lon="2.01542">
        <ele>92.996</ele>
        <time>2017-10-22T11:31:07.505Z</time>
      </trkpt>
      <trkpt lat="48.59169" lon="2.01535">
        <ele>92.877</ele>
        <time>2017-10-22T11:31:15.790Z</time>
      </trkpt>
      <trkpt lat="48.59178" lon="2.0153">
        <ele>92.634</ele>
        <time>2017-10-22T11:31:24.320Z</time>
      </trkpt>
      <trkpt lat="48.59187" lon="2.01529">
        <ele>92.472</ele>
        <time>2017-10-22T11:31:32.570Z</time>
      </trkpt>
      <trkpt lat="48.59196" lon="2.01536">
        <ele>92.515</ele>
        <time>2017-10-22T11:31:41.127Z</time>
      </trkpt>
      <trkpt lat="48.59204" lon="2.01543">
        <ele>92.713</ele>
        <time>2017-10-22T11:31:49.434Z</time>
      </trkpt>
      <trkpt lat="48.59211" lon="2.01551">
        <ele>92.998</ele>
        <time>2017-10-22T11:31:57.735Z</time>
      </trkpt>
      <trkpt lat="48.59219" lon="2.01559">
        <ele>93.333</ele>
        <time>2017-10-22T11:32:06.914Z</time>
      </trkpt>
      <trkpt lat="48.59226" lon="2.01568">
        <ele>93.677</ele>
        <time>2017-10-22T11:32:15.677Z</time>
      </trkpt>
      <trkpt lat="48.59235" lon="2.01571">
        <ele>93.969</ele>
        <time>2017-10-22T11:32:24.843Z</time>
      </trkpt>
      <trkpt lat="48.59245" lon="2.01569">
        <ele>94.183</ele>
        <time>2017-10-22T11:32:34.283Z</time>
      </trkpt>
      <trkpt lat="48.59255" lon="2.01566">
        <ele>94.35</ele>
        <time>2017-10-22T11:32:43.289Z</time>
      </trkpt>
      <trkpt lat="48.59265" lon="2.01564">
        <ele>94.5</ele>
        <time>2017-10-22T11:32:52.030Z</time>
      </trkpt>
      <trkpt lat="48.59274" lon="2.01561">
        <ele>94.612</ele>
        <time>2017-10-22T11:33:00.199Z</time>
      </trkpt>
      <trkpt lat="48.59284" lon="2.01559">
        <ele>94.673</ele>
        <time>2017-10-22T11:33:08.028Z</time>
      </trkpt>
      <trkpt lat="48.59293" lon="2.01556">
        <ele>94.693</ele>
        <time>2017-10-22T11:33:15.961Z</time>
      </trkpt>
      <trkpt lat="48.59302" lon="2.0155">
        <ele>94.725</ele>
        <time>2017-10-22T11:33:23.758Z</time>
      </trkpt>
      <trkpt lat="48.5931" lon="2.01544">
        <ele>94.796</ele>
        <time>2017-10-22T11:33:31.684Z</time>
      </trkpt>
      <trkpt lat="48.59319" lon="2.01539">
        <ele>94.844</ele>
        <time>2017-10-22T11:33:38.968Z</time>
      </trkpt>
      <trkpt lat="48.59327" lon="2.01533">
        <ele>94.821</ele>
        <time>2017-10-22T11:33:46.583Z</time>
      </trkpt>
      <trkpt lat="48.59336" lon="2.01527">
        <ele>94.891</ele>
        <time>2017-10-22T11:33:54.212Z</time>
      </trkpt>
      <trkpt lat="48.59344" lon="2.01519">
        <ele>95.171</ele>
        <time>2017-10-22T11:34:02.263Z</time>
      </trkpt>
      <trkpt lat="48.5935" lon="2.01507">
        <ele>95.482</ele>
        <time>2017-10-22T11:34:10.415Z</time>
      </trkpt>
      <trkpt lat="48.59358" lon="2.01498">
        <ele>95.602</ele>
        <time>2017-10-22T11:34:18.787Z</time>
      </trkpt>
      <trkpt lat="48.59367" lon="2.01491">
        <ele>95.543</ele>
        <time>2017-10-22T11:34:27.406Z</time>
      </trkpt>
      <trkpt lat="48.59375" lon="2.01483">
        <ele>95.407</ele>
        <time>2017-10-22T11:34:35.920Z</time>
      </trkpt>
      <trkpt lat="48.59383" lon="2.01477">
        <ele>95.271</ele>
        <time>2017-10-22T11:34:44.251Z</time>
      </trkpt>
      <trkpt lat="48.59391" lon="2.0147">
        <ele>95.175</ele>
        <time>2017-10-22T11:34:52.420Z</time>
      </trkpt>
      <trkpt lat="48.594" lon="2.01464">
        <ele>95.154</ele>
        <time>2017-10-22T11:35:00.872Z</time>
      </trkpt>
      <trkpt lat="48.59408" lon="2.01456">
        <ele>95.183</ele>
        <time>2017-10-22T11:35:09.606Z</time>
      </trkpt>
      <trkpt lat="48.59415" lon="2.01448">
        <ele>95.224</ele>
        <time>2017-10-22T11:35:17.438Z</time>
      </trkpt>
      <trkpt lat="48.59423" lon="2.01439">
        <ele>95.276</ele>
        <time>2017-10-22T11:35:25.727Z</time>
      </trkpt>
      <trkpt lat="48.59429" lon="2.01426">
        <ele>95.334</ele>
        <time>2017-10-22T11:35:34.284Z</time>
      </trkpt>
      <trkpt lat="48.59435" lon="2.01413">
        <ele>95.374</ele>
        <time>2017-10-22T11:35:41.488Z</time>
      </trkpt>
      <trkpt lat="48.59442" lon="2.01405">
        <ele>95.436</ele>
        <time>2017-10-22T11:35:47.758Z</time>
      </trkpt>
      <trkpt lat="48.5945" lon="2.01398">
        <ele>95.602</ele>
        <time>2017-10-22T11:35:54.960Z</time>
      </trkpt>
      <trkpt lat="48.59457" lon="2.0139">
        <ele>95.866</ele>
        <time>2017-10-22T11:36:02.896Z</time>
      </trkpt>
      <trkpt lat="48.59466" lon="2.01383">
        <ele>96.12</ele>
        <time>2017-10-22T11:36:12.299Z</time>
      </trkpt>
      <trkpt lat="48.59472" lon="2.01371">
        <ele>96.334</ele>
        <time>2017-10-22T11:36:22.127Z</time>
      </trkpt>
      <trkpt lat="48.59479" lon="2.01362">
        <ele>96.545</ele>
        <time>2017-10-22T11:36:29.834Z</time>
      </trkpt>
      <trkpt lat="48.59487" lon="2.01353">
        <ele>96.676</ele>
        <time>2017-10-22T11:36:37.458Z</time>
      </trkpt>
      <trkpt lat="48.59494" lon="2.01343">
        <ele>96.655</ele>
        <time>2017-10-22T11:36:45.728Z</time>
      </trkpt>
      <trkpt lat="48.59503" lon="2.01337">
        <ele>96.569</ele>
        <time>2017-10-22T11:36:54.603Z</time>
      </trkpt>
      <trkpt lat="48.59511" lon="2.01328">
        <ele>96.485</ele>
        <time>2017-10-22T11:37:04.214Z</time>
      </trkpt>
      <trkpt lat="48.59519" lon="2.0132">
        <ele>96.398</ele>
        <time>2017-10-22T11:37:13.115Z</time>
      </trkpt>
      <trkpt lat="48.59527" lon="2.01312">
        <ele>96.363</ele>
        <time>2017-10-22T11:37:21.355Z</time>
      </trkpt>
      <trkpt lat="48.59535" lon="2.01305">
        <ele>96.448</ele>
        <time>2017-10-22T11:37:28.719Z</time>
      </trkpt>
      <trkpt lat="48.59543" lon="2.01298">
        <ele>96.601</ele>
        <time>2017-10-22T11:37:36.478Z</time>
      </trkpt>
      <trkpt lat="48.59551" lon="2.0129">
        <ele>96.716</ele>
        <time>2017-10-22T11:37:43.902Z</time>
      </trkpt>
      <trkpt lat="48.5956" lon="2.01285">
        <ele>96.71</ele>
        <time>2017-10-22T11:37:52.557Z</time>
      </trkpt>
      <trkpt lat="48.5957" lon="2.01285">
        <ele>96.48</ele>
        <time>2017-10-22T11:38:01.544Z</time>
      </trkpt>
      <trkpt lat="48.5958" lon="2.01283">
        <ele>96.071</ele>
        <time>2017-10-22T11:38:09.676Z</time>
      </trkpt>
      <trkpt lat="48.59589" lon="2.01281">
        <ele>95.7</ele>
        <time>2017-10-22T11:38:17.729Z</time>
      </trkpt>
      <trkpt lat="48.59598" lon="2.01277">
        <ele>95.444</ele>
        <time>2017-10-22T11:38:25.381Z</time>
      </trkpt>
      <trkpt lat="48.59606" lon="2.01272">
        <ele>95.144</ele>
        <time>2017-10-22T11:38:33.529Z</time>
      </trkpt>
      <trkpt lat="48.59615" lon="2.01266">
        <ele>94.756</ele>
        <time>2017-10-22T11:38:41.659Z</time>
      </trkpt>
      <trkpt lat="48.59624" lon="2.01258">
        <ele>94.367</ele>
        <time>2017-10-22T11:38:49.521Z</time>
      </trkpt>
      <trkpt lat="48.59631" lon="2.01249">
        <ele>94.041</ele>
        <time>2017-10-22T11:38:57.310Z</time>
      </trkpt>
      <trkpt lat="48.5964" lon="2.01245">
        <ele>94.001</ele>
        <time>2017-10-22T11:39:05.000Z</time>
      </trkpt>
      <trkpt lat="48.5964" lon="2.01245">
        <ele>94.379</ele>
        <time>2017-10-22T11:39:10.000Z</time>
      </trkpt>
      <trkpt lat="48.5964" lon="2.01245">
        <ele>94.737</ele>
        <time>2017-10-22T11:39:14.153Z</time>
      </trkpt>
      <trkpt lat="48.59648" lon="2.01252">
        <ele>94.683</ele>
        <time>2017-10-22T11:39:26.000Z</time>
      </trkpt>
      <trkpt lat="48.59648" lon="2.01252">
        <ele>94.418</ele>
        <time>2017-10-22T11:39:28.000Z</time>
      </trkpt>
      <trkpt lat="48.59648" lon="2.01252">
        <ele>94.254</ele>
        <time>2017-10-22T11:39:33.324Z</time>
      </trkpt>
      <trkpt lat="48.59663" lon="2.0126">
        <ele>94.268</ele>
        <time>2017-10-22T11:39:55.477Z</time>
      </trkpt>
      <trkpt lat="48.5967" lon="2.01269">
        <ele>94.462</ele>
        <time>2017-10-22T11:40:04.936Z</time>
      </trkpt>
      <trkpt lat="48.59679" lon="2.01272">
        <ele>94.782</ele>
        <time>2017-10-22T11:40:14.000Z</time>
      </trkpt>
      <trkpt lat="48.59679" lon="2.01272">
        <ele>95.07</ele>
        <time>2017-10-22T11:40:15.000Z</time>
      </trkpt>
      <trkpt lat="48.59679" lon="2.01272">
        <ele>95.186</ele>
        <time>2017-10-22T11:40:18.773Z</time>
      </trkpt>
      <trkpt lat="48.59688" lon="2.01275">
        <ele>95.025</ele>
        <time>2017-10-22T11:40:30.000Z</time>
      </trkpt>
      <trkpt lat="48.59688" lon="2.01275">
        <ele>94.96</ele>
        <time>2017-10-22T11:40:34.000Z</time>
      </trkpt>
      <trkpt lat="48.59688" lon="2.01275">
        <ele>94.936</ele>
        <time>2017-10-22T11:40:34.100Z</time>
      </trkpt>
      <trkpt lat="48.59697" lon="2.01277">
        <ele>94.884</ele>
        <time>2017-10-22T11:40:48.000Z</time>
      </trkpt>
      <trkpt lat="48.59697" lon="2.01277">
        <ele>94.857</ele>
        <time>2017-10-22T11:40:55.000Z</time>
      </trkpt>
      <trkpt lat="48.59697" lon="2.01277">
        <ele>94.836</ele>
        <time>2017-10-22T11:47:09.815Z</time>
      </trkpt>
      <trkpt lat="48.59712" lon="2.01291">
        <ele>94.808</ele>
        <time>2017-10-22T11:47:54.660Z</time>
      </trkpt>
      <trkpt lat="48.59722" lon="2.01294">
        <ele>95.662</ele>
        <time>2017-10-22T11:48:05.094Z</time>
      </trkpt>
      <trkpt lat="48.5973" lon="2.013">
        <ele>98.081</ele>
        <time>2017-10-22T11:48:13.212Z</time>
      </trkpt>
      <trkpt lat="48.5974" lon="2.01305">
        <ele>100.802</ele>
        <time>2017-10-22T11:48:21.559Z</time>
      </trkpt>
      <trkpt lat="48.59749" lon="2.01308">
        <ele>102.491</ele>
        <time>2017-10-22T11:48:29.584Z</time>
      </trkpt>
      <trkpt lat="48.59759" lon="2.01312">
        <ele>103.415</ele>
        <time>2017-10-22T11:48:37.158Z</time>
      </trkpt>
      <trkpt lat="48.59769" lon="2.01315">
        <ele>104.008</ele>
        <time>2017-10-22T11:48:44.926Z</time>
      </trkpt>
      <trkpt lat="48.59779" lon="2.01318">
        <ele>104.337</ele>
        <time>2017-10-22T11:48:54.676Z</time>
      </trkpt>
      <trkpt lat="48.59788" lon="2.01321">
        <ele>104.446</ele>
        <time>2017-10-22T11:49:04.800Z</time>
      </trkpt>
      <trkpt lat="48.59797" lon="2.01325">
        <ele>104.476</ele>
        <time>2017-10-22T11:49:13.836Z</time>
      </trkpt>
      <trkpt lat="48.59806" lon="2.01332">
        <ele>104.569</ele>
        <time>2017-10-22T11:49:21.843Z</time>
      </trkpt>
      <trkpt lat="48.59814" lon="2.01339">
        <ele>104.737</ele>
        <time>2017-10-22T11:49:29.335Z</time>
      </trkpt>
      <trkpt lat="48.59822" lon="2.01348">
        <ele>104.908</ele>
        <time>2017-10-22T11:49:37.612Z</time>
      </trkpt>
      <trkpt lat="48.59831" lon="2.01355">
        <ele>105.085</ele>
        <time>2017-10-22T11:49:45.500Z</time>
      </trkpt>
      <trkpt lat="48.5984" lon="2.01358">
        <ele>105.318</ele>
        <time>2017-10-22T11:49:53.686Z</time>
      </trkpt>
      <trkpt lat="48.59849" lon="2.01355">
        <ele>105.658</ele>
        <time>2017-10-22T11:50:02.482Z</time>
      </trkpt>
      <trkpt lat="48.59859" lon="2.01355">
        <ele>106.122</ele>
        <time>2017-10-22T11:50:11.111Z</time>
      </trkpt>
      <trkpt lat="48.59869" lon="2.01352">
        <ele>106.638</ele>
        <time>2017-10-22T11:50:18.983Z</time>
      </trkpt>
      <trkpt lat="48.59879" lon="2.01351">
        <ele>107.091</ele>
        <time>2017-10-22T11:50:26.310Z</time>
      </trkpt>
      <trkpt lat="48.59889" lon="2.01354">
        <ele>107.389</ele>
        <time>2017-10-22T11:50:33.337Z</time>
      </trkpt>
      <trkpt lat="48.59898" lon="2.01356">
        <ele>107.506</ele>
        <time>2017-10-22T11:50:40.216Z</time>
      </trkpt>
      <trkpt lat="48.59907" lon="2.01356">
        <ele>107.5</ele>
        <time>2017-10-22T11:50:47.905Z</time>
      </trkpt>
      <trkpt lat="48.59916" lon="2.01358">
        <ele>107.438</ele>
        <time>2017-10-22T11:50:55.632Z</time>
      </trkpt>
      <trkpt lat="48.59925" lon="2.01362">
        <ele>107.367</ele>
        <time>2017-10-22T11:51:03.644Z</time>
      </trkpt>
      <trkpt lat="48.59935" lon="2.01361">
        <ele>107.309</ele>
        <time>2017-10-22T11:51:11.727Z</time>
      </trkpt>
      <trkpt lat="48.59943" lon="2.01368">
        <ele>107.318</ele>
        <time>2017-10-22T11:51:19.885Z</time>
      </trkpt>
      <trkpt lat="48.59951" lon="2.01375">
        <ele>107.435</ele>
        <time>2017-10-22T11:51:28.110Z</time>
      </trkpt>
      <trkpt lat="48.59961" lon="2.01378">
        <ele>107.744</ele>
        <time>2017-10-22T11:51:36.713Z</time>
      </trkpt>
      <trkpt lat="48.59969" lon="2.01384">
        <ele>108.252</ele>
        <time>2017-10-22T11:51:45.643Z</time>
      </trkpt>
      <trkpt lat="48.59979" lon="2.01385">
        <ele>108.72</ele>
        <time>2017-10-22T11:51:54.101Z</time>
      </trkpt>
      <trkpt lat="48.59988" lon="2.01388">
        <ele>108.932</ele>
        <time>2017-10-22T11:52:01.840Z</time>
      </trkpt>
      <trkpt lat="48.59998" lon="2.01388">
        <ele>109.16</ele>
        <time>2017-10-22T11:52:09.177Z</time>
      </trkpt>
      <trkpt lat="48.60007" lon="2.0139">
        <ele>109.713</ele>
        <time>2017-10-22T11:52:16.136Z</time>
      </trkpt>
      <trkpt lat="48.60015" lon="2.01394">
        <ele>110.509</ele>
        <time>2017-10-22T11:52:23.822Z</time>
      </trkpt>
      <trkpt lat="48.60025" lon="2.01398">
        <ele>111.375</ele>
        <time>2017-10-22T11:52:32.196Z</time>
      </trkpt>
      <trkpt lat="48.60034" lon="2.01402">
        <ele>112.192</ele>
        <time>2017-10-22T11:52:40.432Z</time>
      </trkpt>
      <trkpt lat="48.60042" lon="2.01409">
        <ele>112.733</ele>
        <time>2017-10-22T11:52:47.561Z</time>
      </trkpt>
      <trkpt lat="48.60049" lon="2.01419">
        <ele>112.878</ele>
        <time>2017-10-22T11:52:54.883Z</time>
      </trkpt>
      <trkpt lat="48.60056" lon="2.0143">
        <ele>112.748</ele>
        <time>2017-10-22T11:53:02.374Z</time>
      </trkpt>
      <trkpt lat="48.60061" lon="2.01443">
        <ele>112.598</ele>
        <time>2017-10-22T11:53:10.252Z</time>
      </trkpt>
      <trkpt lat="48.60067" lon="2.01456">
        <ele>112.59</ele>
        <time>2017-10-22T11:53:18.529Z</time>
      </trkpt>
      <trkpt lat="48.60073" lon="2.01466">
        <ele>112.607</ele>
        <time>2017-10-22T11:53:26.315Z</time>
      </trkpt>
      <trkpt lat="48.60077" lon="2.01478">
        <ele>112.416</ele>
        <time>2017-10-22T11:53:34.816Z</time>
      </trkpt>
      <trkpt lat="48.60084" lon="2.01488">
        <ele>112.007</ele>
        <time>2017-10-22T11:53:45.707Z</time>
      </trkpt>
      <trkpt lat="48.60093" lon="2.01495">
        <ele>111.474</ele>
        <time>2017-10-22T11:53:56.843Z</time>
      </trkpt>
      <trkpt lat="48.60098" lon="2.01507">
        <ele>110.872</ele>
        <time>2017-10-22T11:54:04.533Z</time>
      </trkpt>
      <trkpt lat="48.60108" lon="2.01511">
        <ele>110.35</ele>
        <time>2017-10-22T11:54:11.934Z</time>
      </trkpt>
      <trkpt lat="48.60116" lon="2.0152">
        <ele>110.061</ele>
        <time>2017-10-22T11:54:19.154Z</time>
      </trkpt>
      <trkpt lat="48.60123" lon="2.01528">
        <ele>109.951</ele>
        <time>2017-10-22T11:54:25.713Z</time>
      </trkpt>
      <trkpt lat="48.60132" lon="2.01531">
        <ele>109.876</ele>
        <time>2017-10-22T11:54:32.477Z</time>
      </trkpt>
      <trkpt lat="48.60139" lon="2.0154">
        <ele>109.708</ele>
        <time>2017-10-22T11:54:40.426Z</time>
      </trkpt>
      <trkpt lat="48.60146" lon="2.01551">
        <ele>109.432</ele>
        <time>2017-10-22T11:54:48.433Z</time>
      </trkpt>
      <trkpt lat="48.60153" lon="2.01562">
        <ele>109.137</ele>
        <time>2017-10-22T11:54:55.471Z</time>
      </trkpt>
      <trkpt lat="48.60162" lon="2.01566">
        <ele>108.926</ele>
        <time>2017-10-22T11:55:02.045Z</time>
      </trkpt>
      <trkpt lat="48.6017" lon="2.01573">
        <ele>108.826</ele>
        <time>2017-10-22T11:55:07.985Z</time>
      </trkpt>
      <trkpt lat="48.60177" lon="2.01582">
        <ele>108.784</ele>
        <time>2017-10-22T11:55:14.330Z</time>
      </trkpt>
      <trkpt lat="48.60185" lon="2.01592">
        <ele>108.756</ele>
        <time>2017-10-22T11:55:21.486Z</time>
      </trkpt>
      <trkpt lat="48.60191" lon="2.01603">
        <ele>108.636</ele>
        <time>2017-10-22T11:55:29.156Z</time>
      </trkpt>
      <trkpt lat="48.60196" lon="2.01614">
        <ele>108.349</ele>
        <time>2017-10-22T11:55:37.027Z</time>
      </trkpt>
      <trkpt lat="48.60206" lon="2.01621">
        <ele>108.053</ele>
        <time>2017-10-22T11:55:45.818Z</time>
      </trkpt>
      <trkpt lat="48.60216" lon="2.01623">
        <ele>107.899</ele>
        <time>2017-10-22T11:55:54.279Z</time>
      </trkpt>
      <trkpt lat="48.60224" lon="2.0163">
        <ele>107.802</ele>
        <time>2017-10-22T11:56:01.724Z</time>
      </trkpt>
      <trkpt lat="48.60233" lon="2.01634">
        <ele>107.558</ele>
        <time>2017-10-22T11:56:08.996Z</time>
      </trkpt>
      <trkpt lat="48.60242" lon="2.0164">
        <ele>107.128</ele>
        <time>2017-10-22T11:56:17.153Z</time>
      </trkpt>
      <trkpt lat="48.6025" lon="2.01646">
        <ele>106.733</ele>
        <time>2017-10-22T11:56:25.381Z</time>
      </trkpt>
      <trkpt lat="48.60258" lon="2.01654">
        <ele>106.533</ele>
        <time>2017-10-22T11:56:34.000Z</time>
      </trkpt>
      <trkpt lat="48.60258" lon="2.01654">
        <ele>106.466</ele>
        <time>2017-10-22T11:56:37.000Z</time>
      </trkpt>
      <trkpt lat="48.60258" lon="2.01654">
        <ele>106.436</ele>
        <time>2017-10-22T11:56:41.369Z</time>
      </trkpt>
      <trkpt lat="48.60266" lon="2.01662">
        <ele>106.373</ele>
        <time>2017-10-22T11:56:53.479Z</time>
      </trkpt>
      <trkpt lat="48.60275" lon="2.01668">
        <ele>106.421</ele>
        <time>2017-10-22T11:57:01.000Z</time>
      </trkpt>
      <trkpt lat="48.60275" lon="2.01668">
        <ele>106.603</ele>
        <time>2017-10-22T11:57:09.000Z</time>
      </trkpt>
      <trkpt lat="48.60275" lon="2.01668">
        <ele>106.746</ele>
        <time>2017-10-22T11:57:47.725Z</time>
      </trkpt>
      <trkpt lat="48.60288" lon="2.01682">
        <ele>106.7</ele>
        <time>2017-10-22T11:58:11.290Z</time>
      </trkpt>
      <trkpt lat="48.60296" lon="2.01686">
        <ele>106.59</ele>
        <time>2017-10-22T11:58:20.506Z</time>
      </trkpt>
      <trkpt lat="48.60306" lon="2.01692">
        <ele>106.56</ele>
        <time>2017-10-22T11:58:28.550Z</time>
      </trkpt>
      <trkpt lat="48.60315" lon="2.01696">
        <ele>106.589</ele>
        <time>2017-10-22T11:58:36.401Z</time>
      </trkpt>
      <trkpt lat="48.60324" lon="2.01703">
        <ele>106.554</ele>
        <time>2017-10-22T11:58:45.363Z</time>
      </trkpt>
      <trkpt lat="48.60331" lon="2.01713">
        <ele>106.467</ele>
        <time>2017-10-22T11:58:54.555Z</time>
      </trkpt>
      <trkpt lat="48.6034" lon="2.01719">
        <ele>106.469</ele>
        <time>2017-10-22T11:59:03.627Z</time>
      </trkpt>
      <trkpt lat="48.60346" lon="2.0173">
        <ele>106.619</ele>
        <time>2017-10-22T11:59:13.330Z</time>
      </trkpt>
      <trkpt lat="48.6035" lon="2.01742">
        <ele>106.922</ele>
        <time>2017-10-22T11:59:21.589Z</time>
      </trkpt>
      <trkpt lat="48.60352" lon="2.01757">
        <ele>107.45</ele>
        <time>2017-10-22T11:59:29.614Z</time>
      </trkpt>
      <trkpt lat="48.60353" lon="2.01771">
        <ele>108.095</ele>
        <time>2017-10-22T11:59:37.289Z</time>
      </trkpt>
      <trkpt lat="48.60354" lon="2.01785">
        <ele>108.643</ele>
        <time>2017-10-22T11:59:45.333Z</time>
      </trkpt>
      <trkpt lat="48.60358" lon="2.01798">
        <ele>109.135</ele>
        <time>2017-10-22T11:59:53.406Z</time>
      </trkpt>
      <trkpt lat="48.6036" lon="2.01812">
        <ele>109.716</ele>
        <time>2017-10-22T12:00:01.451Z</time>
      </trkpt>
      <trkpt lat="48.60367" lon="2.01823">
        <ele>110.333</ele>
        <time>2017-10-22T12:00:10.644Z</time>
      </trkpt>
      <trkpt lat="48.60373" lon="2.01834">
        <ele>110.835</ele>
        <time>2017-10-22T12:00:18.913Z</time>
      </trkpt>
      <trkpt lat="48.60381" lon="2.01842">
        <ele>110.972</ele>
        <time>2017-10-22T12:00:25.979Z</time>
      </trkpt>
      <trkpt lat="48.60387" lon="2.01853">
        <ele>110.555</ele>
        <time>2017-10-22T12:00:33.240Z</time>
      </trkpt>
      <trkpt lat="48.60391" lon="2.01866">
        <ele>109.773</ele>
        <time>2017-10-22T12:00:40.737Z</time>
      </trkpt>
      <trkpt lat="48.60399" lon="2.01875">
        <ele>108.986</ele>
        <time>2017-10-22T12:00:49.638Z</time>
      </trkpt>
      <trkpt lat="48.60408" lon="2.01882">
        <ele>108.432</ele>
        <time>2017-10-22T12:00:59.907Z</time>
      </trkpt>
      <trkpt lat="48.60416" lon="2.0189">
        <ele>108.178</ele>
        <time>2017-10-22T12:01:10.439Z</time>
      </trkpt>
      <trkpt lat="48.60423" lon="2.019">
        <ele>108.085</ele>
        <time>2017-10-22T12:01:18.685Z</time>
      </trkpt>
      <trkpt lat="48.60431" lon="2.01907">
        <ele>107.985</ele>
        <time>2017-10-22T12:01:25.979Z</time>
      </trkpt>
      <trkpt lat="48.60441" lon="2.01913">
        <ele>107.897</ele>
        <time>2017-10-22T12:01:34.169Z</time>
      </trkpt>
      <trkpt lat="48.60449" lon="2.0192">
        <ele>107.94</ele>
        <time>2017-10-22T12:01:42.230Z</time>
      </trkpt>
      <trkpt lat="48.60456" lon="2.01929">
        <ele>108.195</ele>
        <time>2017-10-22T12:01:50.566Z</time>
      </trkpt>
      <trkpt lat="48.60464" lon="2.01937">
        <ele>108.622</ele>
        <time>2017-10-22T12:01:58.860Z</time>
      </trkpt>
      <trkpt lat="48.60471" lon="2.01947">
        <ele>109.081</ele>
        <time>2017-10-22T12:02:06.360Z</time>
      </trkpt>
      <trkpt lat="48.60479" lon="2.01955">
        <ele>109.473</ele>
        <time>2017-10-22T12:02:14.880Z</time>
      </trkpt>
      <trkpt lat="48.60485" lon="2.01966">
        <ele>109.82</ele>
        <time>2017-10-22T12:02:23.273Z</time>
      </trkpt>
      <trkpt lat="48.60493" lon="2.01976">
        <ele>110.238</ele>
        <time>2017-10-22T12:02:31.719Z</time>
      </trkpt>
      <trkpt lat="48.60498" lon="2.01987">
        <ele>110.725</ele>
        <time>2017-10-22T12:02:40.124Z</time>
      </trkpt>
      <trkpt lat="48.60506" lon="2.01996">
        <ele>111.261</ele>
        <time>2017-10-22T12:02:49.092Z</time>
      </trkpt>
      <trkpt lat="48.60514" lon="2.02004">
        <ele>111.937</ele>
        <time>2017-10-22T12:02:57.738Z</time>
      </trkpt>
      <trkpt lat="48.60522" lon="2.02013">
        <ele>112.721</ele>
        <time>2017-10-22T12:03:06.561Z</time>
      </trkpt>
      <trkpt lat="48.60529" lon="2.02022">
        <ele>113.51</ele>
        <time>2017-10-22T12:03:14.775Z</time>
      </trkpt>
      <trkpt lat="48.60536" lon="2.02032">
        <ele>114.209</ele>
        <time>2017-10-22T12:03:24.649Z</time>
      </trkpt>
      <trkpt lat="48.60545" lon="2.02039">
        <ele>114.623</ele>
        <time>2017-10-22T12:03:35.493Z</time>
      </trkpt>
      <trkpt lat="48.60554" lon="2.02042">
        <ele>114.546</ele>
        <time>2017-10-22T12:03:47.637Z</time>
      </trkpt>
      <trkpt lat="48.60563" lon="2.02048">
        <ele>113.855</ele>
        <time>2017-10-22T12:04:00.329Z</time>
      </trkpt>
      <trkpt lat="48.60571" lon="2.02057">
        <ele>112.596</ele>
        <time>2017-10-22T12:04:09.891Z</time>
      </trkpt>
      <trkpt lat="48.60577" lon="2.02068">
        <ele>111.166</ele>
        <time>2017-10-22T12:04:17.828Z</time>
      </trkpt>
      <trkpt lat="48.60585" lon="2.02076">
        <ele>110.107</ele>
        <time>2017-10-22T12:04:27.139Z</time>
      </trkpt>
      <trkpt lat="48.60595" lon="2.02079">
        <ele>109.508</ele>
        <time>2017-10-22T12:04:36.792Z</time>
      </trkpt>
      <trkpt lat="48.60601" lon="2.02088">
        <ele>109.083</ele>
        <time>2017-10-22T12:04:43.795Z</time>
      </trkpt>
      <trkpt lat="48.60606" lon="2.02101">
        <ele>108.778</ele>
        <time>2017-10-22T12:04:50.016Z</time>
      </trkpt>
      <trkpt lat="48.60612" lon="2.02111">
        <ele>108.559</ele>
        <time>2017-10-22T12:04:55.812Z</time>
      </trkpt>
      <trkpt lat="48.60618" lon="2.02123">
        <ele>108.2</ele>
        <time>2017-10-22T12:05:01.831Z</time>
      </trkpt>
      <trkpt lat="48.60626" lon="2.02133">
        <ele>107.667</ele>
        <time>2017-10-22T12:05:08.094Z</time>
      </trkpt>
      <trkpt lat="48.6063" lon="2.02146">
        <ele>107.151</ele>
        <time>2017-10-22T12:05:15.012Z</time>
      </trkpt>
      <trkpt lat="48.60635" lon="2.02157">
        <ele>106.808</ele>
        <time>2017-10-22T12:05:22.410Z</time>
      </trkpt>
      <trkpt lat="48.60639" lon="2.0217">
        <ele>106.775</ele>
        <time>2017-10-22T12:05:29.276Z</time>
      </trkpt>
      <trkpt lat="48.60644" lon="2.02182">
        <ele>107.053</ele>
        <time>2017-10-22T12:05:36.340Z</time>
      </trkpt>
      <trkpt lat="48.60649" lon="2.02194">
        <ele>107.413</ele>
        <time>2017-10-22T12:05:43.763Z</time>
      </trkpt>
      <trkpt lat="48.60655" lon="2.02205">
        <ele>107.662</ele>
        <time>2017-10-22T12:05:51.695Z</time>
      </trkpt>
      <trkpt lat="48.60662" lon="2.02215">
        <ele>107.811</ele>
        <time>2017-10-22T12:05:59.676Z</time>
      </trkpt>
      <trkpt lat="48.60668" lon="2.02226">
        <ele>107.912</ele>
        <time>2017-10-22T12:06:07.692Z</time>
      </trkpt>
      <trkpt lat="48.60673" lon="2.02239">
        <ele>107.947</ele>
        <time>2017-10-22T12:06:16.475Z</time>
      </trkpt>
      <trkpt lat="48.60679" lon="2.0225">
        <ele>107.886</ele>
        <time>2017-10-22T12:06:24.325Z</time>
      </trkpt>
      <trkpt lat="48.60686" lon="2.02259">
        <ele>107.858</ele>
        <time>2017-10-22T12:06:32.296Z</time>
      </trkpt>
      <trkpt lat="48.6069" lon="2.02272">
        <ele>107.966</ele>
        <time>2017-10-22T12:06:40.213Z</time>
      </trkpt>
      <trkpt lat="48.60696" lon="2.02284">
        <ele>108.152</ele>
        <time>2017-10-22T12:06:48.223Z</time>
      </trkpt>
      <trkpt lat="48.60701" lon="2.02296">
        <ele>108.32</ele>
        <time>2017-10-22T12:06:55.983Z</time>
      </trkpt>
      <trkpt lat="48.60705" lon="2.02309">
        <ele>108.421</ele>
        <time>2017-10-22T12:07:04.211Z</time>
      </trkpt>
      <trkpt lat="48.6071" lon="2.02321">
        <ele>108.445</ele>
        <time>2017-10-22T12:07:12.017Z</time>
      </trkpt>
      <trkpt lat="48.60713" lon="2.02335">
        <ele>108.43</ele>
        <time>2017-10-22T12:07:20.160Z</time>
      </trkpt>
      <trkpt lat="48.60718" lon="2.02347">
        <ele>108.41</ele>
        <time>2017-10-22T12:07:28.508Z</time>
      </trkpt>
      <trkpt lat="48.60723" lon="2.02359">
        <ele>108.344</ele>
        <time>2017-10-22T12:07:36.402Z</time>
      </trkpt>
      <trkpt lat="48.60726" lon="2.02373">
        <ele>108.069</ele>
        <time>2017-10-22T12:07:44.615Z</time>
      </trkpt>
      <trkpt lat="48.60731" lon="2.02385">
        <ele>107.578</ele>
        <time>2017-10-22T12:07:52.225Z</time>
      </trkpt>
      <trkpt lat="48.60738" lon="2.02397">
        <ele>107.144</ele>
        <time>2017-10-22T12:08:01.040Z</time>
      </trkpt>
      <trkpt lat="48.60744" lon="2.02408">
        <ele>106.951</ele>
        <time>2017-10-22T12:08:09.310Z</time>
      </trkpt>
      <trkpt lat="48.60749" lon="2.0242">
        <ele>106.877</ele>
        <time>2017-10-22T12:08:17.114Z</time>
      </trkpt>
      <trkpt lat="48.60753" lon="2.02432">
        <ele>106.781</ele>
        <time>2017-10-22T12:08:24.099Z</time>
      </trkpt>
      <trkpt lat="48.60756" lon="2.02445">
        <ele>106.677</ele>
        <time>2017-10-22T12:08:30.849Z</time>
      </trkpt>
      <trkpt lat="48.60761" lon="2.02457">
        <ele>106.6</ele>
        <time>2017-10-22T12:08:37.519Z</time>
      </trkpt>
      <trkpt lat="48.60765" lon="2.0247">
        <ele>106.522</ele>
        <time>2017-10-22T12:08:44.513Z</time>
      </trkpt>
      <trkpt lat="48.60771" lon="2.02481">
        <ele>106.465</ele>
        <time>2017-10-22T12:08:52.083Z</time>
      </trkpt>
      <trkpt lat="48.60776" lon="2.02493">
        <ele>106.458</ele>
        <time>2017-10-22T12:09:00.328Z</time>
      </trkpt>
      <trkpt lat="48.60781" lon="2.02506">
        <ele>106.436</ele>
        <time>2017-10-22T12:09:09.832Z</time>
      </trkpt>
      <trkpt lat="48.60788" lon="2.02517">
        <ele>106.297</ele>
        <time>2017-10-22T12:09:19.147Z</time>
      </trkpt>
      <trkpt lat="48.60792" lon="2.0253">
        <ele>106.023</ele>
        <time>2017-10-22T12:09:27.861Z</time>
      </trkpt>
      <trkpt lat="48.608" lon="2.02537">
        <ele>105.731</ele>
        <time>2017-10-22T12:09:37.925Z</time>
      </trkpt>
      <trkpt lat="48.60806" lon="2.02547">
        <ele>105.572</ele>
        <time>2017-10-22T12:09:48.785Z</time>
      </trkpt>
      <trkpt lat="48.60815" lon="2.02547">
        <ele>105.58</ele>
        <time>2017-10-22T12:09:59.461Z</time>
      </trkpt>
      <trkpt lat="48.60824" lon="2.02542">
        <ele>105.655</ele>
        <time>2017-10-22T12:10:10.988Z</time>
      </trkpt>
      <trkpt lat="48.60834" lon="2.02539">
        <ele>105.743</ele>
        <time>2017-10-22T12:10:22.333Z</time>
      </trkpt>
      <trkpt lat="48.60842" lon="2.0253">
        <ele>105.85</ele>
        <time>2017-10-22T12:10:31.325Z</time>
      </trkpt>
      <trkpt lat="48.60851" lon="2.02526">
        <ele>105.939</ele>
        <time>2017-10-22T12:10:39.025Z</time>
      </trkpt>
      <trkpt lat="48.6086" lon="2.02521">
        <ele>105.977</ele>
        <time>2017-10-22T12:10:47.472Z</time>
      </trkpt>
      <trkpt lat="48.6087" lon="2.02519">
        <ele>106.089</ele>
        <time>2017-10-22T12:10:56.308Z</time>
      </trkpt>
      <trkpt lat="48.6088" lon="2.02523">
        <ele>106.363</ele>
        <time>2017-10-22T12:11:04.558Z</time>
      </trkpt>
      <trkpt lat="48.60889" lon="2.02528">
        <ele>106.652</ele>
        <time>2017-10-22T12:11:12.197Z</time>
      </trkpt>
      <trkpt lat="48.60897" lon="2.02537">
        <ele>106.786</ele>
        <time>2017-10-22T12:11:19.999Z</time>
      </trkpt>
      <trkpt lat="48.60897" lon="2.02537">
        <ele>106.782</ele>
        <time>2017-10-22T12:11:22.999Z</time>
      </trkpt>
      <trkpt lat="48.60897" lon="2.02537">
        <ele>106.723</ele>
        <time>2017-10-22T12:11:54.496Z</time>
      </trkpt>
      <trkpt lat="48.60907" lon="2.02544">
        <ele>106.674</ele>
        <time>2017-10-22T12:12:10.174Z</time>
      </trkpt>
      <trkpt lat="48.60915" lon="2.0255">
        <ele>106.706</ele>
        <time>2017-10-22T12:12:18.963Z</time>
      </trkpt>
      <trkpt lat="48.60923" lon="2.02557">
        <ele>106.845</ele>
        <time>2017-10-22T12:12:27.907Z</time>
      </trkpt>
      <trkpt lat="48.60932" lon="2.02563">
        <ele>107.087</ele>
        <time>2017-10-22T12:12:35.877Z</time>
      </trkpt>
      <trkpt lat="48.60941" lon="2.02567">
        <ele>107.415</ele>
        <time>2017-10-22T12:12:43.777Z</time>
      </trkpt>
      <trkpt lat="48.6095" lon="2.02571">
        <ele>107.804</ele>
        <time>2017-10-22T12:12:51.739Z</time>
      </trkpt>
      <trkpt lat="48.60959" lon="2.02574">
        <ele>108.182</ele>
        <time>2017-10-22T12:12:59.648Z</time>
      </trkpt>
      <trkpt lat="48.60969" lon="2.02577">
        <ele>108.483</ele>
        <time>2017-10-22T12:13:08.238Z</time>
      </trkpt>
      <trkpt lat="48.60978" lon="2.0258">
        <ele>108.847</ele>
        <time>2017-10-22T12:13:16.295Z</time>
      </trkpt>
      <trkpt lat="48.60987" lon="2.02582">
        <ele>109.387</ele>
        <time>2017-10-22T12:13:24.046Z</time>
      </trkpt>
      <trkpt lat="48.60996" lon="2.02584">
        <ele>109.882</ele>
        <time>2017-10-22T12:13:32.616Z</time>
      </trkpt>
      <trkpt lat="48.61006" lon="2.02585">
        <ele>110.301</ele>
        <time>2017-10-22T12:13:40.766Z</time>
      </trkpt>
      <trkpt lat="48.61015" lon="2.02586">
        <ele>110.811</ele>
        <time>2017-10-22T12:13:49.463Z</time>
      </trkpt>
      <trkpt lat="48.61025" lon="2.02585">
        <ele>111.306</ele>
        <time>2017-10-22T12:13:58.052Z</time>
      </trkpt>
      <trkpt lat="48.61034" lon="2.02585">
        <ele>111.712</ele>
        <time>2017-10-22T12:14:06.095Z</time>
      </trkpt>
      <trkpt lat="48.61043" lon="2.02586">
        <ele>112.224</ele>
        <time>2017-10-22T12:14:13.485Z</time>
      </trkpt>
      <trkpt lat="48.61053" lon="2.02587">
        <ele>112.903</ele>
        <time>2017-10-22T12:14:21.270Z</time>
      </trkpt>
      <trkpt lat="48.61062" lon="2.02587">
        <ele>113.529</ele>
        <time>2017-10-22T12:14:28.795Z</time>
      </trkpt>
      <trkpt lat="48.61071" lon="2.02587">
        <ele>113.783</ele>
        <time>2017-10-22T12:14:36.596Z</time>
      </trkpt>
      <trkpt lat="48.61081" lon="2.02588">
        <ele>113.587</ele>
        <time>2017-10-22T12:14:44.621Z</time>
      </trkpt>
      <trkpt lat="48.6109" lon="2.02589">
        <ele>113.189</ele>
        <time>2017-10-22T12:14:52.489Z</time>
      </trkpt>
      <trkpt lat="48.61099" lon="2.02591">
        <ele>112.89</ele>
        <time>2017-10-22T12:15:00.248Z</time>
      </trkpt>
      <trkpt lat="48.61108" lon="2.02591">
        <ele>112.881</ele>
        <time>2017-10-22T12:15:08.024Z</time>
      </trkpt>
      <trkpt lat="48.61117" lon="2.0259">
        <ele>113.152</ele>
        <time>2017-10-22T12:15:16.215Z</time>
      </trkpt>
      <trkpt lat="48.61127" lon="2.0259">
        <ele>113.478</ele>
        <time>2017-10-22T12:15:24.617Z</time>
      </trkpt>
      <trkpt lat="48.61136" lon="2.02589">
        <ele>113.756</ele>
        <time>2017-10-22T12:15:32.735Z</time>
      </trkpt>
      <trkpt lat="48.61146" lon="2.02588">
        <ele>114.07</ele>
        <time>2017-10-22T12:15:41.435Z</time>
      </trkpt>
      <trkpt lat="48.61155" lon="2.02586">
        <ele>114.394</ele>
        <time>2017-10-22T12:15:49.346Z</time>
      </trkpt>
      <trkpt lat="48.61165" lon="2.02585">
        <ele>114.683</ele>
        <time>2017-10-22T12:15:57.541Z</time>
      </trkpt>
      <trkpt lat="48.61175" lon="2.02585">
        <ele>114.969</ele>
        <time>2017-10-22T12:16:06.021Z</time>
      </trkpt>
      <trkpt lat="48.61184" lon="2.02582">
        <ele>115.184</ele>
        <time>2017-10-22T12:16:14.599Z</time>
      </trkpt>
      <trkpt lat="48.61194" lon="2.02584">
        <ele>115.241</ele>
        <time>2017-10-22T12:16:23.680Z</time>
      </trkpt>
      <trkpt lat="48.61203" lon="2.02583">
        <ele>115.192</ele>
        <time>2017-10-22T12:16:32.929Z</time>
      </trkpt>
      <trkpt lat="48.61209" lon="2.02571">
        <ele>115.108</ele>
        <time>2017-10-22T12:16:43.000Z</time>
      </trkpt>
      <trkpt lat="48.61209" lon="2.02571">
        <ele>115.031</ele>
        <time>2017-10-22T12:16:51.000Z</time>
      </trkpt>
      <trkpt lat="48.61209" lon="2.02571">
        <ele>114.979</ele>
        <time>2017-10-22T12:16:51.100Z</time>
      </trkpt>
      <trkpt lat="48.61211" lon="2.02552">
        <ele>114.949</ele>
        <time>2017-10-22T12:17:05.030Z</time>
      </trkpt>
      <trkpt lat="48.6121" lon="2.02537">
        <ele>114.923</ele>
        <time>2017-10-22T12:17:13.701Z</time>
      </trkpt>
      <trkpt lat="48.6121" lon="2.02522">
        <ele>114.903</ele>
        <time>2017-10-22T12:17:22.408Z</time>
      </trkpt>
      <trkpt lat="48.61211" lon="2.02507">
        <ele>114.914</ele>
        <time>2017-10-22T12:17:31.054Z</time>
      </trkpt>
      <trkpt lat="48.61211" lon="2.02493">
        <ele>115.002</ele>
        <time>2017-10-22T12:17:39.657Z</time>
      </trkpt>
      <trkpt lat="48.61211" lon="2.02477">
        <ele>115.191</ele>
        <time>2017-10-22T12:17:48.568Z</time>
      </trkpt>
      <trkpt lat="48.61213" lon="2.02463">
        <ele>115.376</ele>
        <time>2017-10-22T12:17:56.645Z</time>
      </trkpt>
      <trkpt lat="48.61214" lon="2.02448">
        <ele>115.355</ele>
        <time>2017-10-22T12:18:04.736Z</time>
      </trkpt>
      <trkpt lat="48.61215" lon="2.02434">
        <ele>115.093</ele>
        <time>2017-10-22T12:18:12.270Z</time>
      </trkpt>
      <trkpt lat="48.61215" lon="2.02419">
        <ele>114.795</ele>
        <time>2017-10-22T12:18:20.278Z</time>
      </trkpt>
      <trkpt lat="48.61216" lon="2.02404">
        <ele>114.69</ele>
        <time>2017-10-22T12:18:28.660Z</time>
      </trkpt>
      <trkpt lat="48.61215" lon="2.02389">
        <ele>114.807</ele>
        <time>2017-10-22T12:18:37.298Z</time>
      </trkpt>
      <trkpt lat="48.61213" lon="2.02376">
        <ele>115.005</ele>
        <time>2017-10-22T12:18:45.047Z</time>
      </trkpt>
      <trkpt lat="48.61213" lon="2.02361">
        <ele>115.129</ele>
        <time>2017-10-22T12:18:53.473Z</time>
      </trkpt>
      <trkpt lat="48.61212" lon="2.02347">
        <ele>115.134</ele>
        <time>2017-10-22T12:19:01.380Z</time>
      </trkpt>
      <trkpt lat="48.61212" lon="2.02333">
        <ele>115.016</ele>
        <time>2017-10-22T12:19:09.279Z</time>
      </trkpt>
      <trkpt lat="48.61211" lon="2.02319">
        <ele>114.737</ele>
        <time>2017-10-22T12:19:17.783Z</time>
      </trkpt>
      <trkpt lat="48.61209" lon="2.02305">
        <ele>114.213</ele>
        <time>2017-10-22T12:19:26.274Z</time>
      </trkpt>
      <trkpt lat="48.61208" lon="2.02291">
        <ele>113.366</ele>
        <time>2017-10-22T12:19:33.576Z</time>
      </trkpt>
      <trkpt lat="48.61207" lon="2.02278">
        <ele>112.282</ele>
        <time>2017-10-22T12:19:40.581Z</time>
      </trkpt>
      <trkpt lat="48.61205" lon="2.02263">
        <ele>111.262</ele>
        <time>2017-10-22T12:19:48.567Z</time>
      </trkpt>
      <trkpt lat="48.61201" lon="2.0225">
        <ele>110.581</ele>
        <time>2017-10-22T12:19:56.421Z</time>
      </trkpt>
      <trkpt lat="48.61199" lon="2.02236">
        <ele>110.333</ele>
        <time>2017-10-22T12:20:04.073Z</time>
      </trkpt>
      <trkpt lat="48.61195" lon="2.02223">
        <ele>110.405</ele>
        <time>2017-10-22T12:20:11.981Z</time>
      </trkpt>
      <trkpt lat="48.6119" lon="2.02211">
        <ele>110.475</ele>
        <time>2017-10-22T12:20:19.663Z</time>
      </trkpt>
      <trkpt lat="48.61185" lon="2.02198">
        <ele>110.259</ele>
        <time>2017-10-22T12:20:27.518Z</time>
      </trkpt>
      <trkpt lat="48.61182" lon="2.02185">
        <ele>109.766</ele>
        <time>2017-10-22T12:20:35.512Z</time>
      </trkpt>
      <trkpt lat="48.6118" lon="2.0217">
        <ele>109.251</ele>
        <time>2017-10-22T12:20:43.999Z</time>
      </trkpt>
      <trkpt lat="48.6118" lon="2.0217">
        <ele>108.96</ele>
        <time>2017-10-22T12:20:56.000Z</time>
      </trkpt>
      <trkpt lat="48.6118" lon="2.0217">
        <ele>108.929</ele>
        <time>2017-10-22T12:20:56.100Z</time>
      </trkpt>
      <trkpt lat="48.61174" lon="2.02153">
        <ele>109.015</ele>
        <time>2017-10-22T12:21:12.343Z</time>
      </trkpt>
      <trkpt lat="48.61167" lon="2.02143">
        <ele>109.125</ele>
        <time>2017-10-22T12:21:20.565Z</time>
      </trkpt>
      <trkpt lat="48.61161" lon="2.02129">
        <ele>109.242</ele>
        <time>2017-10-22T12:21:28.625Z</time>
      </trkpt>
      <trkpt lat="48.61154" lon="2.02118">
        <ele>109.29</ele>
        <time>2017-10-22T12:21:35.450Z</time>
      </trkpt>
      <trkpt lat="48.61147" lon="2.02108">
        <ele>109.221</ele>
        <time>2017-10-22T12:21:42.463Z</time>
      </trkpt>
      <trkpt lat="48.61141" lon="2.02098">
        <ele>109.196</ele>
        <time>2017-10-22T12:21:49.351Z</time>
      </trkpt>
      <trkpt lat="48.61134" lon="2.02088">
        <ele>109.348</ele>
        <time>2017-10-22T12:21:58.379Z</time>
      </trkpt>
      <trkpt lat="48.61133" lon="2.02075">
        <ele>109.542</ele>
        <time>2017-10-22T12:22:08.379Z</time>
      </trkpt>
      <trkpt lat="48.61141" lon="2.02067">
        <ele>109.578</ele>
        <time>2017-10-22T12:22:24.427Z</time>
      </trkpt>
      <trkpt lat="48.6115" lon="2.02061">
        <ele>109.442</ele>
        <time>2017-10-22T12:22:37.735Z</time>
      </trkpt>
      <trkpt lat="48.61158" lon="2.02054">
        <ele>109.25</ele>
        <time>2017-10-22T12:22:48.000Z</time>
      </trkpt>
      <trkpt lat="48.61158" lon="2.02054">
        <ele>109.098</ele>
        <time>2017-10-22T12:22:59.000Z</time>
      </trkpt>
      <trkpt lat="48.61158" lon="2.02054">
        <ele>109.008</ele>
        <time>2017-10-22T12:29:27.481Z</time>
      </trkpt>
      <trkpt lat="48.6117" lon="2.02043">
        <ele>108.991</ele>
        <time>2017-10-22T12:29:52.563Z</time>
      </trkpt>
      <trkpt lat="48.61179" lon="2.02045">
        <ele>109.576</ele>
        <time>2017-10-22T12:30:02.695Z</time>
      </trkpt>
      <trkpt lat="48.61188" lon="2.02051">
        <ele>111.059</ele>
        <time>2017-10-22T12:30:12.460Z</time>
      </trkpt>
      <trkpt lat="48.61195" lon="2.0206">
        <ele>112.62</ele>
        <time>2017-10-22T12:30:19.997Z</time>
      </trkpt>
      <trkpt lat="48.61204" lon="2.02066">
        <ele>113.457</ele>
        <time>2017-10-22T12:30:26.999Z</time>
      </trkpt>
      <trkpt lat="48.61204" lon="2.02066">
        <ele>113.665</ele>
        <time>2017-10-22T12:30:39.999Z</time>
      </trkpt>
      <trkpt lat="48.61204" lon="2.02066">
        <ele>113.558</ele>
        <time>2017-10-22T12:30:54.436Z</time>
      </trkpt>
      <trkpt lat="48.61197" lon="2.02056">
        <ele>113.423</ele>
        <time>2017-10-22T12:31:11.123Z</time>
      </trkpt>
      <trkpt lat="48.61198" lon="2.02042">
        <ele>113.388</ele>
        <time>2017-10-22T12:31:21.408Z</time>
      </trkpt>
      <trkpt lat="48.61205" lon="2.02032">
        <ele>113.044</ele>
        <time>2017-10-22T12:31:31.349Z</time>
      </trkpt>
      <trkpt lat="48.61212" lon="2.02022">
        <ele>112.308</ele>
        <time>2017-10-22T12:31:41.142Z</time>
      </trkpt>
      <trkpt lat="48.61218" lon="2.02011">
        <ele>111.495</ele>
        <time>2017-10-22T12:31:50.882Z</time>
      </trkpt>
      <trkpt lat="48.61221" lon="2.01997">
        <ele>111.039</ele>
        <time>2017-10-22T12:32:00.213Z</time>
      </trkpt>
      <trkpt lat="48.61224" lon="2.01984">
        <ele>111.07</ele>
        <time>2017-10-22T12:32:08.495Z</time>
      </trkpt>
      <trkpt lat="48.61228" lon="2.01971">
        <ele>111.346</ele>
        <time>2017-10-22T12:32:18.194Z</time>
      </trkpt>
      <trkpt lat="48.61236" lon="2.01961">
        <ele>111.637</ele>
        <time>2017-10-22T12:32:28.598Z</time>
      </trkpt>
      <trkpt lat="48.61246" lon="2.01958">
        <ele>111.934</ele>
        <time>2017-10-22T12:32:36.174Z</time>
      </trkpt>
      <trkpt lat="48.61255" lon="2.01954">
        <ele>112.26</ele>
        <time>2017-10-22T12:32:42.364Z</time>
      </trkpt>
      <trkpt lat="48.61264" lon="2.01951">
        <ele>112.524</ele>
        <time>2017-10-22T12:32:49.674Z</time>
      </trkpt>
      <trkpt lat="48.61273" lon="2.01948">
        <ele>112.675</ele>
        <time>2017-10-22T12:32:57.533Z</time>
      </trkpt>
      <trkpt lat="48.61282" lon="2.01951">
        <ele>112.768</ele>
        <time>2017-10-22T12:33:06.179Z</time>
      </trkpt>
      <trkpt lat="48.61291" lon="2.01955">
        <ele>112.847</ele>
        <time>2017-10-22T12:33:14.887Z</time>
      </trkpt>
      <trkpt lat="48.613" lon="2.0196">
        <ele>112.903</ele>
        <time>2017-10-22T12:33:23.141Z</time>
      </trkpt>
      <trkpt lat="48.61308" lon="2.01969">
        <ele>112.923</ele>
        <time>2017-10-22T12:33:32.408Z</time>
      </trkpt>
      <trkpt lat="48.61317" lon="2.01972">
        <ele>112.906</ele>
        <time>2017-10-22T12:33:42.999Z</time>
      </trkpt>
      <trkpt lat="48.61317" lon="2.01972">
        <ele>112.861</ele>
        <time>2017-10-22T12:33:47.999Z</time>
      </trkpt>
      <trkpt lat="48.61317" lon="2.01972">
        <ele>112.804</ele>
        <time>2017-10-22T12:33:48.099Z</time>
      </trkpt>
      <trkpt lat="48.61323" lon="2.01961">
        <ele>112.729</ele>
        <time>2017-10-22T12:34:03.999Z</time>
      </trkpt>
      <trkpt lat="48.61323" lon="2.01961">
        <ele>112.72</ele>
        <time>2017-10-22T12:34:17.999Z</time>
      </trkpt>
      <trkpt lat="48.61323" lon="2.01961">
        <ele>112.7</ele>
        <time>2017-10-22T12:34:18.099Z</time>
      </trkpt>
      <trkpt lat="48.61341" lon="2.01945">
        <ele>112.655</ele>
        <time>2017-10-22T12:35:02.574Z</time>
      </trkpt>
      <trkpt lat="48.61348" lon="2.01936">
        <ele>112.605</ele>
        <time>2017-10-22T12:35:10.504Z</time>
      </trkpt>
      <trkpt lat="48.61357" lon="2.01931">
        <ele>112.571</ele>
        <time>2017-10-22T12:35:19.653Z</time>
      </trkpt>
      <trkpt lat="48.61366" lon="2.01926">
        <ele>112.549</ele>
        <time>2017-10-22T12:35:28.722Z</time>
      </trkpt>
      <trkpt lat="48.61375" lon="2.01925">
        <ele>112.594</ele>
        <time>2017-10-22T12:35:35.655Z</time>
      </trkpt>
      <trkpt lat="48.61384" lon="2.01929">
        <ele>112.736</ele>
        <time>2017-10-22T12:35:42.462Z</time>
      </trkpt>
      <trkpt lat="48.61394" lon="2.0193">
        <ele>112.885</ele>
        <time>2017-10-22T12:35:49.560Z</time>
      </trkpt>
      <trkpt lat="48.61402" lon="2.01935">
        <ele>112.95</ele>
        <time>2017-10-22T12:35:56.309Z</time>
      </trkpt>
      <trkpt lat="48.6141" lon="2.01941">
        <ele>112.947</ele>
        <time>2017-10-22T12:36:03.020Z</time>
      </trkpt>
      <trkpt lat="48.61417" lon="2.0195">
        <ele>112.892</ele>
        <time>2017-10-22T12:36:10.246Z</time>
      </trkpt>
      <trkpt lat="48.61424" lon="2.01961">
        <ele>112.79</ele>
        <time>2017-10-22T12:36:18.323Z</time>
      </trkpt>
      <trkpt lat="48.61431" lon="2.01971">
        <ele>112.677</ele>
        <time>2017-10-22T12:36:26.680Z</time>
      </trkpt>
      <trkpt lat="48.61439" lon="2.01976">
        <ele>112.564</ele>
        <time>2017-10-22T12:36:34.855Z</time>
      </trkpt>
      <trkpt lat="48.61446" lon="2.01985">
        <ele>112.438</ele>
        <time>2017-10-22T12:36:41.582Z</time>
      </trkpt>
      <trkpt lat="48.61452" lon="2.01995">
        <ele>112.31</ele>
        <time>2017-10-22T12:36:47.769Z</time>
      </trkpt>
      <trkpt lat="48.61456" lon="2.02009">
        <ele>112.248</ele>
        <time>2017-10-22T12:36:55.175Z</time>
      </trkpt>
      <trkpt lat="48.61453" lon="2.02022">
        <ele>112.299</ele>
        <time>2017-10-22T12:37:03.809Z</time>
      </trkpt>
      <trkpt lat="48.61453" lon="2.02036">
        <ele>112.553</ele>
        <time>2017-10-22T12:37:14.716Z</time>
      </trkpt>
      <trkpt lat="48.61447" lon="2.02046">
        <ele>113.012</ele>
        <time>2017-10-22T12:37:27.000Z</time>
      </trkpt>
      <trkpt lat="48.61447" lon="2.02046">
        <ele>113.376</ele>
        <time>2017-10-22T12:37:28.000Z</time>
      </trkpt>
      <trkpt lat="48.61447" lon="2.02046">
        <ele>113.403</ele>
        <time>2017-10-22T12:37:32.085Z</time>
      </trkpt>
      <trkpt lat="48.61438" lon="2.0205">
        <ele>113.206</ele>
        <time>2017-10-22T12:37:50.154Z</time>
      </trkpt>
      <trkpt lat="48.6143" lon="2.02058">
        <ele>113.207</ele>
        <time>2017-10-22T12:37:59.704Z</time>
      </trkpt>
      <trkpt lat="48.61422" lon="2.02066">
        <ele>113.267</ele>
        <time>2017-10-22T12:38:09.763Z</time>
      </trkpt>
      <trkpt lat="48.61413" lon="2.02072">
        <ele>113.421</ele>
        <time>2017-10-22T12:38:19.341Z</time>
      </trkpt>
      <trkpt lat="48.61405" lon="2.02078">
        <ele>113.623</ele>
        <time>2017-10-22T12:38:29.504Z</time>
      </trkpt>
      <trkpt lat="48.61399" lon="2.02088">
        <ele>113.692</ele>
        <time>2017-10-22T12:38:41.000Z</time>
      </trkpt>
      <trkpt lat="48.61399" lon="2.02088">
        <ele>113.55</ele>
        <time>2017-10-22T12:38:47.000Z</time>
      </trkpt>
      <trkpt lat="48.61399" lon="2.02088">
        <ele>113.372</ele>
        <time>2017-10-22T12:39:44.909Z</time>
      </trkpt>
      <trkpt lat="48.61405" lon="2.02066">
        <ele>113.323</ele>
        <time>2017-10-22T12:40:04.623Z</time>
      </trkpt>
      <trkpt lat="48.61414" lon="2.02062">
        <ele>113.326</ele>
        <time>2017-10-22T12:40:14.775Z</time>
      </trkpt>
      <trkpt lat="48.61422" lon="2.02056">
        <ele>112.918</ele>
        <time>2017-10-22T12:40:27.306Z</time>
      </trkpt>
      <trkpt lat="48.61431" lon="2.0205">
        <ele>111.776</ele>
        <time>2017-10-22T12:40:44.229Z</time>
      </trkpt>
      <trkpt lat="48.61439" lon="2.02045">
        <ele>110.427</ele>
        <time>2017-10-22T12:40:59.942Z</time>
      </trkpt>
      <trkpt lat="48.61445" lon="2.02034">
        <ele>109.676</ele>
        <time>2017-10-22T12:41:13.000Z</time>
      </trkpt>
      <trkpt lat="48.61445" lon="2.02034">
        <ele>109.627</ele>
        <time>2017-10-22T12:41:21.000Z</time>
      </trkpt>
      <trkpt lat="48.61445" lon="2.02034">
        <ele>109.796</ele>
        <time>2017-10-22T12:41:21.100Z</time>
      </trkpt>
      <trkpt lat="48.6145" lon="2.02018">
        <ele>109.792</ele>
        <time>2017-10-22T12:41:39.873Z</time>
      </trkpt>
      <trkpt lat="48.61458" lon="2.0201">
        <ele>109.685</ele>
        <time>2017-10-22T12:41:49.027Z</time>
      </trkpt>
      <trkpt lat="48.61467" lon="2.02017">
        <ele>109.704</ele>
        <time>2017-10-22T12:41:57.481Z</time>
      </trkpt>
      <trkpt lat="48.61475" lon="2.02022">
        <ele>109.835</ele>
        <time>2017-10-22T12:42:04.883Z</time>
      </trkpt>
      <trkpt lat="48.61483" lon="2.0203">
        <ele>109.906</ele>
        <time>2017-10-22T12:42:13.469Z</time>
      </trkpt>
      <trkpt lat="48.61491" lon="2.02038">
        <ele>109.879</ele>
        <time>2017-10-22T12:42:23.986Z</time>
      </trkpt>
      <trkpt lat="48.61499" lon="2.02044">
        <ele>109.805</ele>
        <time>2017-10-22T12:42:34.196Z</time>
      </trkpt>
      <trkpt lat="48.61507" lon="2.0205">
        <ele>109.727</ele>
        <time>2017-10-22T12:42:42.531Z</time>
      </trkpt>
      <trkpt lat="48.61516" lon="2.02055">
        <ele>109.712</ele>
        <time>2017-10-22T12:42:51.119Z</time>
      </trkpt>
      <trkpt lat="48.61525" lon="2.02063">
        <ele>109.752</ele>
        <time>2017-10-22T12:42:59.987Z</time>
      </trkpt>
      <trkpt lat="48.61533" lon="2.02071">
        <ele>109.83</ele>
        <time>2017-10-22T12:43:09.167Z</time>
      </trkpt>
      <trkpt lat="48.61542" lon="2.02077">
        <ele>109.977</ele>
        <time>2017-10-22T12:43:17.750Z</time>
      </trkpt>
      <trkpt lat="48.61551" lon="2.0208">
        <ele>110.146</ele>
        <time>2017-10-22T12:43:25.682Z</time>
      </trkpt>
      <trkpt lat="48.61561" lon="2.02084">
        <ele>110.266</ele>
        <time>2017-10-22T12:43:34.185Z</time>
      </trkpt>
      <trkpt lat="48.61571" lon="2.02087">
        <ele>110.332</ele>
        <time>2017-10-22T12:43:42.290Z</time>
      </trkpt>
      <trkpt lat="48.6158" lon="2.02088">
        <ele>110.348</ele>
        <time>2017-10-22T12:43:49.458Z</time>
      </trkpt>
      <trkpt lat="48.61589" lon="2.02091">
        <ele>110.31</ele>
        <time>2017-10-22T12:43:57.309Z</time>
      </trkpt>
      <trkpt lat="48.61598" lon="2.02098">
        <ele>110.249</ele>
        <time>2017-10-22T12:44:05.779Z</time>
      </trkpt>
      <trkpt lat="48.61607" lon="2.02104">
        <ele>110.208</ele>
        <time>2017-10-22T12:44:13.979Z</time>
      </trkpt>
      <trkpt lat="48.61615" lon="2.02108">
        <ele>110.188</ele>
        <time>2017-10-22T12:44:21.591Z</time>
      </trkpt>
      <trkpt lat="48.61624" lon="2.02114">
        <ele>110.189</ele>
        <time>2017-10-22T12:44:30.320Z</time>
      </trkpt>
      <trkpt lat="48.61633" lon="2.02118">
        <ele>110.304</ele>
        <time>2017-10-22T12:44:38.565Z</time>
      </trkpt>
      <trkpt lat="48.61642" lon="2.0212">
        <ele>110.591</ele>
        <time>2017-10-22T12:44:46.356Z</time>
      </trkpt>
      <trkpt lat="48.6165" lon="2.02125">
        <ele>110.923</ele>
        <time>2017-10-22T12:44:54.101Z</time>
      </trkpt>
      <trkpt lat="48.61659" lon="2.02129">
        <ele>111.209</ele>
        <time>2017-10-22T12:45:01.476Z</time>
      </trkpt>
      <trkpt lat="48.61666" lon="2.02139">
        <ele>111.499</ele>
        <time>2017-10-22T12:45:08.961Z</time>
      </trkpt>
      <trkpt lat="48.61672" lon="2.02151">
        <ele>111.792</ele>
        <time>2017-10-22T12:45:16.886Z</time>
      </trkpt>
      <trkpt lat="48.61678" lon="2.02161">
        <ele>112.018</ele>
        <time>2017-10-22T12:45:24.000Z</time>
      </trkpt>
      <trkpt lat="48.61678" lon="2.02161">
        <ele>112.127</ele>
        <time>2017-10-22T12:45:28.000Z</time>
      </trkpt>
      <trkpt lat="48.61678" lon="2.02161">
        <ele>112.125</ele>
        <time>2017-10-22T12:47:02.771Z</time>
      </trkpt>
      <trkpt lat="48.61679" lon="2.02176">
        <ele>112.014</ele>
        <time>2017-10-22T12:47:20.000Z</time>
      </trkpt>
      <trkpt lat="48.61679" lon="2.02176">
        <ele>111.975</ele>
        <time>2017-10-22T12:47:28.000Z</time>
      </trkpt>
      <trkpt lat="48.61679" lon="2.02176">
        <ele>111.926</ele>
        <time>2017-10-22T12:47:28.100Z</time>
      </trkpt>
      <trkpt lat="48.61686" lon="2.02186">
        <ele>111.845</ele>
        <time>2017-10-22T12:47:45.466Z</time>
      </trkpt>
      <trkpt lat="48.61693" lon="2.02195">
        <ele>111.886</ele>
        <time>2017-10-22T12:47:56.801Z</time>
      </trkpt>
      <trkpt lat="48.61701" lon="2.02203">
        <ele>112.147</ele>
        <time>2017-10-22T12:48:07.986Z</time>
      </trkpt>
      <trkpt lat="48.61708" lon="2.02213">
        <ele>112.757</ele>
        <time>2017-10-22T12:48:19.989Z</time>
      </trkpt>
      <trkpt lat="48.61715" lon="2.02223">
        <ele>113.656</ele>
        <time>2017-10-22T12:48:32.106Z</time>
      </trkpt>
      <trkpt lat="48.61722" lon="2.02231">
        <ele>114.545</ele>
        <time>2017-10-22T12:48:42.512Z</time>
      </trkpt>
      <trkpt lat="48.61731" lon="2.02237">
        <ele>115.063</ele>
        <time>2017-10-22T12:48:53.114Z</time>
      </trkpt>
      <trkpt lat="48.6174" lon="2.02243">
        <ele>115.131</ele>
        <time>2017-10-22T12:49:03.715Z</time>
      </trkpt>
      <trkpt lat="48.61749" lon="2.02247">
        <ele>114.957</ele>
        <time>2017-10-22T12:49:14.004Z</time>
      </trkpt>
      <trkpt lat="48.61757" lon="2.02253">
        <ele>114.566</ele>
        <time>2017-10-22T12:49:24.852Z</time>
      </trkpt>
      <trkpt lat="48.61765" lon="2.02264">
        <ele>113.928</ele>
        <time>2017-10-22T12:49:35.691Z</time>
      </trkpt>
      <trkpt lat="48.61772" lon="2.02272">
        <ele>113.303</ele>
        <time>2017-10-22T12:49:45.335Z</time>
      </trkpt>
      <trkpt lat="48.61777" lon="2.02283">
        <ele>112.895</ele>
        <time>2017-10-22T12:49:54.825Z</time>
      </trkpt>
      <trkpt lat="48.61786" lon="2.02292">
        <ele>112.555</ele>
        <time>2017-10-22T12:50:04.907Z</time>
      </trkpt>
      <trkpt lat="48.61793" lon="2.023">
        <ele>112.19</ele>
        <time>2017-10-22T12:50:13.739Z</time>
      </trkpt>
      <trkpt lat="48.61801" lon="2.02306">
        <ele>111.915</ele>
        <time>2017-10-22T12:50:22.942Z</time>
      </trkpt>
      <trkpt lat="48.6181" lon="2.02312">
        <ele>111.768</ele>
        <time>2017-10-22T12:50:32.916Z</time>
      </trkpt>
      <trkpt lat="48.61818" lon="2.02319">
        <ele>111.623</ele>
        <time>2017-10-22T12:50:43.012Z</time>
      </trkpt>
      <trkpt lat="48.61827" lon="2.02325">
        <ele>111.435</ele>
        <time>2017-10-22T12:50:53.581Z</time>
      </trkpt>
      <trkpt lat="48.61836" lon="2.0233">
        <ele>111.271</ele>
        <time>2017-10-22T12:51:02.723Z</time>
      </trkpt>
      <trkpt lat="48.61844" lon="2.02336">
        <ele>111.257</ele>
        <time>2017-10-22T12:51:11.661Z</time>
      </trkpt>
      <trkpt lat="48.61852" lon="2.02342">
        <ele>111.458</ele>
        <time>2017-10-22T12:51:21.000Z</time>
      </trkpt>
      <trkpt lat="48.61852" lon="2.02342">
        <ele>111.741</ele>
        <time>2017-10-22T12:51:33.000Z</time>
      </trkpt>
      <trkpt lat="48.61852" lon="2.02342">
        <ele>111.881</ele>
        <time>2017-10-22T12:51:33.100Z</time>
      </trkpt>
      <trkpt lat="48.61864" lon="2.02349">
        <ele>111.823</ele>
        <time>2017-10-22T12:51:53.000Z</time>
      </trkpt>
      <trkpt lat="48.61864" lon="2.02349">
        <ele>111.705</ele>
        <time>2017-10-22T12:51:56.000Z</time>
      </trkpt>
    </trkseg>
  </trk>
</gpx>